Time,TemperatureF,DewpointF,PressureIn,WindDirection,WindDirectionDegrees,WindSpeedMPH,WindSpeedGustMPH,Humidity,HourlyPrecipIn,Conditions,Clouds,dailyrainin,SoftwareType,DateUTC
2013-09-01 00:00:00,80.9,46.6,0.00,NNE,22,6.0,13.0,30,0.00,,---,0.00,VWS V14.01,2013-09-01 05:00:00,
2013-09-01 00:01:00,81.5,48.0,0.00,East,90,8.5,8.5,31,0.00,,---,0.00,VWS V14.01,2013-09-01 05:01:00,
2013-09-01 00:02:00,81.6,48.1,0.00,NE,45,4.9,8.5,31,0.00,,---,0.00,VWS V14.01,2013-09-01 05:02:00,
2013-09-01 00:03:00,81.5,47.1,0.00,North,0,9.8,9.8,30,0.00,,---,0.00,VWS V14.01,2013-09-01 05:03:00,
2013-09-01 00:04:00,81.6,47.2,0.00,NE,45,7.6,9.8,30,0.00,,---,0.00,VWS V14.01,2013-09-01 05:04:00,
2013-09-01 00:05:00,81.6,47.2,0.00,NE,45,8.1,9.8,30,0.00,,---,0.00,VWS V14.01,2013-09-01 05:05:00,
2013-09-01 00:06:00,81.6,47.2,0.00,NNE,22,10.5,10.5,30,0.00,,---,0.00,VWS V14.01,2013-09-01 05:06:00,
2013-09-01 00:08:00,80.7,46.5,0.00,NE,45,11.2,11.9,30,0.00,,---,0.00,VWS V14.01,2013-09-01 05:08:00,
2013-09-01 00:09:00,80.9,46.6,0.00,NE,45,8.1,11.9,30,0.00,,---,0.00,VWS V14.01,2013-09-01 05:09:00,
2013-09-01 00:10:00,81.3,46.9,0.00,NE,45,8.7,11.9,30,0.00,,---,0.00,VWS V14.01,2013-09-01 05:10:00,
2013-09-01 00:11:00,81.5,47.1,0.00,NE,45,5.4,11.9,30,0.00,,---,0.00,VWS V14.01,2013-09-01 05:11:00,
2013-09-01 00:12:00,81.5,47.1,0.00,NE,45,12.8,12.8,30,0.00,,---,0.00,VWS V14.01,2013-09-01 05:12:00,
2013-09-01 00:13:00,81.5,47.1,0.00,NE,45,6.0,12.8,30,0.00,,---,0.00,VWS V14.01,2013-09-01 05:13:00,
2013-09-01 00:14:00,81.6,47.2,0.00,North,0,8.5,12.8,30,0.00,,---,0.00,VWS V14.01,2013-09-01 05:14:00,
2013-09-01 00:16:00,81.1,46.8,0.00,North,0,6.5,12.8,30,0.00,,---,0.00,VWS V14.01,2013-09-01 05:16:00,
2013-09-01 00:17:00,81.1,46.8,0.00,NE,45,8.5,12.8,30,0.00,,---,0.00,VWS V14.01,2013-09-01 05:17:00,
2013-09-01 00:18:00,81.3,46.9,0.00,North,0,10.7,13.2,30,0.00,,---,0.00,VWS V14.01,2013-09-01 05:18:00,
2013-09-01 00:19:00,81.3,46.9,0.00,NE,45,7.8,13.2,30,0.00,,---,0.00,VWS V14.01,2013-09-01 05:19:00,
2013-09-01 00:20:00,81.3,46.9,0.00,NE,45,7.6,13.2,30,0.00,,---,0.00,VWS V14.01,2013-09-01 05:20:00,
2013-09-01 00:21:00,81.1,46.8,0.00,North,0,7.6,13.2,30,0.00,,---,0.00,VWS V14.01,2013-09-01 05:21:00,
2013-09-01 00:22:00,80.9,46.6,0.00,NE,45,7.8,13.2,30,0.00,,---,0.00,VWS V14.01,2013-09-01 05:22:00,
2013-09-01 00:23:00,81.6,47.2,0.00,NE,45,6.3,13.2,30,0.00,,---,0.00,VWS V14.01,2013-09-01 05:23:00,
2013-09-01 00:24:00,81.6,47.2,0.00,North,0,9.8,13.2,30,0.00,,---,0.00,VWS V14.01,2013-09-01 05:24:00,
2013-09-01 00:26:00,81.5,47.1,0.00,NE,45,7.4,13.2,30,0.00,,---,0.00,VWS V14.01,2013-09-01 05:26:00,
2013-09-01 00:27:00,82.5,48.0,0.00,East,90,4.7,13.2,30,0.00,,---,0.00,VWS V14.01,2013-09-01 05:27:00,
2013-09-01 00:28:00,82.5,48.0,0.00,NNE,22,3.4,13.2,30,0.00,,---,0.00,VWS V14.01,2013-09-01 05:28:00,
2013-09-01 00:29:00,82.2,46.8,0.00,North,0,12.1,13.2,29,0.00,,---,0.00,VWS V14.01,2013-09-01 05:29:00,
2013-09-01 00:30:00,82.2,46.8,0.00,NE,45,5.6,13.2,29,0.00,,---,0.00,VWS V14.01,2013-09-01 05:30:00,
2013-09-01 00:31:00,82.4,47.8,0.00,NE,45,7.8,7.8,30,0.00,,---,0.00,VWS V14.01,2013-09-01 05:31:00,
2013-09-01 00:32:00,82.4,47.8,0.00,NE,45,7.8,7.8,30,0.00,,---,0.00,VWS V14.01,2013-09-01 05:32:00,
2013-09-01 00:33:00,82.4,47.8,0.00,NE,45,5.4,7.8,30,0.00,,---,0.00,VWS V14.01,2013-09-01 05:33:00,
2013-09-01 00:34:00,83.1,48.5,0.00,North,0,9.8,11.2,30,0.00,,---,0.00,VWS V14.01,2013-09-01 05:34:00,
2013-09-01 00:35:00,82.9,48.3,0.00,NE,45,8.5,11.2,30,0.00,,---,0.00,VWS V14.01,2013-09-01 05:35:00,
2013-09-01 00:36:00,82.9,48.3,0.00,NE,45,8.7,11.2,30,0.00,,---,0.00,VWS V14.01,2013-09-01 05:36:00,
2013-09-01 00:37:00,82.9,48.3,0.00,NE,45,6.0,11.2,30,0.00,,---,0.00,VWS V14.01,2013-09-01 05:37:00,
2013-09-01 00:38:00,82.5,47.1,0.00,NE,45,3.1,11.2,29,0.00,,---,0.00,VWS V14.01,2013-09-01 05:38:00,
2013-09-01 00:39:00,82.5,47.1,0.00,NE,45,3.1,11.2,29,0.00,,---,0.00,VWS V14.01,2013-09-01 05:39:00,
2013-09-01 00:40:00,82.9,48.3,0.00,NE,45,4.0,11.2,30,0.00,,---,0.00,VWS V14.01,2013-09-01 05:40:00,
2013-09-01 00:41:00,83.1,48.5,0.00,North,0,5.4,11.2,30,0.00,,---,0.00,VWS V14.01,2013-09-01 05:41:00,
2013-09-01 00:42:00,83.1,48.5,0.00,North,0,6.3,11.2,30,0.00,,---,0.00,VWS V14.01,2013-09-01 05:42:00,
2013-09-01 00:44:00,83.1,47.6,0.00,NE,45,1.6,11.2,29,0.00,,---,0.00,VWS V14.01,2013-09-01 05:44:00,
2013-09-01 00:45:00,83.1,47.6,0.00,SE,135,6.9,11.2,29,0.00,,---,0.00,VWS V14.01,2013-09-01 05:45:00,
2013-09-01 00:46:00,82.7,47.3,0.00,NE,45,14.5,14.8,29,0.00,,---,0.00,VWS V14.01,2013-09-01 05:46:00,
2013-09-01 00:47:00,83.1,47.6,0.00,NE,45,9.6,14.8,29,0.00,,---,0.00,VWS V14.01,2013-09-01 05:47:00,
2013-09-01 00:48:00,83.1,47.6,0.00,East,90,6.0,14.8,29,0.00,,---,0.00,VWS V14.01,2013-09-01 05:48:00,
2013-09-01 00:49:00,83.1,47.6,0.00,NE,45,6.3,14.8,29,0.00,,---,0.00,VWS V14.01,2013-09-01 05:49:00,
2013-09-01 00:50:00,83.3,47.7,0.00,NE,45,6.0,14.8,29,0.00,,---,0.00,VWS V14.01,2013-09-01 05:50:00,
2013-09-01 00:51:00,83.3,47.7,0.00,North,0,7.2,14.8,29,0.00,,---,0.00,VWS V14.01,2013-09-01 05:51:00,
2013-09-01 00:52:00,83.3,47.7,0.00,North,0,7.2,14.8,29,0.00,,---,0.00,VWS V14.01,2013-09-01 05:52:00,
2013-09-01 00:53:00,82.7,47.3,0.00,North,0,3.8,14.8,29,0.00,,---,0.00,VWS V14.01,2013-09-01 05:53:00,
2013-09-01 00:54:00,83.1,47.6,0.00,North,0,2.9,14.8,29,0.00,,---,0.00,VWS V14.01,2013-09-01 05:54:00,
2013-09-01 00:55:00,83.1,47.6,0.00,NE,45,5.4,14.8,29,0.00,,---,0.00,VWS V14.01,2013-09-01 05:55:00,
2013-09-01 00:56:00,83.8,48.2,0.00,NE,45,3.4,14.8,29,0.00,,---,0.00,VWS V14.01,2013-09-01 05:56:00,
2013-09-01 00:57:00,84.0,48.3,0.00,East,90,6.3,14.8,29,0.00,,---,0.00,VWS V14.01,2013-09-01 05:57:00,
2013-09-01 00:58:00,84.2,48.5,0.00,NE,45,4.9,14.8,29,0.00,,---,0.00,VWS V14.01,2013-09-01 05:58:00,
2013-09-01 00:59:00,83.8,48.2,0.00,NE,45,9.2,14.8,29,0.00,,---,0.00,VWS V14.01,2013-09-01 05:59:00,
2013-09-01 01:00:00,83.8,48.2,0.00,ESE,112,6.5,14.8,29,0.00,,---,0.00,VWS V14.01,2013-09-01 06:00:00,
2013-09-01 01:01:00,83.8,48.2,0.00,NE,45,4.5,6.5,29,0.00,,---,0.00,VWS V14.01,2013-09-01 06:01:00,
2013-09-01 01:02:00,84.0,48.3,0.00,NE,45,7.8,7.8,29,0.00,,---,0.00,VWS V14.01,2013-09-01 06:02:00,
2013-09-01 01:03:00,84.0,48.3,0.00,NE,45,7.6,7.8,29,0.00,,---,0.00,VWS V14.01,2013-09-01 06:03:00,
2013-09-01 01:04:00,83.1,47.6,0.00,NE,45,10.1,10.1,29,0.00,,---,0.00,VWS V14.01,2013-09-01 06:04:00,
2013-09-01 01:05:00,83.1,47.6,0.00,NE,45,10.1,10.1,29,0.00,,---,0.00,VWS V14.01,2013-09-01 06:05:00,
2013-09-01 01:06:00,83.8,48.2,0.00,NE,45,5.4,10.1,29,0.00,,---,0.00,VWS V14.01,2013-09-01 06:06:00,
2013-09-01 01:07:00,83.8,48.2,0.00,NE,45,4.0,10.1,29,0.00,,---,0.00,VWS V14.01,2013-09-01 06:07:00,
2013-09-01 01:08:00,83.8,48.2,0.00,NE,45,4.0,10.1,29,0.00,,---,0.00,VWS V14.01,2013-09-01 06:08:00,
2013-09-01 01:09:00,83.8,48.2,0.00,North,0,4.0,10.7,29,0.00,,---,0.00,VWS V14.01,2013-09-01 06:09:00,
2013-09-01 01:10:00,83.8,48.2,0.00,North,0,4.0,10.7,29,0.00,,---,0.00,VWS V14.01,2013-09-01 06:10:00,
2013-09-01 01:11:00,83.4,47.0,0.00,North,0,9.6,10.7,28,0.00,,---,0.00,VWS V14.01,2013-09-01 06:11:00,
2013-09-01 01:12:00,83.3,46.8,0.00,NE,45,4.3,10.7,28,0.00,,---,0.00,VWS V14.01,2013-09-01 06:12:00,
2013-09-01 01:13:00,83.1,47.6,0.00,NNW,338,9.2,10.7,29,0.00,,---,0.00,VWS V14.01,2013-09-01 06:13:00,
2013-09-01 01:14:00,83.1,47.6,0.00,North,0,5.4,10.7,29,0.00,,---,0.00,VWS V14.01,2013-09-01 06:14:00,
2013-09-01 01:15:00,83.3,47.7,0.00,NE,45,9.8,10.7,29,0.00,,---,0.00,VWS V14.01,2013-09-01 06:15:00,
2013-09-01 01:16:00,83.6,48.0,0.00,North,0,4.0,9.8,29,0.00,,---,0.00,VWS V14.01,2013-09-01 06:16:00,
2013-09-01 01:17:00,83.6,48.0,0.00,North,0,5.6,9.8,29,0.00,,---,0.00,VWS V14.01,2013-09-01 06:17:00,
2013-09-01 01:18:00,83.6,48.0,0.00,North,0,4.9,9.8,29,0.00,,---,0.00,VWS V14.01,2013-09-01 06:18:00,
2013-09-01 01:19:00,83.6,48.0,0.00,North,0,4.9,9.8,29,0.00,,---,0.00,VWS V14.01,2013-09-01 06:19:00,
2013-09-01 01:21:00,83.6,48.0,0.00,NE,45,6.5,12.1,29,0.00,,---,0.00,VWS V14.01,2013-09-01 06:21:00,
2013-09-01 01:22:00,83.8,48.2,0.00,NE,45,7.6,12.1,29,0.00,,---,0.00,VWS V14.01,2013-09-01 06:22:00,
2013-09-01 01:23:00,84.2,47.6,0.00,NE,45,4.0,12.1,28,0.00,,---,0.00,VWS V14.01,2013-09-01 06:23:00,
2013-09-01 01:24:00,85.2,49.4,0.00,ENE,68,2.0,12.1,29,0.00,,---,0.00,VWS V14.01,2013-09-01 06:24:00,
2013-09-01 01:25:00,85.4,49.6,0.00,East,90,4.0,12.1,29,0.00,,---,0.00,VWS V14.01,2013-09-01 06:25:00,
2013-09-01 01:26:00,85.4,47.7,0.00,NE,45,6.0,12.1,27,0.00,,---,0.00,VWS V14.01,2013-09-01 06:26:00,
2013-09-01 01:27:00,84.7,45.0,0.00,North,0,8.7,12.1,25,0.00,,---,0.00,VWS V14.01,2013-09-01 06:27:00,
2013-09-01 01:28:00,84.7,45.0,0.00,North,0,5.6,12.1,25,0.00,,---,0.00,VWS V14.01,2013-09-01 06:28:00,
2013-09-01 01:29:00,84.3,45.8,0.00,NNE,22,10.7,12.1,26,0.00,,---,0.00,VWS V14.01,2013-09-01 06:29:00,
2013-09-01 01:30:00,84.2,45.6,0.00,North,0,10.5,12.1,26,0.00,,---,0.00,VWS V14.01,2013-09-01 06:30:00,
2013-09-01 01:31:00,84.2,46.6,0.00,North,0,7.8,12.5,27,0.00,,---,0.00,VWS V14.01,2013-09-01 06:31:00,
2013-09-01 01:32:00,83.8,46.3,0.00,North,0,8.1,12.5,27,0.00,,---,0.00,VWS V14.01,2013-09-01 06:32:00,
2013-09-01 01:33:00,83.8,45.3,0.00,North,0,9.6,12.5,26,0.00,,---,0.00,VWS V14.01,2013-09-01 06:33:00,
2013-09-01 01:34:00,83.8,45.3,0.00,North,0,6.3,12.5,26,0.00,,---,0.00,VWS V14.01,2013-09-01 06:34:00,
2013-09-01 01:35:00,83.8,45.3,0.00,NE,45,8.5,12.5,26,0.00,,---,0.00,VWS V14.01,2013-09-01 06:35:00,
2013-09-01 01:36:00,83.4,46.0,0.00,North,0,5.8,12.5,27,0.00,,---,0.00,VWS V14.01,2013-09-01 06:36:00,
2013-09-01 01:37:00,83.4,46.0,0.00,NE,45,5.6,12.5,27,0.00,,---,0.00,VWS V14.01,2013-09-01 06:37:00,
2013-09-01 01:38:00,84.0,46.4,0.00,NE,45,6.5,12.5,27,0.00,,---,0.00,VWS V14.01,2013-09-01 06:38:00,
2013-09-01 01:40:00,84.3,46.8,0.00,North,0,5.8,12.5,27,0.00,,---,0.00,VWS V14.01,2013-09-01 06:40:00,
2013-09-01 01:41:00,84.5,45.9,0.00,North,0,10.3,12.5,26,0.00,,---,0.00,VWS V14.01,2013-09-01 06:41:00,
2013-09-01 01:42:00,84.3,46.8,0.00,NW,315,6.0,12.5,27,0.00,,---,0.00,VWS V14.01,2013-09-01 06:42:00,
2013-09-01 01:43:00,84.3,46.8,0.00,NW,315,3.8,12.5,27,0.00,,---,0.00,VWS V14.01,2013-09-01 06:43:00,
2013-09-01 01:44:00,84.3,46.8,0.00,North,0,4.3,12.5,27,0.00,,---,0.00,VWS V14.01,2013-09-01 06:44:00,
2013-09-01 01:45:00,84.7,47.1,0.00,NE,45,4.0,12.5,27,0.00,,---,0.00,VWS V14.01,2013-09-01 06:45:00,
2013-09-01 01:46:00,84.9,47.2,0.00,North,0,3.6,5.4,27,0.00,,---,0.00,VWS V14.01,2013-09-01 06:46:00,
2013-09-01 01:47:00,85.4,47.7,0.00,NW,315,3.8,5.8,27,0.00,,---,0.00,VWS V14.01,2013-09-01 06:47:00,
2013-09-01 01:48:00,85.2,47.5,0.00,North,0,5.6,5.8,27,0.00,,---,0.00,VWS V14.01,2013-09-01 06:48:00,
2013-09-01 01:49:00,85.2,47.5,0.00,North,0,8.5,8.5,27,0.00,,---,0.00,VWS V14.01,2013-09-01 06:49:00,
2013-09-01 01:50:00,85.2,46.5,0.00,North,0,7.6,8.5,26,0.00,,---,0.00,VWS V14.01,2013-09-01 06:50:00,
2013-09-01 01:51:00,84.7,45.0,0.00,North,0,4.0,10.3,25,0.00,,---,0.00,VWS V14.01,2013-09-01 06:51:00,
2013-09-01 01:52:00,85.2,46.5,0.00,NE,45,4.9,10.3,26,0.00,,---,0.00,VWS V14.01,2013-09-01 06:52:00,
2013-09-01 01:53:00,85.2,46.5,0.00,NE,45,6.0,10.3,26,0.00,,---,0.00,VWS V14.01,2013-09-01 06:53:00,
2013-09-01 01:54:00,85.8,45.9,0.00,NE,45,6.7,10.3,25,0.00,,---,0.00,VWS V14.01,2013-09-01 06:54:00,
2013-09-01 01:55:00,85.8,45.9,0.00,NE,45,6.7,10.3,25,0.00,,---,0.00,VWS V14.01,2013-09-01 06:55:00,
2013-09-01 01:56:00,86.0,47.1,0.00,East,90,6.0,10.3,26,0.00,,---,0.00,VWS V14.01,2013-09-01 06:56:00,
2013-09-01 01:57:00,85.8,45.9,0.00,East,90,6.3,10.3,25,0.00,,---,0.00,VWS V14.01,2013-09-01 06:57:00,
2013-09-01 01:59:00,86.1,47.3,0.00,North,0,4.3,10.3,26,0.00,,---,0.00,VWS V14.01,2013-09-01 06:59:00,
2013-09-01 02:00:00,85.2,46.5,0.00,NNE,22,6.3,10.3,26,0.00,,---,0.00,VWS V14.01,2013-09-01 07:00:00,
2013-09-01 02:01:00,85.2,46.5,0.00,NNE,22,7.2,7.2,26,0.00,,---,0.00,VWS V14.01,2013-09-01 07:01:00,
2013-09-01 02:02:00,85.6,45.8,0.00,NNE,22,5.6,7.2,25,0.00,,---,0.00,VWS V14.01,2013-09-01 07:02:00,
2013-09-01 02:03:00,85.6,45.8,0.00,NE,45,5.8,7.2,25,0.00,,---,0.00,VWS V14.01,2013-09-01 07:03:00,
2013-09-01 02:04:00,86.0,45.0,0.00,East,90,6.3,7.2,24,0.00,,---,0.00,VWS V14.01,2013-09-01 07:04:00,
2013-09-01 02:05:00,86.3,47.4,0.00,NE,45,7.6,7.6,26,0.00,,---,0.00,VWS V14.01,2013-09-01 07:05:00,
2013-09-01 02:06:00,86.1,46.2,0.00,East,90,7.2,10.1,25,0.00,,---,0.00,VWS V14.01,2013-09-01 07:06:00,
2013-09-01 02:07:00,86.3,46.4,0.00,NE,45,3.4,10.1,25,0.00,,---,0.00,VWS V14.01,2013-09-01 07:07:00,
2013-09-01 02:08:00,86.7,47.7,0.00,SE,135,5.8,10.1,26,0.00,,---,0.00,VWS V14.01,2013-09-01 07:08:00,
2013-09-01 02:09:00,86.7,47.7,0.00,SE,135,5.8,10.1,26,0.00,,---,0.00,VWS V14.01,2013-09-01 07:09:00,
2013-09-01 02:10:00,86.1,44.0,0.00,North,0,8.5,10.1,23,0.00,,---,0.00,VWS V14.01,2013-09-01 07:10:00,
2013-09-01 02:11:00,86.1,44.0,0.00,NW,315,6.3,10.1,23,0.00,,---,0.00,VWS V14.01,2013-09-01 07:11:00,
2013-09-01 02:12:00,86.1,44.0,0.00,NW,315,5.4,10.1,23,0.00,,---,0.00,VWS V14.01,2013-09-01 07:12:00,
2013-09-01 02:13:00,85.6,43.6,0.00,North,0,4.3,10.1,23,0.00,,---,0.00,VWS V14.01,2013-09-01 07:13:00,
2013-09-01 02:14:00,86.3,45.3,0.00,South,180,3.8,10.1,24,0.00,,---,0.00,VWS V14.01,2013-09-01 07:14:00,
2013-09-01 02:15:00,86.5,44.3,0.00,SW,225,1.3,10.1,23,0.00,,---,0.00,VWS V14.01,2013-09-01 07:15:00,
2013-09-01 02:16:00,86.9,45.8,0.00,NW,315,4.3,4.3,24,0.00,,---,0.00,VWS V14.01,2013-09-01 07:16:00,
2013-09-01 02:17:00,86.7,44.5,0.00,NE,45,12.1,12.1,23,0.00,,---,0.00,VWS V14.01,2013-09-01 07:17:00,
2013-09-01 02:18:00,86.5,44.3,0.00,NNE,22,11.9,12.1,23,0.00,,---,0.00,VWS V14.01,2013-09-01 07:18:00,
2013-09-01 02:20:00,64.0,58.4,0.00,NW,315,4.0,4.9,82,0.00,,---,0.00,VWS V14.01,2013-09-01 07:20:00,
2013-09-01 02:21:00,86.0,43.9,0.00,NW,315,4.9,12.8,23,0.00,,---,0.00,VWS V14.01,2013-09-01 07:21:00,
2013-09-01 02:22:00,86.0,43.9,0.00,NW,315,6.0,12.8,23,0.00,,---,0.00,VWS V14.01,2013-09-01 07:22:00,
2013-09-01 02:23:00,86.1,44.0,0.00,North,0,6.5,12.8,23,0.00,,---,0.00,VWS V14.01,2013-09-01 07:23:00,
2013-09-01 02:24:00,86.1,44.0,0.00,North,0,7.4,12.8,23,0.00,,---,0.00,VWS V14.01,2013-09-01 07:24:00,
2013-09-01 02:25:00,86.0,45.0,0.00,North,0,4.0,12.8,24,0.00,,---,0.00,VWS V14.01,2013-09-01 07:25:00,
2013-09-01 02:26:00,85.8,43.8,0.00,NW,315,4.0,12.8,23,0.00,,---,0.00,VWS V14.01,2013-09-01 07:26:00,
2013-09-01 02:27:00,86.0,43.9,0.00,NW,315,7.6,12.8,23,0.00,,---,0.00,VWS V14.01,2013-09-01 07:27:00,
2013-09-01 02:28:00,86.1,44.0,0.00,NE,45,5.4,12.8,23,0.00,,---,0.00,VWS V14.01,2013-09-01 07:28:00,
2013-09-01 02:29:00,86.3,44.2,0.00,NE,45,6.3,12.8,23,0.00,,---,0.00,VWS V14.01,2013-09-01 07:29:00,
2013-09-01 02:30:00,86.3,44.2,0.00,NE,45,6.5,12.8,23,0.00,,---,0.00,VWS V14.01,2013-09-01 07:30:00,
2013-09-01 02:31:00,86.7,45.6,0.00,NE,45,3.4,6.5,24,0.00,,---,0.00,VWS V14.01,2013-09-01 07:31:00,
2013-09-01 02:32:00,87.2,45.0,0.00,East,90,6.0,6.5,23,0.00,,---,0.00,VWS V14.01,2013-09-01 07:32:00,
2013-09-01 02:33:00,87.2,45.0,0.00,NE,45,5.8,6.5,23,0.00,,---,0.00,VWS V14.01,2013-09-01 07:33:00,
2013-09-01 02:34:00,86.7,44.5,0.00,NNE,22,8.1,8.1,23,0.00,,---,0.00,VWS V14.01,2013-09-01 07:34:00,
2013-09-01 02:35:00,63.5,58.2,0.00,North,0,3.4,6.5,83,0.00,,---,0.00,VWS V14.01,2013-09-01 07:35:00,
2013-09-01 02:36:00,87.0,44.8,0.00,NNW,338,2.7,8.1,23,0.00,,---,0.00,VWS V14.01,2013-09-01 07:36:00,
2013-09-01 02:38:00,87.8,45.4,0.00,East,90,4.3,8.1,23,0.00,,---,0.00,VWS V14.01,2013-09-01 07:38:00,
2013-09-01 02:39:00,87.8,45.4,0.00,East,90,4.7,8.1,23,0.00,,---,0.00,VWS V14.01,2013-09-01 07:39:00,
2013-09-01 02:40:00,87.9,44.4,0.00,NE,45,5.8,8.1,22,0.00,,---,0.00,VWS V14.01,2013-09-01 07:40:00,
2013-09-01 02:42:00,87.9,44.4,0.00,NE,45,7.6,8.1,22,0.00,,---,0.00,VWS V14.01,2013-09-01 07:42:00,
2013-09-01 02:44:00,87.0,42.4,0.00,North,0,4.7,8.1,21,0.00,,---,0.00,VWS V14.01,2013-09-01 07:44:00,
2013-09-01 02:45:00,87.4,42.7,0.00,North,0,4.7,8.1,21,0.00,,---,0.00,VWS V14.01,2013-09-01 07:45:00,
2013-09-01 02:46:00,87.4,42.7,0.00,North,0,2.9,4.7,21,0.00,,---,0.00,VWS V14.01,2013-09-01 07:46:00,
2013-09-01 02:47:00,87.8,44.2,0.00,NE,45,5.4,5.8,22,0.00,,---,0.00,VWS V14.01,2013-09-01 07:47:00,
2013-09-01 02:48:00,87.9,44.4,0.00,NE,45,4.9,6.0,22,0.00,,---,0.00,VWS V14.01,2013-09-01 07:48:00,
2013-09-01 02:49:00,88.3,44.7,0.00,NE,45,3.4,6.0,22,0.00,,---,0.00,VWS V14.01,2013-09-01 07:49:00,
2013-09-01 02:50:00,88.3,44.7,0.00,NE,45,6.3,6.3,22,0.00,,---,0.00,VWS V14.01,2013-09-01 07:50:00,
2013-09-01 02:51:00,88.8,45.1,0.00,East,90,2.9,6.3,22,0.00,,---,0.00,VWS V14.01,2013-09-01 07:51:00,
2013-09-01 02:52:00,89.0,45.3,0.00,East,90,2.0,6.3,22,0.00,,---,0.00,VWS V14.01,2013-09-01 07:52:00,
2013-09-01 02:53:00,89.4,45.6,0.00,North,0,1.3,6.3,22,0.00,,---,0.00,VWS V14.01,2013-09-01 07:53:00,
2013-09-01 02:54:00,89.4,44.3,0.00,West,270,6.0,6.3,21,0.00,,---,0.00,VWS V14.01,2013-09-01 07:54:00,
2013-09-01 02:55:00,89.0,44.1,0.00,North,0,4.0,6.3,21,0.00,,---,0.00,VWS V14.01,2013-09-01 07:55:00,
2013-09-01 02:56:00,88.8,43.9,0.00,West,270,2.9,6.3,21,0.00,,---,0.00,VWS V14.01,2013-09-01 07:56:00,
2013-09-01 02:57:00,89.2,42.9,0.00,West,270,2.0,6.3,20,0.00,,---,0.00,VWS V14.01,2013-09-01 07:57:00,
2013-09-01 02:58:00,89.4,43.1,0.00,NW,315,1.6,6.3,20,0.00,,---,0.00,VWS V14.01,2013-09-01 07:58:00,
2013-09-01 03:00:00,89.7,44.7,0.00,NE,45,2.5,6.3,21,0.00,,---,0.00,VWS V14.01,2013-09-01 08:00:00,
2013-09-01 03:01:00,89.7,43.4,0.00,NE,45,8.1,8.1,20,0.00,,---,0.00,VWS V14.01,2013-09-01 08:01:00,
2013-09-01 03:02:00,89.2,41.6,0.00,NE,45,5.4,8.1,19,0.00,,---,0.00,VWS V14.01,2013-09-01 08:02:00,
2013-09-01 03:03:00,88.5,42.3,0.00,NE,45,10.5,10.5,20,0.00,,---,0.00,VWS V14.01,2013-09-01 08:03:00,
2013-09-01 03:04:00,88.1,42.0,0.00,North,0,6.3,10.5,20,0.00,,---,0.00,VWS V14.01,2013-09-01 08:04:00,
2013-09-01 03:05:00,88.1,42.0,0.00,NNE,22,6.3,10.5,20,0.00,,---,0.00,VWS V14.01,2013-09-01 08:05:00,
2013-09-01 03:06:00,87.8,41.8,0.00,North,0,8.7,10.5,20,0.00,,---,0.00,VWS V14.01,2013-09-01 08:06:00,
2013-09-01 03:07:00,87.4,41.5,0.00,NE,45,6.9,10.5,20,0.00,,---,0.00,VWS V14.01,2013-09-01 08:07:00,
2013-09-01 03:09:00,87.9,41.9,0.00,NE,45,5.4,10.5,20,0.00,,---,0.00,VWS V14.01,2013-09-01 08:09:00,
2013-09-01 03:10:00,88.1,42.0,0.00,NE,45,2.7,10.5,20,0.00,,---,0.00,VWS V14.01,2013-09-01 08:10:00,
2013-09-01 03:11:00,87.4,41.5,0.00,NW,315,4.9,10.5,20,0.00,,---,0.00,VWS V14.01,2013-09-01 08:11:00,
2013-09-01 03:12:00,87.8,41.8,0.00,NNW,338,4.0,10.5,20,0.00,,---,0.00,VWS V14.01,2013-09-01 08:12:00,
2013-09-01 03:13:00,87.9,41.9,0.00,NE,45,2.5,10.5,20,0.00,,---,0.00,VWS V14.01,2013-09-01 08:13:00,
2013-09-01 03:14:00,88.3,42.2,0.00,South,180,2.9,10.5,20,0.00,,---,0.00,VWS V14.01,2013-09-01 08:14:00,
2013-09-01 03:16:00,88.7,42.5,0.00,NW,315,2.7,10.5,20,0.00,,---,0.00,VWS V14.01,2013-09-01 08:16:00,
2013-09-01 03:17:00,88.3,42.2,0.00,NW,315,6.9,10.5,20,0.00,,---,0.00,VWS V14.01,2013-09-01 08:17:00,
2013-09-01 03:18:00,88.1,42.0,0.00,NW,315,2.7,10.5,20,0.00,,---,0.00,VWS V14.01,2013-09-01 08:18:00,
2013-09-01 03:19:00,88.1,42.0,0.00,NE,45,4.9,10.5,20,0.00,,---,0.00,VWS V14.01,2013-09-01 08:19:00,
2013-09-01 03:20:00,87.9,41.9,0.00,NW,315,9.6,10.5,20,0.00,,---,0.00,VWS V14.01,2013-09-01 08:20:00,
2013-09-01 03:21:00,87.9,41.9,0.00,North,0,4.9,10.5,20,0.00,,---,0.00,VWS V14.01,2013-09-01 08:21:00,
2013-09-01 03:22:00,87.9,41.9,0.00,North,0,4.9,10.5,20,0.00,,---,0.00,VWS V14.01,2013-09-01 08:22:00,
2013-09-01 03:24:00,62.6,57.3,0.00,NW,315,0.0,3.1,83,0.00,,---,0.00,VWS V14.01,2013-09-01 08:24:00,
2013-09-01 03:25:00,87.0,39.8,0.00,NNW,338,6.0,11.0,19,0.00,,---,0.00,VWS V14.01,2013-09-01 08:25:00,
2013-09-01 03:26:00,87.2,40.0,0.00,North,0,5.6,11.0,19,0.00,,---,0.00,VWS V14.01,2013-09-01 08:26:00,
2013-09-01 03:27:00,87.6,40.3,0.00,NW,315,5.4,11.0,19,0.00,,---,0.00,VWS V14.01,2013-09-01 08:27:00,
2013-09-01 03:28:00,87.6,38.9,0.00,WNW,292,7.2,11.0,18,0.00,,---,0.00,VWS V14.01,2013-09-01 08:28:00,
2013-09-01 03:30:00,87.6,38.9,0.00,North,0,5.8,11.0,18,0.00,,---,0.00,VWS V14.01,2013-09-01 08:30:00,
2013-09-01 03:31:00,88.3,40.9,0.00,NE,45,5.6,5.8,19,0.00,,---,0.00,VWS V14.01,2013-09-01 08:31:00,
2013-09-01 03:32:00,87.9,40.6,0.00,North,0,6.3,6.3,19,0.00,,---,0.00,VWS V14.01,2013-09-01 08:32:00,
2013-09-01 03:33:00,87.9,40.6,0.00,North,0,7.2,9.0,19,0.00,,---,0.00,VWS V14.01,2013-09-01 08:33:00,
2013-09-01 03:34:00,87.8,40.4,0.00,North,0,5.6,9.0,19,0.00,,---,0.00,VWS V14.01,2013-09-01 08:34:00,
2013-09-01 03:35:00,87.8,40.4,0.00,NNW,338,8.5,9.0,19,0.00,,---,0.00,VWS V14.01,2013-09-01 08:35:00,
2013-09-01 03:36:00,87.8,40.4,0.00,NE,45,7.4,9.0,19,0.00,,---,0.00,VWS V14.01,2013-09-01 08:36:00,
2013-09-01 03:37:00,87.9,41.9,0.00,NE,45,6.3,9.0,20,0.00,,---,0.00,VWS V14.01,2013-09-01 08:37:00,
2013-09-01 03:38:00,87.9,40.6,0.00,North,0,6.0,9.0,19,0.00,,---,0.00,VWS V14.01,2013-09-01 08:38:00,
2013-09-01 03:39:00,87.9,40.6,0.00,North,0,6.0,9.0,19,0.00,,---,0.00,VWS V14.01,2013-09-01 08:39:00,
2013-09-01 03:40:00,87.4,40.1,0.00,North,0,7.6,10.7,19,0.00,,---,0.00,VWS V14.01,2013-09-01 08:40:00,
2013-09-01 03:42:00,87.4,40.1,0.00,North,0,3.4,10.7,19,0.00,,---,0.00,VWS V14.01,2013-09-01 08:42:00,
2013-09-01 03:44:00,87.8,40.4,0.00,NW,315,8.1,10.7,19,0.00,,---,0.00,VWS V14.01,2013-09-01 08:44:00,
2013-09-01 03:45:00,87.8,40.4,0.00,NW,315,6.3,10.7,19,0.00,,---,0.00,VWS V14.01,2013-09-01 08:45:00,
2013-09-01 03:46:00,87.6,38.9,0.00,NW,315,2.5,7.2,18,0.00,,---,0.00,VWS V14.01,2013-09-01 08:46:00,
2013-09-01 03:47:00,87.8,39.0,0.00,NW,315,2.7,7.2,18,0.00,,---,0.00,VWS V14.01,2013-09-01 08:47:00,
2013-09-01 03:48:00,88.7,41.2,0.00,SE,135,0.0,7.2,19,0.00,,---,0.00,VWS V14.01,2013-09-01 08:48:00,
2013-09-01 03:49:00,88.8,41.3,0.00,NW,315,3.8,7.2,19,0.00,,---,0.00,VWS V14.01,2013-09-01 08:49:00,
2013-09-01 03:50:00,89.4,40.3,0.00,West,270,2.9,7.2,18,0.00,,---,0.00,VWS V14.01,2013-09-01 08:50:00,
2013-09-01 03:51:00,89.4,40.3,0.00,West,270,2.9,7.2,18,0.00,,---,0.00,VWS V14.01,2013-09-01 08:51:00,
2013-09-01 03:52:00,89.9,42.2,0.00,NE,45,3.6,7.2,19,0.00,,---,0.00,VWS V14.01,2013-09-01 08:52:00,
2013-09-01 03:53:00,89.7,40.6,0.00,NE,45,6.0,7.2,18,0.00,,---,0.00,VWS V14.01,2013-09-01 08:53:00,
2013-09-01 03:54:00,89.7,40.6,0.00,NE,45,10.5,10.5,18,0.00,,---,0.00,VWS V14.01,2013-09-01 08:54:00,
2013-09-01 03:55:00,88.3,39.5,0.00,NE,45,5.6,10.5,18,0.00,,---,0.00,VWS V14.01,2013-09-01 08:55:00,
2013-09-01 03:56:00,88.1,34.7,0.00,North,0,7.8,10.5,15,0.00,,---,0.00,VWS V14.01,2013-09-01 08:56:00,
2013-09-01 03:57:00,88.8,39.9,0.00,NE,45,3.1,10.5,18,0.00,,---,0.00,VWS V14.01,2013-09-01 08:57:00,
2013-09-01 03:58:00,88.8,39.9,0.00,SE,135,4.0,10.5,18,0.00,,---,0.00,VWS V14.01,2013-09-01 08:58:00,
2013-09-01 03:59:00,88.8,39.9,0.00,NNE,22,5.6,114.8,18,0.00,,---,0.00,VWS V14.01,2013-09-01 08:59:00,
2013-09-01 04:00:00,88.8,39.9,0.00,NNE,22,5.6,114.8,18,0.00,,---,0.00,VWS V14.01,2013-09-01 09:00:00,
2013-09-01 04:01:00,89.0,31.9,0.00,North,0,10.1,10.1,13,0.00,,---,0.00,VWS V14.01,2013-09-01 09:01:00,
2013-09-01 04:02:00,89.0,31.9,0.00,NE,45,6.3,10.1,13,0.00,,---,0.00,VWS V14.01,2013-09-01 09:02:00,
2013-09-01 04:03:00,88.1,31.1,0.00,North,0,7.6,10.1,13,0.00,,---,0.00,VWS V14.01,2013-09-01 09:03:00,
2013-09-01 04:05:00,88.3,31.3,0.00,NE,45,7.6,10.1,13,0.00,,---,0.00,VWS V14.01,2013-09-01 09:05:00,
2013-09-01 04:06:00,88.3,31.3,0.00,NW,315,5.6,10.1,13,0.00,,---,0.00,VWS V14.01,2013-09-01 09:06:00,
2013-09-01 04:07:00,88.3,31.3,0.00,NW,315,3.4,10.1,13,0.00,,---,0.00,VWS V14.01,2013-09-01 09:07:00,
2013-09-01 04:08:00,88.3,24.9,0.00,NNW,338,7.8,10.1,10,0.00,,---,0.00,VWS V14.01,2013-09-01 09:08:00,
2013-09-01 04:09:00,88.1,24.8,0.00,NNE,22,5.8,10.1,10,0.00,,---,0.00,VWS V14.01,2013-09-01 09:09:00,
2013-09-01 04:11:00,87.9,31.0,0.00,North,0,8.5,10.1,13,0.00,,---,0.00,VWS V14.01,2013-09-01 09:11:00,
2013-09-01 04:12:00,87.9,31.0,0.00,NE,45,3.8,10.1,13,0.00,,---,0.00,VWS V14.01,2013-09-01 09:12:00,
2013-09-01 04:13:00,87.9,31.0,0.00,NW,315,5.4,10.1,13,0.00,,---,0.00,VWS V14.01,2013-09-01 09:13:00,
2013-09-01 04:14:00,87.8,30.9,0.00,North,0,5.4,10.1,13,0.00,,---,0.00,VWS V14.01,2013-09-01 09:14:00,
2013-09-01 04:15:00,87.9,31.0,0.00,North,0,0.9,10.1,13,0.00,,---,0.00,VWS V14.01,2013-09-01 09:15:00,
2013-09-01 04:16:00,87.8,24.5,0.00,North,0,4.9,8.5,10,0.00,,---,0.00,VWS V14.01,2013-09-01 09:16:00,
2013-09-01 04:17:00,88.1,31.1,0.00,NW,315,4.7,8.5,13,0.00,,---,0.00,VWS V14.01,2013-09-01 09:17:00,
2013-09-01 04:18:00,88.3,24.9,0.00,North,0,4.3,8.5,10,0.00,,---,0.00,VWS V14.01,2013-09-01 09:18:00,
2013-09-01 04:20:00,88.3,24.9,0.00,NW,315,5.6,8.5,10,0.00,,---,0.00,VWS V14.01,2013-09-01 09:20:00,
2013-09-01 04:21:00,87.9,34.6,0.00,North,0,3.1,8.5,15,0.00,,---,0.00,VWS V14.01,2013-09-01 09:21:00,
2013-09-01 04:22:00,88.1,31.1,0.00,North,0,7.8,8.5,13,0.00,,---,0.00,VWS V14.01,2013-09-01 09:22:00,
2013-09-01 04:23:00,87.6,30.7,0.00,North,0,7.8,8.5,13,0.00,,---,0.00,VWS V14.01,2013-09-01 09:23:00,
2013-09-01 04:24:00,87.4,24.2,0.00,North,0,10.1,10.1,10,0.00,,---,0.00,VWS V14.01,2013-09-01 09:24:00,
2013-09-01 04:25:00,87.4,24.2,0.00,North,0,10.1,10.1,10,0.00,,---,0.00,VWS V14.01,2013-09-01 09:25:00,
2013-09-01 04:26:00,87.2,30.4,0.00,NE,45,9.8,10.3,13,0.00,,---,0.00,VWS V14.01,2013-09-01 09:26:00,
2013-09-01 04:27:00,86.7,18.4,0.00,NE,45,8.5,12.8,8,0.00,,---,0.00,VWS V14.01,2013-09-01 09:27:00,
2013-09-01 04:28:00,86.9,26.1,0.00,NE,45,5.8,12.8,11,0.00,,---,0.00,VWS V14.01,2013-09-01 09:28:00,
2013-09-01 04:29:00,87.2,18.8,0.00,North,0,8.1,12.8,8,0.00,,---,0.00,VWS V14.01,2013-09-01 09:29:00,
2013-09-01 04:30:00,87.2,18.8,0.00,NNE,22,4.9,12.8,8,0.00,,---,0.00,VWS V14.01,2013-09-01 09:30:00,
2013-09-01 04:31:00,87.4,19.0,0.00,NE,45,4.3,5.4,8,0.00,,---,0.00,VWS V14.01,2013-09-01 09:31:00,
2013-09-01 04:32:00,87.8,24.5,0.00,NE,45,10.1,10.3,10,0.00,,---,0.00,VWS V14.01,2013-09-01 09:32:00,
2013-09-01 04:33:00,87.8,24.5,0.00,NNE,22,10.5,10.5,10,0.00,,---,0.00,VWS V14.01,2013-09-01 09:33:00,
2013-09-01 04:34:00,87.2,26.4,0.00,NNE,22,7.8,10.5,11,0.00,,---,0.00,VWS V14.01,2013-09-01 09:34:00,
2013-09-01 04:35:00,87.0,26.2,0.00,NE,45,7.6,10.5,11,0.00,,---,0.00,VWS V14.01,2013-09-01 09:35:00,
2013-09-01 04:37:00,87.6,30.7,0.00,NE,45,6.0,10.5,13,0.00,,---,0.00,VWS V14.01,2013-09-01 09:37:00,
2013-09-01 04:38:00,87.8,30.9,0.00,ENE,68,4.9,10.5,13,0.00,,---,0.00,VWS V14.01,2013-09-01 09:38:00,
2013-09-01 04:39:00,87.9,24.6,0.00,NE,45,6.0,10.5,10,0.00,,---,0.00,VWS V14.01,2013-09-01 09:39:00,
2013-09-01 04:40:00,87.9,24.6,0.00,NE,45,5.4,10.5,10,0.00,,---,0.00,VWS V14.01,2013-09-01 09:40:00,
2013-09-01 04:41:00,88.3,24.9,0.00,NE,45,6.0,10.5,10,0.00,,---,0.00,VWS V14.01,2013-09-01 09:41:00,
2013-09-01 04:42:00,88.3,24.9,0.00,North,0,5.4,10.5,10,0.00,,---,0.00,VWS V14.01,2013-09-01 09:42:00,
2013-09-01 04:43:00,88.3,24.9,0.00,NNE,22,3.1,10.5,10,0.00,,---,0.00,VWS V14.01,2013-09-01 09:43:00,
2013-09-01 04:44:00,88.3,31.3,0.00,North,0,6.5,10.5,13,0.00,,---,0.00,VWS V14.01,2013-09-01 09:44:00,
2013-09-01 04:45:00,88.1,24.8,0.00,North,0,6.0,10.5,10,0.00,,---,0.00,VWS V14.01,2013-09-01 09:45:00,
2013-09-01 04:46:00,88.1,24.8,0.00,North,0,6.3,8.7,10,0.00,,---,0.00,VWS V14.01,2013-09-01 09:46:00,
2013-09-01 04:47:00,87.6,19.1,0.00,North,0,5.4,8.7,8,0.00,,---,0.00,VWS V14.01,2013-09-01 09:47:00,
2013-09-01 04:48:00,87.8,24.5,0.00,NE,45,5.8,8.7,10,0.00,,---,0.00,VWS V14.01,2013-09-01 09:48:00,
2013-09-01 04:49:00,87.6,30.7,0.00,North,0,7.4,8.7,13,0.00,,---,0.00,VWS V14.01,2013-09-01 09:49:00,
2013-09-01 04:50:00,87.0,12.1,0.00,North,0,12.5,12.5,6,0.00,,---,0.00,VWS V14.01,2013-09-01 09:50:00,
2013-09-01 04:51:00,86.9,12.0,0.00,North,0,6.0,12.5,6,0.00,,---,0.00,VWS V14.01,2013-09-01 09:51:00,
2013-09-01 04:52:00,86.9,12.0,0.00,NW,315,7.6,12.5,6,0.00,,---,0.00,VWS V14.01,2013-09-01 09:52:00,
2013-09-01 04:53:00,86.9,12.0,0.00,NW,315,5.4,12.5,6,0.00,,---,0.00,VWS V14.01,2013-09-01 09:53:00,
2013-09-01 04:54:00,86.9,12.0,0.00,NW,315,6.5,12.5,6,0.00,,---,0.00,VWS V14.01,2013-09-01 09:54:00,
2013-09-01 04:55:00,87.2,18.8,0.00,NE,45,6.0,12.5,8,0.00,,---,0.00,VWS V14.01,2013-09-01 09:55:00,
2013-09-01 04:56:00,87.2,26.4,0.00,North,0,5.4,12.5,11,0.00,,---,0.00,VWS V14.01,2013-09-01 09:56:00,
2013-09-01 04:57:00,87.2,26.4,0.00,NNE,22,5.4,12.5,11,0.00,,---,0.00,VWS V14.01,2013-09-01 09:57:00,
2013-09-01 04:58:00,86.9,18.5,0.00,North,0,7.6,12.5,8,0.00,,---,0.00,VWS V14.01,2013-09-01 09:58:00,
2013-09-01 04:59:00,86.9,18.5,0.00,North,0,5.4,12.5,8,0.00,,---,0.00,VWS V14.01,2013-09-01 09:59:00,
2013-09-01 05:00:00,87.0,18.7,0.00,North,0,3.8,12.5,8,0.00,,---,0.00,VWS V14.01,2013-09-01 10:00:00,
2013-09-01 05:01:00,87.0,18.7,0.00,NW,315,3.1,8.7,8,0.00,,---,0.00,VWS V14.01,2013-09-01 10:01:00,
2013-09-01 05:03:00,87.0,18.7,0.00,North,0,5.4,8.7,8,0.00,,---,0.00,VWS V14.01,2013-09-01 10:03:00,
2013-09-01 05:04:00,86.9,12.0,0.00,NW,315,4.0,8.7,6,0.00,,---,0.00,VWS V14.01,2013-09-01 10:04:00,
2013-09-01 05:05:00,87.0,18.7,0.00,NNE,22,3.8,8.7,8,0.00,,---,0.00,VWS V14.01,2013-09-01 10:05:00,
2013-09-01 05:06:00,87.2,18.8,0.00,NE,45,6.0,8.7,8,0.00,,---,0.00,VWS V14.01,2013-09-01 10:06:00,
2013-09-01 05:07:00,87.2,18.8,0.00,NE,45,6.0,8.7,8,0.00,,---,0.00,VWS V14.01,2013-09-01 10:07:00,
2013-09-01 05:08:00,87.6,8.4,0.00,NE,45,5.4,8.7,5,0.00,,---,0.00,VWS V14.01,2013-09-01 10:08:00,
2013-09-01 05:09:00,87.6,8.4,0.00,North,0,5.6,8.7,5,0.00,,---,0.00,VWS V14.01,2013-09-01 10:09:00,
2013-09-01 05:10:00,87.0,26.2,0.00,North,0,8.1,8.7,11,0.00,,---,0.00,VWS V14.01,2013-09-01 10:10:00,
2013-09-01 05:11:00,86.3,18.1,0.00,NE,45,8.1,11.0,8,0.00,,---,0.00,VWS V14.01,2013-09-01 10:11:00,
2013-09-01 05:12:00,86.5,18.3,0.00,North,0,6.5,11.0,8,0.00,,---,0.00,VWS V14.01,2013-09-01 10:12:00,
2013-09-01 05:13:00,86.5,18.3,0.00,North,0,7.4,11.0,8,0.00,,---,0.00,VWS V14.01,2013-09-01 10:13:00,
2013-09-01 05:14:00,86.1,25.5,0.00,North,0,5.4,11.0,11,0.00,,---,0.00,VWS V14.01,2013-09-01 10:14:00,
2013-09-01 05:15:00,86.3,29.7,0.00,North,0,4.3,11.0,13,0.00,,---,0.00,VWS V14.01,2013-09-01 10:15:00,
2013-09-01 05:16:00,86.3,25.7,0.00,North,0,8.5,9.6,11,0.00,,---,0.00,VWS V14.01,2013-09-01 10:16:00,
2013-09-01 05:17:00,86.1,25.5,0.00,North,0,5.6,9.6,11,0.00,,---,0.00,VWS V14.01,2013-09-01 10:17:00,
2013-09-01 05:18:00,86.1,25.5,0.00,NNE,22,7.2,9.6,11,0.00,,---,0.00,VWS V14.01,2013-09-01 10:18:00,
2013-09-01 05:19:00,86.7,30.0,0.00,North,0,4.0,9.6,13,0.00,,---,0.00,VWS V14.01,2013-09-01 10:19:00,
2013-09-01 05:20:00,87.0,30.3,0.00,NE,45,3.6,9.6,13,0.00,,---,0.00,VWS V14.01,2013-09-01 10:20:00,
2013-09-01 05:21:00,87.2,35.6,0.00,North,0,5.4,9.6,16,0.00,,---,0.00,VWS V14.01,2013-09-01 10:21:00,
2013-09-01 05:22:00,86.9,30.2,0.00,NW,315,9.8,9.8,13,0.00,,---,0.00,VWS V14.01,2013-09-01 10:22:00,
2013-09-01 05:23:00,86.7,30.0,0.00,North,0,8.1,9.8,13,0.00,,---,0.00,VWS V14.01,2013-09-01 10:23:00,
2013-09-01 05:24:00,86.5,29.9,0.00,NNW,338,5.6,9.8,13,0.00,,---,0.00,VWS V14.01,2013-09-01 10:24:00,
2013-09-01 05:25:00,86.7,30.0,0.00,NW,315,5.8,9.8,13,0.00,,---,0.00,VWS V14.01,2013-09-01 10:25:00,
2013-09-01 05:26:00,64.5,57.5,0.00,North,0,6.0,8.1,78,0.00,,---,0.00,VWS V14.01,2013-09-01 10:26:00,
2013-09-01 05:27:00,86.7,26.0,0.00,North,0,3.6,9.8,11,0.00,,---,0.00,VWS V14.01,2013-09-01 10:27:00,
2013-09-01 05:28:00,86.7,26.0,0.00,NNE,22,9.6,9.8,11,0.00,,---,0.00,VWS V14.01,2013-09-01 10:28:00,
2013-09-01 05:29:00,86.5,25.8,0.00,North,0,7.8,9.8,11,0.00,,---,0.00,VWS V14.01,2013-09-01 10:29:00,
2013-09-01 05:30:00,86.1,18.0,0.00,NW,315,2.9,9.8,8,0.00,,---,0.00,VWS V14.01,2013-09-01 10:30:00,
2013-09-01 05:31:00,86.5,25.8,0.00,North,0,2.9,3.4,11,0.00,,---,0.00,VWS V14.01,2013-09-01 10:31:00,
2013-09-01 05:32:00,86.7,26.0,0.00,North,0,6.0,6.0,11,0.00,,---,0.00,VWS V14.01,2013-09-01 10:32:00,
2013-09-01 05:33:00,86.7,30.0,0.00,NW,315,5.6,6.0,13,0.00,,---,0.00,VWS V14.01,2013-09-01 10:33:00,
2013-09-01 05:34:00,86.7,26.0,0.00,NNE,22,4.9,6.3,11,0.00,,---,0.00,VWS V14.01,2013-09-01 10:34:00,
2013-09-01 05:35:00,86.5,29.9,0.00,NNE,22,2.9,6.3,13,0.00,,---,0.00,VWS V14.01,2013-09-01 10:35:00,
2013-09-01 05:36:00,86.7,30.0,0.00,North,0,2.9,6.3,13,0.00,,---,0.00,VWS V14.01,2013-09-01 10:36:00,
2013-09-01 05:37:00,87.0,35.5,0.00,NE,45,5.8,6.3,16,0.00,,---,0.00,VWS V14.01,2013-09-01 10:37:00,
2013-09-01 05:38:00,86.9,30.2,0.00,North,0,6.0,7.8,13,0.00,,---,0.00,VWS V14.01,2013-09-01 10:38:00,
2013-09-01 05:39:00,86.5,29.9,0.00,NNE,22,7.8,9.6,13,0.00,,---,0.00,VWS V14.01,2013-09-01 10:39:00,
2013-09-01 05:40:00,86.1,29.6,0.00,North,0,8.7,10.5,13,0.00,,---,0.00,VWS V14.01,2013-09-01 10:40:00,
2013-09-01 05:41:00,86.1,29.6,0.00,North,0,8.7,10.5,13,0.00,,---,0.00,VWS V14.01,2013-09-01 10:41:00,
2013-09-01 05:42:00,85.8,29.3,0.00,North,0,5.4,10.5,13,0.00,,---,0.00,VWS V14.01,2013-09-01 10:42:00,
2013-09-01 05:43:00,86.0,29.5,0.00,NE,45,5.6,10.5,13,0.00,,---,0.00,VWS V14.01,2013-09-01 10:43:00,
2013-09-01 05:44:00,86.0,29.5,0.00,NE,45,3.8,10.5,13,0.00,,---,0.00,VWS V14.01,2013-09-01 10:44:00,
2013-09-01 05:45:00,85.8,25.3,0.00,North,0,5.4,10.5,11,0.00,,---,0.00,VWS V14.01,2013-09-01 10:45:00,
2013-09-01 05:46:00,86.0,25.4,0.00,North,0,4.3,5.4,11,0.00,,---,0.00,VWS V14.01,2013-09-01 10:46:00,
2013-09-01 05:47:00,85.8,25.3,0.00,NW,315,4.9,6.9,11,0.00,,---,0.00,VWS V14.01,2013-09-01 10:47:00,
2013-09-01 05:48:00,85.8,29.3,0.00,NW,315,5.6,6.9,13,0.00,,---,0.00,VWS V14.01,2013-09-01 10:48:00,
2013-09-01 05:49:00,85.8,25.3,0.00,West,270,5.6,6.9,11,0.00,,---,0.00,VWS V14.01,2013-09-01 10:49:00,
2013-09-01 05:51:00,85.8,25.3,0.00,North,0,6.3,6.9,11,0.00,,---,0.00,VWS V14.01,2013-09-01 10:51:00,
2013-09-01 05:52:00,85.4,34.2,0.00,NE,45,8.1,8.5,16,0.00,,---,0.00,VWS V14.01,2013-09-01 10:52:00,
2013-09-01 05:53:00,85.4,38.5,0.00,NE,45,6.5,10.3,19,0.00,,---,0.00,VWS V14.01,2013-09-01 10:53:00,
2013-09-01 05:54:00,85.4,38.5,0.00,NE,45,7.8,10.3,19,0.00,,---,0.00,VWS V14.01,2013-09-01 10:54:00,
2013-09-01 05:55:00,85.2,38.4,0.00,North,0,4.9,10.3,19,0.00,,---,0.00,VWS V14.01,2013-09-01 10:55:00,
2013-09-01 05:56:00,85.1,33.9,0.00,NE,45,8.1,10.3,16,0.00,,---,0.00,VWS V14.01,2013-09-01 10:56:00,
2013-09-01 05:57:00,85.2,38.4,0.00,NE,45,5.8,10.3,19,0.00,,---,0.00,VWS V14.01,2013-09-01 10:57:00,
2013-09-01 05:58:00,85.4,38.5,0.00,NE,45,4.9,10.3,19,0.00,,---,0.00,VWS V14.01,2013-09-01 10:58:00,
2013-09-01 05:59:00,85.6,38.7,0.00,NE,45,3.6,10.3,19,0.00,,---,0.00,VWS V14.01,2013-09-01 10:59:00,
2013-09-01 06:00:00,85.6,37.3,0.00,NE,45,6.3,10.3,18,0.00,,---,0.00,VWS V14.01,2013-09-01 11:00:00,
2013-09-01 06:01:00,85.6,38.7,0.00,North,0,7.6,7.6,19,0.00,,---,0.00,VWS V14.01,2013-09-01 11:01:00,
2013-09-01 06:02:00,85.6,38.7,0.00,NE,45,2.9,7.6,19,0.00,,---,0.00,VWS V14.01,2013-09-01 11:02:00,
2013-09-01 06:03:00,85.4,38.5,0.00,North,0,3.4,7.6,19,0.00,,---,0.00,VWS V14.01,2013-09-01 11:03:00,
2013-09-01 06:04:00,85.4,38.5,0.00,North,0,3.4,7.6,19,0.00,,---,0.00,VWS V14.01,2013-09-01 11:04:00,
2013-09-01 06:05:00,85.4,38.5,0.00,North,0,1.6,7.6,19,0.00,,---,0.00,VWS V14.01,2013-09-01 11:05:00,
2013-09-01 06:06:00,85.4,38.5,0.00,NW,315,2.0,7.6,19,0.00,,---,0.00,VWS V14.01,2013-09-01 11:06:00,
2013-09-01 06:08:00,85.4,38.5,0.00,NW,315,1.3,7.6,19,0.00,,---,0.00,VWS V14.01,2013-09-01 11:08:00,
2013-09-01 06:09:00,85.4,38.5,0.00,SE,135,3.1,7.6,19,0.00,,---,0.00,VWS V14.01,2013-09-01 11:09:00,
2013-09-01 06:10:00,85.6,38.7,0.00,North,0,7.8,7.8,19,0.00,,---,0.00,VWS V14.01,2013-09-01 11:10:00,
2013-09-01 06:11:00,85.2,38.4,0.00,North,0,5.8,7.8,19,0.00,,---,0.00,VWS V14.01,2013-09-01 11:11:00,
2013-09-01 06:12:00,84.9,38.1,0.00,NNE,22,5.8,7.8,19,0.00,,---,0.00,VWS V14.01,2013-09-01 11:12:00,
2013-09-01 06:13:00,84.3,37.6,0.00,North,0,8.1,10.5,19,0.00,,---,0.00,VWS V14.01,2013-09-01 11:13:00,
2013-09-01 06:14:00,84.3,37.6,0.00,North,0,7.2,10.5,19,0.00,,---,0.00,VWS V14.01,2013-09-01 11:14:00,
2013-09-01 06:15:00,84.2,37.5,0.00,North,0,7.2,10.5,19,0.00,,---,0.00,VWS V14.01,2013-09-01 11:15:00,
2013-09-01 06:16:00,84.2,37.5,0.00,NE,45,4.7,7.2,19,0.00,,---,0.00,VWS V14.01,2013-09-01 11:16:00,
2013-09-01 06:17:00,63.1,56.8,0.00,NNW,338,3.1,6.5,80,0.00,,---,0.00,VWS V14.01,2013-09-01 11:17:00,
2013-09-01 06:18:00,84.2,37.5,0.00,NE,45,5.8,7.2,19,0.00,,---,0.00,VWS V14.01,2013-09-01 11:18:00,
2013-09-01 06:19:00,84.2,37.5,0.00,North,0,7.6,7.6,19,0.00,,---,0.00,VWS V14.01,2013-09-01 11:19:00,
2013-09-01 06:20:00,83.8,37.2,0.00,North,0,6.7,7.6,19,0.00,,---,0.00,VWS V14.01,2013-09-01 11:20:00,
2013-09-01 06:21:00,84.0,37.3,0.00,North,0,4.9,7.6,19,0.00,,---,0.00,VWS V14.01,2013-09-01 11:21:00,
2013-09-01 06:22:00,83.8,37.2,0.00,NW,315,4.3,7.6,19,0.00,,---,0.00,VWS V14.01,2013-09-01 11:22:00,
2013-09-01 06:24:00,84.0,37.3,0.00,NNE,22,7.2,7.6,19,0.00,,---,0.00,VWS V14.01,2013-09-01 11:24:00,
2013-09-01 06:25:00,83.6,34.2,0.00,North,0,5.4,7.6,17,0.00,,---,0.00,VWS V14.01,2013-09-01 11:25:00,
2013-09-01 06:26:00,83.6,37.0,0.00,North,0,6.0,7.6,19,0.00,,---,0.00,VWS V14.01,2013-09-01 11:26:00,
2013-09-01 06:27:00,83.6,37.0,0.00,North,0,4.9,7.6,19,0.00,,---,0.00,VWS V14.01,2013-09-01 11:27:00,
2013-09-01 06:28:00,83.6,37.0,0.00,NE,45,4.9,7.6,19,0.00,,---,0.00,VWS V14.01,2013-09-01 11:28:00,
2013-09-01 06:29:00,83.8,37.2,0.00,North,0,4.0,7.6,19,0.00,,---,0.00,VWS V14.01,2013-09-01 11:29:00,
2013-09-01 06:30:00,83.8,37.2,0.00,NNE,22,3.4,7.6,19,0.00,,---,0.00,VWS V14.01,2013-09-01 11:30:00,
2013-09-01 06:31:00,83.8,37.2,0.00,NNE,22,3.8,4.3,19,0.00,,---,0.00,VWS V14.01,2013-09-01 11:31:00,
2013-09-01 06:32:00,83.8,37.2,0.00,NW,315,2.9,4.9,19,0.00,,---,0.00,VWS V14.01,2013-09-01 11:32:00,
2013-09-01 06:33:00,83.8,37.2,0.00,NE,45,5.8,6.5,19,0.00,,---,0.00,VWS V14.01,2013-09-01 11:33:00,
2013-09-01 06:34:00,83.6,38.3,0.00,North,0,5.8,6.5,20,0.00,,---,0.00,VWS V14.01,2013-09-01 11:34:00,
2013-09-01 06:35:00,83.6,38.3,0.00,North,0,5.8,6.5,20,0.00,,---,0.00,VWS V14.01,2013-09-01 11:35:00,
2013-09-01 06:36:00,83.1,37.9,0.00,North,0,5.6,6.5,20,0.00,,---,0.00,VWS V14.01,2013-09-01 11:36:00,
2013-09-01 06:37:00,83.1,37.9,0.00,NNE,22,6.0,6.5,20,0.00,,---,0.00,VWS V14.01,2013-09-01 11:37:00,
2013-09-01 06:38:00,83.1,37.9,0.00,NNE,22,5.8,6.5,20,0.00,,---,0.00,VWS V14.01,2013-09-01 11:38:00,
2013-09-01 06:39:00,83.1,37.9,0.00,NNE,22,5.6,6.5,20,0.00,,---,0.00,VWS V14.01,2013-09-01 11:39:00,
2013-09-01 06:40:00,83.1,37.9,0.00,North,0,5.8,6.5,20,0.00,,---,0.00,VWS V14.01,2013-09-01 11:40:00,
2013-09-01 06:41:00,83.1,37.9,0.00,NW,315,6.0,6.5,20,0.00,,---,0.00,VWS V14.01,2013-09-01 11:41:00,
2013-09-01 06:42:00,83.1,37.9,0.00,North,0,6.0,6.5,20,0.00,,---,0.00,VWS V14.01,2013-09-01 11:42:00,
2013-09-01 06:43:00,82.7,37.6,0.00,North,0,4.0,6.5,20,0.00,,---,0.00,VWS V14.01,2013-09-01 11:43:00,
2013-09-01 06:44:00,82.7,37.6,0.00,North,0,2.9,6.5,20,0.00,,---,0.00,VWS V14.01,2013-09-01 11:44:00,
2013-09-01 06:45:00,82.7,37.6,0.00,North,0,2.9,6.5,20,0.00,,---,0.00,VWS V14.01,2013-09-01 11:45:00,
2013-09-01 06:46:00,83.1,37.9,0.00,NE,45,4.3,4.3,20,0.00,,---,0.00,VWS V14.01,2013-09-01 11:46:00,
2013-09-01 06:47:00,83.1,37.9,0.00,North,0,5.4,5.4,20,0.00,,---,0.00,VWS V14.01,2013-09-01 11:47:00,
2013-09-01 06:48:00,82.9,37.8,0.00,NNE,22,8.7,8.7,20,0.00,,---,0.00,VWS V14.01,2013-09-01 11:48:00,
2013-09-01 06:49:00,82.7,37.6,0.00,NE,45,7.8,8.7,20,0.00,,---,0.00,VWS V14.01,2013-09-01 11:49:00,
2013-09-01 06:50:00,82.7,37.6,0.00,NE,45,4.9,8.7,20,0.00,,---,0.00,VWS V14.01,2013-09-01 11:50:00,
2013-09-01 06:51:00,82.9,37.8,0.00,NE,45,2.7,8.7,20,0.00,,---,0.00,VWS V14.01,2013-09-01 11:51:00,
2013-09-01 06:52:00,82.9,37.8,0.00,NE,45,2.5,8.7,20,0.00,,---,0.00,VWS V14.01,2013-09-01 11:52:00,
2013-09-01 06:53:00,82.9,37.8,0.00,NE,45,3.4,8.7,20,0.00,,---,0.00,VWS V14.01,2013-09-01 11:53:00,
2013-09-01 06:55:00,82.9,37.8,0.00,North,0,4.0,8.7,20,0.00,,---,0.00,VWS V14.01,2013-09-01 11:55:00,
2013-09-01 06:56:00,82.9,37.8,0.00,NE,45,3.6,8.7,20,0.00,,---,0.00,VWS V14.01,2013-09-01 11:56:00,
2013-09-01 06:57:00,82.7,37.6,0.00,North,0,4.0,8.7,20,0.00,,---,0.00,VWS V14.01,2013-09-01 11:57:00,
2013-09-01 06:58:00,82.5,37.5,0.00,North,0,3.1,8.7,20,0.00,,---,0.00,VWS V14.01,2013-09-01 11:58:00,
2013-09-01 06:59:00,82.5,37.5,0.00,NE,45,4.0,8.7,20,0.00,,---,0.00,VWS V14.01,2013-09-01 11:59:00,
2013-09-01 07:00:00,82.5,37.5,0.00,North,0,3.1,8.7,20,0.00,,---,0.00,VWS V14.01,2013-09-01 12:00:00,
2013-09-01 07:01:00,82.5,37.5,0.00,North,0,4.3,4.3,20,0.00,,---,0.00,VWS V14.01,2013-09-01 12:01:00,
2013-09-01 07:02:00,82.4,37.3,0.00,North,0,4.0,4.3,20,0.00,,---,0.00,VWS V14.01,2013-09-01 12:02:00,
2013-09-01 07:03:00,82.4,37.3,0.00,North,0,6.0,6.0,20,0.00,,---,0.00,VWS V14.01,2013-09-01 12:03:00,
2013-09-01 07:05:00,82.2,38.4,0.00,NNE,22,3.6,6.0,21,0.00,,---,0.00,VWS V14.01,2013-09-01 12:05:00,
2013-09-01 07:06:00,82.2,38.4,0.00,North,0,2.5,6.0,21,0.00,,---,0.00,VWS V14.01,2013-09-01 12:06:00,
2013-09-01 07:08:00,82.2,38.4,0.00,NNE,22,3.1,6.0,21,0.00,,---,0.00,VWS V14.01,2013-09-01 12:08:00,
2013-09-01 07:09:00,81.8,38.1,0.00,North,0,4.7,6.0,21,0.00,,---,0.00,VWS V14.01,2013-09-01 12:09:00,
2013-09-01 07:10:00,81.8,38.1,0.00,North,0,4.9,6.0,21,0.00,,---,0.00,VWS V14.01,2013-09-01 12:10:00,
2013-09-01 07:11:00,81.8,39.3,0.00,North,0,3.8,6.0,22,0.00,,---,0.00,VWS V14.01,2013-09-01 12:11:00,
2013-09-01 07:12:00,81.6,38.0,0.00,NE,45,5.4,6.3,21,0.00,,---,0.00,VWS V14.01,2013-09-01 12:12:00,
2013-09-01 07:13:00,81.3,38.8,0.00,North,0,5.6,6.3,22,0.00,,---,0.00,VWS V14.01,2013-09-01 12:13:00,
2013-09-01 07:14:00,81.3,38.8,0.00,NE,45,4.9,6.3,22,0.00,,---,0.00,VWS V14.01,2013-09-01 12:14:00,
2013-09-01 07:15:00,81.3,38.8,0.00,NE,45,4.9,6.3,22,0.00,,---,0.00,VWS V14.01,2013-09-01 12:15:00,
2013-09-01 07:16:00,81.1,38.7,0.00,NNE,22,4.0,6.5,22,0.00,,---,0.00,VWS V14.01,2013-09-01 12:16:00,
2013-09-01 07:17:00,81.1,38.7,0.00,NE,45,4.3,6.5,22,0.00,,---,0.00,VWS V14.01,2013-09-01 12:17:00,
2013-09-01 07:18:00,80.9,38.5,0.00,NE,45,3.4,6.5,22,0.00,,---,0.00,VWS V14.01,2013-09-01 12:18:00,
2013-09-01 07:19:00,80.9,38.5,0.00,NE,45,3.8,6.5,22,0.00,,---,0.00,VWS V14.01,2013-09-01 12:19:00,
2013-09-01 07:20:00,80.9,38.5,0.00,NE,45,4.3,6.5,22,0.00,,---,0.00,VWS V14.01,2013-09-01 12:20:00,
2013-09-01 07:21:00,80.9,38.5,0.00,NE,45,3.6,6.5,22,0.00,,---,0.00,VWS V14.01,2013-09-01 12:21:00,
2013-09-01 07:22:00,80.7,38.4,0.00,NE,45,4.0,6.5,22,0.00,,---,0.00,VWS V14.01,2013-09-01 12:22:00,
2013-09-01 07:23:00,80.7,38.4,0.00,NE,45,3.1,6.5,22,0.00,,---,0.00,VWS V14.01,2013-09-01 12:23:00,
2013-09-01 07:24:00,80.7,38.4,0.00,NE,45,3.4,6.5,22,0.00,,---,0.00,VWS V14.01,2013-09-01 12:24:00,
2013-09-01 07:25:00,80.9,38.5,0.00,NE,45,2.5,6.5,22,0.00,,---,0.00,VWS V14.01,2013-09-01 12:25:00,
2013-09-01 07:26:00,80.9,38.5,0.00,NE,45,3.1,6.5,22,0.00,,---,0.00,VWS V14.01,2013-09-01 12:26:00,
2013-09-01 07:27:00,80.9,38.5,0.00,NE,45,2.7,6.5,22,0.00,,---,0.00,VWS V14.01,2013-09-01 12:27:00,
2013-09-01 07:28:00,81.1,38.7,0.00,NE,45,3.1,6.5,22,0.00,,---,0.00,VWS V14.01,2013-09-01 12:28:00,
2013-09-01 07:29:00,81.1,38.7,0.00,NE,45,2.0,6.5,22,0.00,,---,0.00,VWS V14.01,2013-09-01 12:29:00,
2013-09-01 07:30:00,81.1,38.7,0.00,NE,45,3.6,6.5,22,0.00,,---,0.00,VWS V14.01,2013-09-01 12:30:00,
2013-09-01 07:31:00,81.1,38.7,0.00,NE,45,4.0,4.0,22,0.00,,---,0.00,VWS V14.01,2013-09-01 12:31:00,
2013-09-01 07:32:00,80.9,38.5,0.00,NE,45,2.7,4.0,22,0.00,,---,0.00,VWS V14.01,2013-09-01 12:32:00,
2013-09-01 07:33:00,80.9,38.5,0.00,NE,45,2.9,4.0,22,0.00,,---,0.00,VWS V14.01,2013-09-01 12:33:00,
2013-09-01 07:34:00,80.9,38.5,0.00,NE,45,3.6,4.0,22,0.00,,---,0.00,VWS V14.01,2013-09-01 12:34:00,
2013-09-01 07:35:00,80.2,39.1,0.00,NE,45,3.6,4.0,23,0.00,,---,0.00,VWS V14.01,2013-09-01 12:35:00,
2013-09-01 07:36:00,80.2,39.1,0.00,NE,45,4.0,4.7,23,0.00,,---,0.00,VWS V14.01,2013-09-01 12:36:00,
2013-09-01 07:37:00,79.3,38.3,0.00,NNE,22,3.6,4.7,23,0.00,,---,0.00,VWS V14.01,2013-09-01 12:37:00,
2013-09-01 07:38:00,79.3,38.3,0.00,NNE,22,3.1,4.7,23,0.00,,---,0.00,VWS V14.01,2013-09-01 12:38:00,
2013-09-01 07:39:00,78.6,38.8,0.00,North,0,2.7,4.7,24,0.00,,---,0.00,VWS V14.01,2013-09-01 12:39:00,
2013-09-01 07:40:00,78.2,38.5,0.00,North,0,2.9,4.7,24,0.00,,---,0.00,VWS V14.01,2013-09-01 12:40:00,
2013-09-01 07:41:00,77.9,39.2,0.00,North,0,2.9,4.7,25,0.00,,---,0.00,VWS V14.01,2013-09-01 12:41:00,
2013-09-01 07:42:00,77.9,39.2,0.00,North,0,2.7,4.7,25,0.00,,---,0.00,VWS V14.01,2013-09-01 12:42:00,
2013-09-01 07:43:00,77.9,39.2,0.00,North,0,2.5,4.7,25,0.00,,---,0.00,VWS V14.01,2013-09-01 12:43:00,
2013-09-01 07:44:00,77.0,38.5,0.00,North,0,2.9,4.7,25,0.00,,---,0.00,VWS V14.01,2013-09-01 12:44:00,
2013-09-01 07:45:00,76.8,38.3,0.00,North,0,3.1,4.7,25,0.00,,---,0.00,VWS V14.01,2013-09-01 12:45:00,
2013-09-01 07:46:00,76.8,38.3,0.00,North,0,3.1,3.1,25,0.00,,---,0.00,VWS V14.01,2013-09-01 12:46:00,
2013-09-01 07:47:00,76.4,39.0,0.00,North,0,3.8,4.7,26,0.00,,---,0.00,VWS V14.01,2013-09-01 12:47:00,
2013-09-01 07:48:00,76.2,38.9,0.00,North,0,3.6,4.7,26,0.00,,---,0.00,VWS V14.01,2013-09-01 12:48:00,
2013-09-01 07:49:00,76.2,38.9,0.00,North,0,2.9,4.7,26,0.00,,---,0.00,VWS V14.01,2013-09-01 12:49:00,
2013-09-01 07:50:00,76.2,39.8,0.00,North,0,3.6,4.7,27,0.00,,---,0.00,VWS V14.01,2013-09-01 12:50:00,
2013-09-01 07:52:00,76.2,39.8,0.00,North,0,4.0,4.7,27,0.00,,---,0.00,VWS V14.01,2013-09-01 12:52:00,
2013-09-01 07:53:00,76.2,39.8,0.00,North,0,3.8,4.7,27,0.00,,---,0.00,VWS V14.01,2013-09-01 12:53:00,
2013-09-01 07:54:00,76.2,39.8,0.00,North,0,3.1,4.7,27,0.00,,---,0.00,VWS V14.01,2013-09-01 12:54:00,
2013-09-01 07:55:00,76.1,40.6,0.00,NNE,22,3.4,4.7,28,0.00,,---,0.00,VWS V14.01,2013-09-01 12:55:00,
2013-09-01 07:57:00,75.9,40.5,0.00,North,0,2.9,4.7,28,0.00,,---,0.00,VWS V14.01,2013-09-01 12:57:00,
2013-09-01 07:58:00,75.5,40.2,0.00,North,0,2.7,4.7,28,0.00,,---,0.00,VWS V14.01,2013-09-01 12:58:00,
2013-09-01 07:59:00,75.3,40.0,0.00,North,0,2.9,4.7,28,0.00,,---,0.00,VWS V14.01,2013-09-01 12:59:00,
2013-09-01 08:00:00,75.3,40.9,0.00,North,0,2.5,4.7,29,0.00,,---,0.00,VWS V14.01,2013-09-01 13:00:00,
2013-09-01 08:01:00,75.3,40.9,0.00,North,0,2.9,2.9,29,0.00,,---,0.00,VWS V14.01,2013-09-01 13:01:00,
2013-09-01 08:02:00,75.0,40.6,0.00,NNE,22,3.4,3.4,29,0.00,,---,0.00,VWS V14.01,2013-09-01 13:02:00,
2013-09-01 08:03:00,74.8,40.5,0.00,NNE,22,3.4,3.4,29,0.00,,---,0.00,VWS V14.01,2013-09-01 13:03:00,
2013-09-01 08:04:00,74.6,40.3,0.00,NNE,22,3.4,3.6,29,0.00,,---,0.00,VWS V14.01,2013-09-01 13:04:00,
2013-09-01 08:05:00,74.3,40.9,0.00,NNE,22,3.8,3.8,30,0.00,,---,0.00,VWS V14.01,2013-09-01 13:05:00,
2013-09-01 08:07:00,74.1,40.7,0.00,NNE,22,3.6,3.8,30,0.00,,---,0.00,VWS V14.01,2013-09-01 13:07:00,
2013-09-01 08:08:00,73.7,40.4,0.00,NE,45,3.4,3.8,30,0.00,,---,0.00,VWS V14.01,2013-09-01 13:08:00,
2013-09-01 08:09:00,73.5,41.1,0.00,NE,45,3.8,3.8,31,0.00,,---,0.00,VWS V14.01,2013-09-01 13:09:00,
2013-09-01 08:10:00,73.5,41.1,0.00,NNE,22,3.6,3.8,31,0.00,,---,0.00,VWS V14.01,2013-09-01 13:10:00,
2013-09-01 08:11:00,73.5,41.1,0.00,NNE,22,4.0,4.0,31,0.00,,---,0.00,VWS V14.01,2013-09-01 13:11:00,
2013-09-01 08:12:00,73.0,40.6,0.00,NNE,22,3.8,4.3,31,0.00,,---,0.00,VWS V14.01,2013-09-01 13:12:00,
2013-09-01 08:13:00,72.6,41.1,0.00,NNE,22,3.6,4.3,32,0.00,,---,0.00,VWS V14.01,2013-09-01 13:13:00,
2013-09-01 08:15:00,72.6,41.1,0.00,NNE,22,3.8,4.3,32,0.00,,---,0.00,VWS V14.01,2013-09-01 13:15:00,
2013-09-01 08:16:00,72.3,40.8,0.00,NNE,22,3.8,3.8,32,0.00,,---,0.00,VWS V14.01,2013-09-01 13:16:00,
2013-09-01 08:17:00,72.1,40.7,0.00,NNE,22,3.6,3.8,32,0.00,,---,0.00,VWS V14.01,2013-09-01 13:17:00,
2013-09-01 08:18:00,72.1,40.7,0.00,NNE,22,3.4,3.8,32,0.00,,---,0.00,VWS V14.01,2013-09-01 13:18:00,
2013-09-01 08:19:00,72.1,40.7,0.00,NNE,22,3.6,3.8,32,0.00,,---,0.00,VWS V14.01,2013-09-01 13:19:00,
2013-09-01 08:20:00,71.6,40.2,0.00,NNE,22,3.4,4.0,32,0.00,,---,0.00,VWS V14.01,2013-09-01 13:20:00,
2013-09-01 08:21:00,71.4,40.0,0.00,North,0,4.0,4.0,32,0.00,,---,0.00,VWS V14.01,2013-09-01 13:21:00,
2013-09-01 08:22:00,71.0,40.5,0.00,North,0,4.0,4.0,33,0.00,,---,0.00,VWS V14.01,2013-09-01 13:22:00,
2013-09-01 08:23:00,71.0,40.5,0.00,NNE,22,4.3,4.3,33,0.00,,---,0.00,VWS V14.01,2013-09-01 13:23:00,
2013-09-01 08:24:00,70.8,40.3,0.00,North,0,4.0,4.3,33,0.00,,---,0.00,VWS V14.01,2013-09-01 13:24:00,
2013-09-01 08:25:00,70.8,40.3,0.00,North,0,3.8,4.3,33,0.00,,---,0.00,VWS V14.01,2013-09-01 13:25:00,
2013-09-01 08:27:00,70.5,40.0,0.00,North,0,4.0,4.3,33,0.00,,---,0.00,VWS V14.01,2013-09-01 13:27:00,
2013-09-01 08:28:00,69.6,39.2,0.00,North,0,4.0,4.3,33,0.00,,---,0.00,VWS V14.01,2013-09-01 13:28:00,
2013-09-01 08:29:00,69.6,39.2,0.00,North,0,3.6,4.3,33,0.00,,---,0.00,VWS V14.01,2013-09-01 13:29:00,
2013-09-01 08:30:00,69.6,39.2,0.00,North,0,4.0,4.3,33,0.00,,---,0.00,VWS V14.01,2013-09-01 13:30:00,
2013-09-01 08:31:00,69.4,39.1,0.00,North,0,3.8,4.0,33,0.00,,---,0.00,VWS V14.01,2013-09-01 13:31:00,
2013-09-01 08:32:00,69.2,39.7,0.00,North,0,4.0,4.0,34,0.00,,---,0.00,VWS V14.01,2013-09-01 13:32:00,
2013-09-01 08:33:00,69.0,39.5,0.00,North,0,4.0,4.0,34,0.00,,---,0.00,VWS V14.01,2013-09-01 13:33:00,
2013-09-01 08:34:00,69.0,39.5,0.00,North,0,3.8,4.0,34,0.00,,---,0.00,VWS V14.01,2013-09-01 13:34:00,
2013-09-01 08:35:00,69.0,39.5,0.00,North,0,3.8,4.0,34,0.00,,---,0.00,VWS V14.01,2013-09-01 13:35:00,
2013-09-01 08:36:00,68.7,39.2,0.00,North,0,4.0,4.0,34,0.00,,---,0.00,VWS V14.01,2013-09-01 13:36:00,
2013-09-01 08:37:00,68.7,39.2,0.00,North,0,4.3,4.3,34,0.00,,---,0.00,VWS V14.01,2013-09-01 13:37:00,
2013-09-01 08:38:00,68.7,39.2,0.00,North,0,4.0,4.3,34,0.00,,---,0.00,VWS V14.01,2013-09-01 13:38:00,
2013-09-01 08:39:00,68.7,39.2,0.00,North,0,3.8,4.3,34,0.00,,---,0.00,VWS V14.01,2013-09-01 13:39:00,
2013-09-01 08:40:00,68.7,39.2,0.00,North,0,3.8,4.3,34,0.00,,---,0.00,VWS V14.01,2013-09-01 13:40:00,
2013-09-01 08:41:00,68.3,39.6,0.00,NNE,22,4.3,4.3,35,0.00,,---,0.00,VWS V14.01,2013-09-01 13:41:00,
2013-09-01 08:42:00,68.3,39.6,0.00,North,0,3.8,4.3,35,0.00,,---,0.00,VWS V14.01,2013-09-01 13:42:00,
2013-09-01 08:43:00,68.3,39.6,0.00,NNE,22,4.0,4.3,35,0.00,,---,0.00,VWS V14.01,2013-09-01 13:43:00,
2013-09-01 08:44:00,68.3,39.6,0.00,North,0,4.0,4.3,35,0.00,,---,0.00,VWS V14.01,2013-09-01 13:44:00,
2013-09-01 08:45:00,68.3,39.6,0.00,North,0,4.0,4.3,35,0.00,,---,0.00,VWS V14.01,2013-09-01 13:45:00,
2013-09-01 08:47:00,68.3,39.6,0.00,North,0,4.0,4.0,35,0.00,,---,0.00,VWS V14.01,2013-09-01 13:47:00,
2013-09-01 08:48:00,68.1,39.5,0.00,North,0,4.0,4.0,35,0.00,,---,0.00,VWS V14.01,2013-09-01 13:48:00,
2013-09-01 08:49:00,68.1,39.5,0.00,North,0,3.8,4.0,35,0.00,,---,0.00,VWS V14.01,2013-09-01 13:49:00,
2013-09-01 08:50:00,68.1,39.5,0.00,North,0,3.8,4.0,35,0.00,,---,0.00,VWS V14.01,2013-09-01 13:50:00,
2013-09-01 08:51:00,68.1,39.5,0.00,North,0,3.8,4.0,35,0.00,,---,0.00,VWS V14.01,2013-09-01 13:51:00,
2013-09-01 08:52:00,68.1,39.5,0.00,North,0,4.0,4.0,35,0.00,,---,0.00,VWS V14.01,2013-09-01 13:52:00,
2013-09-01 08:53:00,67.8,39.9,0.00,North,0,4.0,4.0,36,0.00,,---,0.00,VWS V14.01,2013-09-01 13:53:00,
2013-09-01 08:54:00,67.8,39.9,0.00,North,0,4.0,4.0,36,0.00,,---,0.00,VWS V14.01,2013-09-01 13:54:00,
2013-09-01 08:55:00,67.6,39.7,0.00,North,0,4.0,4.3,36,0.00,,---,0.00,VWS V14.01,2013-09-01 13:55:00,
2013-09-01 08:56:00,67.6,39.7,0.00,North,0,4.0,4.3,36,0.00,,---,0.00,VWS V14.01,2013-09-01 13:56:00,
2013-09-01 08:58:00,67.4,39.6,0.00,North,0,4.3,4.3,36,0.00,,---,0.00,VWS V14.01,2013-09-01 13:58:00,
2013-09-01 08:59:00,67.4,39.6,0.00,North,0,4.0,4.3,36,0.00,,---,0.00,VWS V14.01,2013-09-01 13:59:00,
2013-09-01 09:00:00,67.4,39.6,0.00,NNE,22,4.3,4.3,36,0.00,,---,0.00,VWS V14.01,2013-09-01 14:00:00,
2013-09-01 09:01:00,67.4,39.6,0.00,North,0,4.0,4.3,36,0.00,,---,0.00,VWS V14.01,2013-09-01 14:01:00,
2013-09-01 09:02:00,67.4,39.6,0.00,NNE,22,4.0,4.3,36,0.00,,---,0.00,VWS V14.01,2013-09-01 14:02:00,
2013-09-01 09:03:00,67.4,39.6,0.00,North,0,3.6,4.3,36,0.00,,---,0.00,VWS V14.01,2013-09-01 14:03:00,
2013-09-01 09:04:00,67.4,39.6,0.00,NNE,22,4.0,4.3,36,0.00,,---,0.00,VWS V14.01,2013-09-01 14:04:00,
2013-09-01 09:05:00,67.4,39.6,0.00,NNE,22,3.6,4.3,36,0.00,,---,0.00,VWS V14.01,2013-09-01 14:05:00,
2013-09-01 09:06:00,67.4,40.3,0.00,North,0,3.8,4.3,37,0.00,,---,0.00,VWS V14.01,2013-09-01 14:06:00,
2013-09-01 09:07:00,67.4,40.3,0.00,North,0,3.8,4.3,37,0.00,,---,0.00,VWS V14.01,2013-09-01 14:07:00,
2013-09-01 09:09:00,67.2,40.1,0.00,North,0,3.8,4.3,37,0.00,,---,0.00,VWS V14.01,2013-09-01 14:09:00,
2013-09-01 09:10:00,67.1,40.0,0.00,North,0,3.4,4.3,37,0.00,,---,0.00,VWS V14.01,2013-09-01 14:10:00,
2013-09-01 09:11:00,67.1,40.0,0.00,North,0,3.4,4.3,37,0.00,,---,0.00,VWS V14.01,2013-09-01 14:11:00,
2013-09-01 09:12:00,66.9,39.8,0.00,North,0,3.4,4.3,37,0.00,,---,0.00,VWS V14.01,2013-09-01 14:12:00,
2013-09-01 09:13:00,66.7,39.6,0.00,North,0,3.6,4.3,37,0.00,,---,0.00,VWS V14.01,2013-09-01 14:13:00,
2013-09-01 09:14:00,66.7,39.6,0.00,North,0,3.6,4.3,37,0.00,,---,0.00,VWS V14.01,2013-09-01 14:14:00,
2013-09-01 09:15:00,66.5,39.5,0.00,North,0,3.4,4.3,37,0.00,,---,0.00,VWS V14.01,2013-09-01 14:15:00,
2013-09-01 09:16:00,66.3,39.3,0.00,North,0,3.4,3.6,37,0.00,,---,0.00,VWS V14.01,2013-09-01 14:16:00,
2013-09-01 09:17:00,66.3,39.3,0.00,North,0,3.4,3.6,37,0.00,,---,0.00,VWS V14.01,2013-09-01 14:17:00,
2013-09-01 09:18:00,66.3,39.3,0.00,NNE,22,3.4,3.6,37,0.00,,---,0.00,VWS V14.01,2013-09-01 14:18:00,
2013-09-01 09:19:00,66.2,39.2,0.00,NNE,22,3.4,3.8,37,0.00,,---,0.00,VWS V14.01,2013-09-01 14:19:00,
2013-09-01 09:20:00,66.2,39.2,0.00,NNE,22,3.1,3.8,37,0.00,,---,0.00,VWS V14.01,2013-09-01 14:20:00,
2013-09-01 09:21:00,66.0,39.0,0.00,NNE,22,3.4,3.8,37,0.00,,---,0.00,VWS V14.01,2013-09-01 14:21:00,
2013-09-01 09:22:00,65.8,39.5,0.00,NNE,22,3.8,3.8,38,0.00,,---,0.00,VWS V14.01,2013-09-01 14:22:00,
2013-09-01 09:23:00,65.8,39.5,0.00,NNE,22,3.8,3.8,38,0.00,,---,0.00,VWS V14.01,2013-09-01 14:23:00,
2013-09-01 09:24:00,65.8,39.5,0.00,North,0,4.0,4.0,38,0.00,,---,0.00,VWS V14.01,2013-09-01 14:24:00,
2013-09-01 09:25:00,65.8,39.5,0.00,North,0,3.6,4.3,38,0.00,,---,0.00,VWS V14.01,2013-09-01 14:25:00,
2013-09-01 09:26:00,65.8,39.5,0.00,North,0,3.6,4.3,38,0.00,,---,0.00,VWS V14.01,2013-09-01 14:26:00,
2013-09-01 09:27:00,65.8,39.5,0.00,North,0,3.8,4.3,38,0.00,,---,0.00,VWS V14.01,2013-09-01 14:27:00,
2013-09-01 09:28:00,65.6,39.3,0.00,North,0,3.6,4.3,38,0.00,,---,0.00,VWS V14.01,2013-09-01 14:28:00,
2013-09-01 09:29:00,65.6,39.3,0.00,North,0,3.6,4.3,38,0.00,,---,0.00,VWS V14.01,2013-09-01 14:29:00,
2013-09-01 09:30:00,65.6,39.3,0.00,North,0,3.6,4.3,38,0.00,,---,0.00,VWS V14.01,2013-09-01 14:30:00,
2013-09-01 09:31:00,65.4,39.9,0.00,North,0,3.8,4.0,39,0.00,,---,0.00,VWS V14.01,2013-09-01 14:31:00,
2013-09-01 09:32:00,65.4,39.9,0.00,NE,45,3.8,4.3,39,0.00,,---,0.00,VWS V14.01,2013-09-01 14:32:00,
2013-09-01 09:33:00,65.4,39.9,0.00,NNE,22,3.8,4.3,39,0.00,,---,0.00,VWS V14.01,2013-09-01 14:33:00,
2013-09-01 09:34:00,65.4,39.9,0.00,NNE,22,3.4,4.3,39,0.00,,---,0.00,VWS V14.01,2013-09-01 14:34:00,
2013-09-01 09:35:00,65.4,39.9,0.00,NNE,22,2.9,4.3,39,0.00,,---,0.00,VWS V14.01,2013-09-01 14:35:00,
2013-09-01 09:36:00,65.3,39.7,0.00,NNE,22,2.9,4.3,39,0.00,,---,0.00,VWS V14.01,2013-09-01 14:36:00,
2013-09-01 09:37:00,65.3,39.7,0.00,NNE,22,2.9,4.3,39,0.00,,---,0.00,VWS V14.01,2013-09-01 14:37:00,
2013-09-01 09:39:00,65.1,39.5,0.00,NE,45,2.9,4.3,39,0.00,,---,0.00,VWS V14.01,2013-09-01 14:39:00,
2013-09-01 09:40:00,64.9,38.7,0.00,NE,45,2.5,4.3,38,0.00,,---,0.00,VWS V14.01,2013-09-01 14:40:00,
2013-09-01 09:41:00,64.7,39.2,0.00,NE,45,1.6,4.3,39,0.00,,---,0.00,VWS V14.01,2013-09-01 14:41:00,
2013-09-01 09:42:00,64.7,39.2,0.00,SE,135,1.3,4.3,39,0.00,,---,0.00,VWS V14.01,2013-09-01 14:42:00,
2013-09-01 09:43:00,64.4,38.9,0.00,SE,135,1.1,4.3,39,0.00,,---,0.00,VWS V14.01,2013-09-01 14:43:00,
2013-09-01 09:44:00,63.8,38.4,0.00,SE,135,0.0,4.3,39,0.00,,---,0.00,VWS V14.01,2013-09-01 14:44:00,
2013-09-01 09:46:00,63.8,38.4,0.00,SE,135,0.0,4.3,39,0.00,,---,0.00,VWS V14.01,2013-09-01 14:46:00,
2013-09-01 09:47:00,70.7,48.9,0.00,NE,45,6.3,6.3,46,0.00,,---,0.00,VWS V14.01,2013-09-01 14:47:00,
2013-09-01 09:48:00,63.3,38.6,0.00,SE,135,0.0,4.3,40,0.00,,---,0.00,VWS V14.01,2013-09-01 14:48:00,
2013-09-01 09:49:00,63.3,38.6,0.00,SE,135,0.0,4.3,40,0.00,,---,0.00,VWS V14.01,2013-09-01 14:49:00,
2013-09-01 09:51:00,63.3,38.6,0.00,SE,135,0.0,4.3,40,0.00,,---,0.00,VWS V14.01,2013-09-01 14:51:00,
2013-09-01 09:52:00,63.1,37.8,0.00,SE,135,0.0,4.3,39,0.00,,---,0.00,VWS V14.01,2013-09-01 14:52:00,
2013-09-01 09:53:00,62.9,38.2,0.00,East,90,1.3,4.3,40,0.00,,---,0.00,VWS V14.01,2013-09-01 14:53:00,
2013-09-01 09:54:00,62.9,37.6,0.00,NE,45,1.6,4.3,39,0.00,,---,0.00,VWS V14.01,2013-09-01 14:54:00,
2013-09-01 09:55:00,62.9,38.2,0.00,NE,45,2.7,4.3,40,0.00,,---,0.00,VWS V14.01,2013-09-01 14:55:00,
2013-09-01 09:56:00,62.7,38.1,0.00,NE,45,2.5,4.3,40,0.00,,---,0.00,VWS V14.01,2013-09-01 14:56:00,
2013-09-01 09:57:00,62.7,38.1,0.00,East,90,3.1,4.9,40,0.00,,---,0.00,VWS V14.01,2013-09-01 14:57:00,
2013-09-01 09:58:00,62.7,38.1,0.00,NE,45,2.7,4.9,40,0.00,,---,0.00,VWS V14.01,2013-09-01 14:58:00,
2013-09-01 09:59:00,62.7,38.7,0.00,NE,45,2.5,4.9,41,0.00,,---,0.00,VWS V14.01,2013-09-01 14:59:00,
2013-09-01 10:00:00,62.7,38.7,0.00,ENE,68,2.5,4.9,41,0.00,,---,0.00,VWS V14.01,2013-09-01 15:00:00,
2013-09-01 10:01:00,62.9,38.9,0.00,NE,45,2.5,2.7,41,0.00,,---,0.00,VWS V14.01,2013-09-01 15:01:00,
2013-09-01 10:02:00,62.9,38.9,0.00,ENE,68,2.7,2.7,41,0.00,,---,0.00,VWS V14.01,2013-09-01 15:02:00,
2013-09-01 10:03:00,63.1,39.0,0.00,NE,45,3.1,3.4,41,0.00,,---,0.00,VWS V14.01,2013-09-01 15:03:00,
2013-09-01 10:04:00,63.1,39.0,0.00,NE,45,2.7,3.4,41,0.00,,---,0.00,VWS V14.01,2013-09-01 15:04:00,
2013-09-01 10:05:00,63.3,39.2,0.00,NE,45,3.4,3.4,41,0.00,,---,0.00,VWS V14.01,2013-09-01 15:05:00,
2013-09-01 10:06:00,63.3,39.2,0.00,ENE,68,3.1,3.4,41,0.00,,---,0.00,VWS V14.01,2013-09-01 15:06:00,
2013-09-01 10:07:00,63.3,39.2,0.00,ENE,68,3.1,3.4,41,0.00,,---,0.00,VWS V14.01,2013-09-01 15:07:00,
2013-09-01 10:08:00,63.5,39.4,0.00,NE,45,2.7,3.6,41,0.00,,---,0.00,VWS V14.01,2013-09-01 15:08:00,
2013-09-01 10:09:00,63.5,39.4,0.00,ENE,68,3.1,3.6,41,0.00,,---,0.00,VWS V14.01,2013-09-01 15:09:00,
2013-09-01 10:10:00,63.5,39.4,0.00,East,90,4.0,4.0,41,0.00,,---,0.00,VWS V14.01,2013-09-01 15:10:00,
2013-09-01 10:11:00,63.5,39.4,0.00,East,90,3.8,4.0,41,0.00,,---,0.00,VWS V14.01,2013-09-01 15:11:00,
2013-09-01 10:12:00,63.5,39.4,0.00,NE,45,3.8,4.3,41,0.00,,---,0.00,VWS V14.01,2013-09-01 15:12:00,
2013-09-01 10:13:00,63.5,39.4,0.00,NE,45,3.6,4.3,41,0.00,,---,0.00,VWS V14.01,2013-09-01 15:13:00,
2013-09-01 10:14:00,63.5,39.4,0.00,East,90,3.8,4.3,41,0.00,,---,0.00,VWS V14.01,2013-09-01 15:14:00,
2013-09-01 10:15:00,63.6,40.2,0.00,East,90,3.4,4.3,42,0.00,,---,0.00,VWS V14.01,2013-09-01 15:15:00,
2013-09-01 10:16:00,63.6,40.2,0.00,East,90,3.1,3.6,42,0.00,,---,0.00,VWS V14.01,2013-09-01 15:16:00,
2013-09-01 10:17:00,63.6,40.2,0.00,East,90,3.4,4.0,42,0.00,,---,0.00,VWS V14.01,2013-09-01 15:17:00,
2013-09-01 10:18:00,63.6,40.2,0.00,ENE,68,2.7,4.0,42,0.00,,---,0.00,VWS V14.01,2013-09-01 15:18:00,
2013-09-01 10:19:00,63.6,40.2,0.00,NE,45,2.5,4.0,42,0.00,,---,0.00,VWS V14.01,2013-09-01 15:19:00,
2013-09-01 10:20:00,63.6,40.2,0.00,East,90,2.2,4.0,42,0.00,,---,0.00,VWS V14.01,2013-09-01 15:20:00,
2013-09-01 10:21:00,63.5,40.0,0.00,SE,135,0.9,4.0,42,0.00,,---,0.00,VWS V14.01,2013-09-01 15:21:00,
2013-09-01 10:22:00,63.3,39.8,0.00,SE,135,0.0,4.0,42,0.00,,---,0.00,VWS V14.01,2013-09-01 15:22:00,
2013-09-01 10:23:00,63.1,39.7,0.00,East,90,0.0,4.0,42,0.00,,---,0.00,VWS V14.01,2013-09-01 15:23:00,
2013-09-01 10:24:00,62.9,38.9,0.00,East,90,0.0,4.0,41,0.00,,---,0.00,VWS V14.01,2013-09-01 15:24:00,
2013-09-01 10:25:00,62.9,38.9,0.00,East,90,1.6,4.0,41,0.00,,---,0.00,VWS V14.01,2013-09-01 15:25:00,
2013-09-01 10:26:00,62.7,38.7,0.00,East,90,1.6,4.0,41,0.00,,---,0.00,VWS V14.01,2013-09-01 15:26:00,
2013-09-01 10:27:00,62.6,39.2,0.00,East,90,1.3,4.0,42,0.00,,---,0.00,VWS V14.01,2013-09-01 15:27:00,
2013-09-01 10:28:00,62.6,39.2,0.00,ENE,68,2.0,4.0,42,0.00,,---,0.00,VWS V14.01,2013-09-01 15:28:00,
2013-09-01 10:29:00,62.4,39.0,0.00,NE,45,2.9,4.0,42,0.00,,---,0.00,VWS V14.01,2013-09-01 15:29:00,
2013-09-01 10:30:00,62.4,39.0,0.00,NE,45,3.1,4.0,42,0.00,,---,0.00,VWS V14.01,2013-09-01 15:30:00,
2013-09-01 10:31:00,62.4,39.6,0.00,East,90,3.4,3.4,43,0.00,,---,0.00,VWS V14.01,2013-09-01 15:31:00,
2013-09-01 10:32:00,62.4,39.6,0.00,NE,45,2.9,3.4,43,0.00,,---,0.00,VWS V14.01,2013-09-01 15:32:00,
2013-09-01 10:33:00,62.6,39.8,0.00,East,90,2.9,3.4,43,0.00,,---,0.00,VWS V14.01,2013-09-01 15:33:00,
2013-09-01 10:34:00,62.6,39.8,0.00,East,90,3.1,3.8,43,0.00,,---,0.00,VWS V14.01,2013-09-01 15:34:00,
2013-09-01 10:35:00,62.6,39.8,0.00,NE,45,3.1,3.8,43,0.00,,---,0.00,VWS V14.01,2013-09-01 15:35:00,
2013-09-01 10:36:00,62.7,39.9,0.00,East,90,3.6,3.8,43,0.00,,---,0.00,VWS V14.01,2013-09-01 15:36:00,
2013-09-01 10:37:00,62.9,40.1,0.00,East,90,3.6,3.8,43,0.00,,---,0.00,VWS V14.01,2013-09-01 15:37:00,
2013-09-01 10:38:00,62.9,40.1,0.00,NE,45,2.7,3.8,43,0.00,,---,0.00,VWS V14.01,2013-09-01 15:38:00,
2013-09-01 10:39:00,62.9,40.1,0.00,East,90,2.5,3.8,43,0.00,,---,0.00,VWS V14.01,2013-09-01 15:39:00,
2013-09-01 10:40:00,62.9,40.1,0.00,East,90,3.1,3.8,43,0.00,,---,0.00,VWS V14.01,2013-09-01 15:40:00,
2013-09-01 10:41:00,62.9,40.1,0.00,NE,45,2.9,3.8,43,0.00,,---,0.00,VWS V14.01,2013-09-01 15:41:00,
2013-09-01 10:42:00,62.9,40.1,0.00,ENE,68,2.5,3.8,43,0.00,,---,0.00,VWS V14.01,2013-09-01 15:42:00,
2013-09-01 10:43:00,62.9,40.7,0.00,East,90,2.7,3.8,44,0.00,,---,0.00,VWS V14.01,2013-09-01 15:43:00,
2013-09-01 10:44:00,62.9,40.1,0.00,East,90,2.7,3.8,43,0.00,,---,0.00,VWS V14.01,2013-09-01 15:44:00,
2013-09-01 10:45:00,62.9,40.7,0.00,ENE,68,2.5,3.8,44,0.00,,---,0.00,VWS V14.01,2013-09-01 15:45:00,
2013-09-01 10:46:00,62.9,40.7,0.00,East,90,2.2,2.9,44,0.00,,---,0.00,VWS V14.01,2013-09-01 15:46:00,
2013-09-01 10:47:00,62.9,40.7,0.00,NE,45,2.9,2.9,44,0.00,,---,0.00,VWS V14.01,2013-09-01 15:47:00,
2013-09-01 10:48:00,62.9,40.7,0.00,East,90,2.7,2.9,44,0.00,,---,0.00,VWS V14.01,2013-09-01 15:48:00,
2013-09-01 10:49:00,62.9,40.7,0.00,ENE,68,2.9,3.1,44,0.00,,---,0.00,VWS V14.01,2013-09-01 15:49:00,
2013-09-01 10:50:00,62.9,40.7,0.00,NE,45,2.5,3.1,44,0.00,,---,0.00,VWS V14.01,2013-09-01 15:50:00,
2013-09-01 10:51:00,62.9,40.7,0.00,East,90,2.7,3.1,44,0.00,,---,0.00,VWS V14.01,2013-09-01 15:51:00,
2013-09-01 10:52:00,62.9,40.7,0.00,East,90,2.0,3.1,44,0.00,,---,0.00,VWS V14.01,2013-09-01 15:52:00,
2013-09-01 10:53:00,62.9,40.7,0.00,NE,45,2.0,3.1,44,0.00,,---,0.00,VWS V14.01,2013-09-01 15:53:00,
2013-09-01 10:54:00,62.7,40.5,0.00,East,90,2.0,3.1,44,0.00,,---,0.00,VWS V14.01,2013-09-01 15:54:00,
2013-09-01 10:55:00,62.7,40.5,0.00,East,90,0.0,3.1,44,0.00,,---,0.00,VWS V14.01,2013-09-01 15:55:00,
2013-09-01 10:56:00,77.9,48.8,0.00,NE,45,10.1,10.5,36,0.00,,---,0.00,VWS V14.01,2013-09-01 15:56:00,
2013-09-01 10:57:00,62.6,40.4,0.00,East,90,1.3,3.1,44,0.00,,---,0.00,VWS V14.01,2013-09-01 15:57:00,
2013-09-01 10:58:00,62.6,40.4,0.00,East,90,2.7,3.1,44,0.00,,---,0.00,VWS V14.01,2013-09-01 15:58:00,
2013-09-01 10:59:00,62.6,40.4,0.00,East,90,2.0,3.1,44,0.00,,---,0.00,VWS V14.01,2013-09-01 15:59:00,
2013-09-01 11:01:00,62.6,40.4,0.00,East,90,2.9,3.1,44,0.00,,---,0.00,VWS V14.01,2013-09-01 16:01:00,
2013-09-01 11:02:00,62.6,40.4,0.00,East,90,2.0,3.1,44,0.00,,---,0.00,VWS V14.01,2013-09-01 16:02:00,
2013-09-01 11:03:00,62.6,40.4,0.00,South,180,0.9,3.1,44,0.00,,---,0.00,VWS V14.01,2013-09-01 16:03:00,
2013-09-01 11:04:00,62.6,40.4,0.00,SW,225,0.0,3.1,44,0.00,,---,0.00,VWS V14.01,2013-09-01 16:04:00,
2013-09-01 11:05:00,62.6,40.4,0.00,SW,225,0.0,3.1,44,0.00,,---,0.00,VWS V14.01,2013-09-01 16:05:00,
2013-09-01 11:06:00,62.6,40.4,0.00,WSW,248,0.0,3.1,44,0.00,,---,0.00,VWS V14.01,2013-09-01 16:06:00,
2013-09-01 11:07:00,62.2,40.0,0.00,West,270,0.0,3.1,44,0.00,,---,0.00,VWS V14.01,2013-09-01 16:07:00,
2013-09-01 11:08:00,62.2,40.0,0.00,West,270,0.0,3.1,44,0.00,,---,0.00,VWS V14.01,2013-09-01 16:08:00,
2013-09-01 11:09:00,62.2,40.0,0.00,West,270,0.0,3.1,44,0.00,,---,0.00,VWS V14.01,2013-09-01 16:09:00,
2013-09-01 11:10:00,62.2,40.0,0.00,WNW,292,0.0,3.1,44,0.00,,---,0.00,VWS V14.01,2013-09-01 16:10:00,
2013-09-01 11:11:00,62.0,39.9,0.00,NW,315,0.0,3.1,44,0.00,,---,0.00,VWS V14.01,2013-09-01 16:11:00,
2013-09-01 11:12:00,62.0,40.5,0.00,NW,315,0.0,3.1,45,0.00,,---,0.00,VWS V14.01,2013-09-01 16:12:00,
2013-09-01 11:13:00,62.0,40.5,0.00,NW,315,0.0,3.1,45,0.00,,---,0.00,VWS V14.01,2013-09-01 16:13:00,
2013-09-01 11:14:00,62.0,40.5,0.00,NW,315,1.6,3.1,45,0.00,,---,0.00,VWS V14.01,2013-09-01 16:14:00,
2013-09-01 11:15:00,61.8,40.3,0.00,NW,315,1.6,3.1,45,0.00,,---,0.00,VWS V14.01,2013-09-01 16:15:00,
2013-09-01 11:16:00,61.8,40.3,0.00,NW,315,1.6,1.6,45,0.00,,---,0.00,VWS V14.01,2013-09-01 16:16:00,
2013-09-01 11:17:00,61.8,40.3,0.00,NW,315,1.3,1.6,45,0.00,,---,0.00,VWS V14.01,2013-09-01 16:17:00,
2013-09-01 11:18:00,61.7,40.1,0.00,NW,315,1.3,1.6,45,0.00,,---,0.00,VWS V14.01,2013-09-01 16:18:00,
2013-09-01 11:19:00,61.7,40.1,0.00,NW,315,2.5,2.5,45,0.00,,---,0.00,VWS V14.01,2013-09-01 16:19:00,
2013-09-01 11:20:00,61.7,40.1,0.00,NW,315,1.1,2.5,45,0.00,,---,0.00,VWS V14.01,2013-09-01 16:20:00,
2013-09-01 11:21:00,61.7,40.1,0.00,NW,315,1.1,2.5,45,0.00,,---,0.00,VWS V14.01,2013-09-01 16:21:00,
2013-09-01 11:22:00,61.7,40.1,0.00,NW,315,1.3,2.5,45,0.00,,---,0.00,VWS V14.01,2013-09-01 16:22:00,
2013-09-01 11:23:00,61.7,40.1,0.00,NW,315,1.6,2.5,45,0.00,,---,0.00,VWS V14.01,2013-09-01 16:23:00,
2013-09-01 11:24:00,61.5,40.0,0.00,NW,315,2.0,2.5,45,0.00,,---,0.00,VWS V14.01,2013-09-01 16:24:00,
2013-09-01 11:25:00,61.5,40.0,0.00,NW,315,2.2,2.5,45,0.00,,---,0.00,VWS V14.01,2013-09-01 16:25:00,
2013-09-01 11:27:00,61.1,39.6,0.00,NE,45,2.7,2.7,45,0.00,,---,0.00,VWS V14.01,2013-09-01 16:27:00,
2013-09-01 11:28:00,61.1,39.6,0.00,NE,45,2.7,2.7,45,0.00,,---,0.00,VWS V14.01,2013-09-01 16:28:00,
2013-09-01 11:29:00,61.1,39.6,0.00,NE,45,2.7,2.7,45,0.00,,---,0.00,VWS V14.01,2013-09-01 16:29:00,
2013-09-01 11:30:00,60.9,39.5,0.00,NE,45,2.5,2.7,45,0.00,,---,0.00,VWS V14.01,2013-09-01 16:30:00,
2013-09-01 11:31:00,60.8,39.3,0.00,NE,45,1.6,2.5,45,0.00,,---,0.00,VWS V14.01,2013-09-01 16:31:00,
2013-09-01 11:32:00,60.8,39.3,0.00,NE,45,1.3,2.5,45,0.00,,---,0.00,VWS V14.01,2013-09-01 16:32:00,
2013-09-01 11:33:00,60.8,39.3,0.00,NE,45,0.0,2.5,45,0.00,,---,0.00,VWS V14.01,2013-09-01 16:33:00,
2013-09-01 11:34:00,60.6,39.2,0.00,NE,45,0.0,2.5,45,0.00,,---,0.00,VWS V14.01,2013-09-01 16:34:00,
2013-09-01 11:35:00,60.4,39.0,0.00,NE,45,0.0,2.5,45,0.00,,---,0.00,VWS V14.01,2013-09-01 16:35:00,
2013-09-01 11:36:00,60.4,39.0,0.00,NE,45,0.0,2.5,45,0.00,,---,0.00,VWS V14.01,2013-09-01 16:36:00,
2013-09-01 11:37:00,60.4,39.0,0.00,NE,45,0.0,2.5,45,0.00,,---,0.00,VWS V14.01,2013-09-01 16:37:00,
2013-09-01 11:38:00,79.8,46.5,0.00,NE,45,10.1,13.2,31,0.00,,---,0.00,VWS V14.01,2013-09-01 16:38:00,
2013-09-01 11:40:00,60.0,39.2,0.00,South,180,1.3,2.5,46,0.00,,---,0.00,VWS V14.01,2013-09-01 16:40:00,
2013-09-01 11:41:00,60.0,39.2,0.00,South,180,0.0,2.5,46,0.00,,---,0.00,VWS V14.01,2013-09-01 16:41:00,
2013-09-01 11:42:00,60.0,39.2,0.00,South,180,0.0,2.5,46,0.00,,---,0.00,VWS V14.01,2013-09-01 16:42:00,
2013-09-01 11:43:00,59.3,38.6,0.00,South,180,0.0,2.5,46,0.00,,---,0.00,VWS V14.01,2013-09-01 16:43:00,
2013-09-01 11:44:00,59.3,38.6,0.00,South,180,0.0,2.5,46,0.00,,---,0.00,VWS V14.01,2013-09-01 16:44:00,
2013-09-01 11:45:00,59.0,38.8,0.00,South,180,0.0,2.5,47,0.00,,---,0.00,VWS V14.01,2013-09-01 16:45:00,
2013-09-01 11:46:00,59.0,38.8,0.00,South,180,0.0,0.0,47,0.00,,---,0.00,VWS V14.01,2013-09-01 16:46:00,
2013-09-01 11:47:00,58.8,38.6,0.00,South,180,0.0,0.0,47,0.00,,---,0.00,VWS V14.01,2013-09-01 16:47:00,
2013-09-01 11:48:00,58.8,38.6,0.00,South,180,0.0,0.0,47,0.00,,---,0.00,VWS V14.01,2013-09-01 16:48:00,
2013-09-01 11:49:00,58.8,38.6,0.00,South,180,0.0,0.0,47,0.00,,---,0.00,VWS V14.01,2013-09-01 16:49:00,
2013-09-01 11:50:00,58.6,38.5,0.00,South,180,0.0,0.0,47,0.00,,---,0.00,VWS V14.01,2013-09-01 16:50:00,
2013-09-01 11:51:00,58.6,38.5,0.00,South,180,0.0,0.0,47,0.00,,---,0.00,VWS V14.01,2013-09-01 16:51:00,
2013-09-01 11:52:00,58.6,38.5,0.00,South,180,0.0,0.0,47,0.00,,---,0.00,VWS V14.01,2013-09-01 16:52:00,
2013-09-01 11:53:00,58.4,38.3,0.00,South,180,0.0,0.0,47,0.00,,---,0.00,VWS V14.01,2013-09-01 16:53:00,
2013-09-01 11:54:00,58.4,38.3,0.00,SE,135,0.0,0.0,47,0.00,,---,0.00,VWS V14.01,2013-09-01 16:54:00,
2013-09-01 11:55:00,58.4,38.3,0.00,NE,45,0.9,2.0,47,0.00,,---,0.00,VWS V14.01,2013-09-01 16:55:00,
2013-09-01 11:56:00,58.4,38.3,0.00,NE,45,0.0,2.0,47,0.00,,---,0.00,VWS V14.01,2013-09-01 16:56:00,
2013-09-01 11:57:00,58.4,38.3,0.00,NE,45,1.3,2.0,47,0.00,,---,0.00,VWS V14.01,2013-09-01 16:57:00,
2013-09-01 11:58:00,58.4,38.3,0.00,NE,45,0.0,2.0,47,0.00,,---,0.00,VWS V14.01,2013-09-01 16:58:00,
2013-09-01 11:59:00,58.4,38.8,0.00,NE,45,0.0,2.0,48,0.00,,---,0.00,VWS V14.01,2013-09-01 16:59:00,
2013-09-01 12:00:00,58.4,38.8,0.00,NE,45,0.0,2.0,48,0.00,,---,0.00,VWS V14.01,2013-09-01 17:00:00,
2013-09-01 12:01:00,58.4,38.8,0.00,NE,45,0.0,0.0,48,0.00,,---,0.00,VWS V14.01,2013-09-01 17:01:00,
2013-09-01 12:02:00,58.4,38.8,0.00,NNE,22,0.0,0.0,48,0.00,,---,0.00,VWS V14.01,2013-09-01 17:02:00,
2013-09-01 12:03:00,58.4,38.8,0.00,NNE,22,0.0,0.0,48,0.00,,---,0.00,VWS V14.01,2013-09-01 17:03:00,
2013-09-01 12:05:00,58.4,38.8,0.00,NNE,22,0.0,0.0,48,0.00,,---,0.00,VWS V14.01,2013-09-01 17:05:00,
2013-09-01 12:06:00,58.2,38.7,0.00,NNE,22,0.0,0.0,48,0.00,,---,0.00,VWS V14.01,2013-09-01 17:06:00,
2013-09-01 12:07:00,58.2,38.7,0.00,NNE,22,0.0,0.0,48,0.00,,---,0.00,VWS V14.01,2013-09-01 17:07:00,
2013-09-01 12:08:00,58.2,38.7,0.00,NNE,22,0.0,0.0,48,0.00,,---,0.00,VWS V14.01,2013-09-01 17:08:00,
2013-09-01 12:09:00,58.2,39.2,0.00,NNE,22,0.0,0.0,49,0.00,,---,0.00,VWS V14.01,2013-09-01 17:09:00,
2013-09-01 12:10:00,58.2,39.2,0.00,NNE,22,0.0,0.0,49,0.00,,---,0.00,VWS V14.01,2013-09-01 17:10:00,
2013-09-01 12:11:00,58.2,39.2,0.00,NNE,22,0.0,0.0,49,0.00,,---,0.00,VWS V14.01,2013-09-01 17:11:00,
2013-09-01 12:13:00,58.1,39.0,0.00,NNE,22,0.0,0.0,49,0.00,,---,0.00,VWS V14.01,2013-09-01 17:13:00,
2013-09-01 12:14:00,58.1,39.0,0.00,NNE,22,0.0,0.0,49,0.00,,---,0.00,VWS V14.01,2013-09-01 17:14:00,
2013-09-01 12:15:00,58.1,39.5,0.00,NNE,22,0.0,0.0,50,0.00,,---,0.00,VWS V14.01,2013-09-01 17:15:00,
2013-09-01 12:16:00,58.1,39.5,0.00,NNE,22,0.0,0.0,50,0.00,,---,0.00,VWS V14.01,2013-09-01 17:16:00,
2013-09-01 12:17:00,58.1,39.5,0.00,NNE,22,0.0,0.0,50,0.00,,---,0.00,VWS V14.01,2013-09-01 17:17:00,
2013-09-01 12:18:00,58.1,39.5,0.00,NNE,22,0.0,0.0,50,0.00,,---,0.00,VWS V14.01,2013-09-01 17:18:00,
2013-09-01 12:19:00,58.1,39.5,0.00,NNE,22,0.0,0.0,50,0.00,,---,0.00,VWS V14.01,2013-09-01 17:19:00,
2013-09-01 12:20:00,58.1,39.5,0.00,NNE,22,0.0,0.0,50,0.00,,---,0.00,VWS V14.01,2013-09-01 17:20:00,
2013-09-01 12:21:00,58.1,39.5,0.00,NNE,22,0.0,0.0,50,0.00,,---,0.00,VWS V14.01,2013-09-01 17:21:00,
2013-09-01 12:22:00,58.1,39.5,0.00,NNE,22,0.0,0.0,50,0.00,,---,0.00,VWS V14.01,2013-09-01 17:22:00,
2013-09-01 12:23:00,57.9,39.4,0.00,NNE,22,0.0,0.0,50,0.00,,---,0.00,VWS V14.01,2013-09-01 17:23:00,
2013-09-01 12:24:00,57.9,39.4,0.00,NNE,22,0.0,0.0,50,0.00,,---,0.00,VWS V14.01,2013-09-01 17:24:00,
2013-09-01 12:25:00,57.9,39.4,0.00,NNE,22,0.0,0.0,50,0.00,,---,0.00,VWS V14.01,2013-09-01 17:25:00,
2013-09-01 12:26:00,57.9,39.4,0.00,NNE,22,0.0,0.0,50,0.00,,---,0.00,VWS V14.01,2013-09-01 17:26:00,
2013-09-01 12:27:00,57.9,39.4,0.00,NNE,22,0.0,0.0,50,0.00,,---,0.00,VWS V14.01,2013-09-01 17:27:00,
2013-09-01 12:28:00,57.7,39.2,0.00,NNE,22,0.0,0.0,50,0.00,,---,0.00,VWS V14.01,2013-09-01 17:28:00,
2013-09-01 12:29:00,57.7,39.2,0.00,NNE,22,0.0,0.0,50,0.00,,---,0.00,VWS V14.01,2013-09-01 17:29:00,
2013-09-01 12:30:00,57.5,39.0,0.00,NNE,22,0.0,0.0,50,0.00,,---,0.00,VWS V14.01,2013-09-01 17:30:00,
2013-09-01 12:31:00,57.3,38.9,0.00,NNE,22,0.0,0.0,50,0.00,,---,0.00,VWS V14.01,2013-09-01 17:31:00,
2013-09-01 12:32:00,57.3,38.9,0.00,NNE,22,0.0,0.0,50,0.00,,---,0.00,VWS V14.01,2013-09-01 17:32:00,
2013-09-01 12:33:00,57.3,38.9,0.00,NNE,22,0.0,0.0,50,0.00,,---,0.00,VWS V14.01,2013-09-01 17:33:00,
2013-09-01 12:34:00,57.3,38.9,0.00,NNE,22,0.0,0.0,50,0.00,,---,0.00,VWS V14.01,2013-09-01 17:34:00,
2013-09-01 12:35:00,57.3,38.9,0.00,NNE,22,0.0,0.0,50,0.00,,---,0.00,VWS V14.01,2013-09-01 17:35:00,
2013-09-01 12:36:00,57.3,38.9,0.00,NNE,22,0.0,0.0,50,0.00,,---,0.00,VWS V14.01,2013-09-01 17:36:00,
2013-09-01 12:37:00,57.3,38.9,0.00,NNE,22,0.0,0.0,50,0.00,,---,0.00,VWS V14.01,2013-09-01 17:37:00,
2013-09-01 12:38:00,57.3,38.9,0.00,SW,225,0.0,0.0,50,0.00,,---,0.00,VWS V14.01,2013-09-01 17:38:00,
2013-09-01 12:39:00,57.3,38.9,0.00,SSW,202,0.0,0.0,50,0.00,,---,0.00,VWS V14.01,2013-09-01 17:39:00,
2013-09-01 12:40:00,57.2,39.2,0.00,SSW,202,0.0,0.0,51,0.00,,---,0.00,VWS V14.01,2013-09-01 17:40:00,
2013-09-01 12:41:00,57.2,38.7,0.00,SSW,202,0.0,0.0,50,0.00,,---,0.00,VWS V14.01,2013-09-01 17:41:00,
2013-09-01 12:42:00,57.2,38.7,0.00,SSW,202,0.0,0.0,50,0.00,,---,0.00,VWS V14.01,2013-09-01 17:42:00,
2013-09-01 12:43:00,57.0,38.5,0.00,SSW,202,0.0,0.0,50,0.00,,---,0.00,VWS V14.01,2013-09-01 17:43:00,
2013-09-01 12:44:00,56.8,38.4,0.00,SSW,202,0.0,0.0,50,0.00,,---,0.00,VWS V14.01,2013-09-01 17:44:00,
2013-09-01 12:46:00,56.8,38.4,0.00,SSW,202,0.0,0.0,50,0.00,,---,0.00,VWS V14.01,2013-09-01 17:46:00,
2013-09-01 12:47:00,56.6,38.2,0.00,SW,225,0.0,0.0,50,0.00,,---,0.00,VWS V14.01,2013-09-01 17:47:00,
2013-09-01 12:48:00,56.6,38.7,0.00,West,270,0.0,0.0,51,0.00,,---,0.00,VWS V14.01,2013-09-01 17:48:00,
2013-09-01 12:49:00,56.6,38.7,0.00,West,270,0.0,0.0,51,0.00,,---,0.00,VWS V14.01,2013-09-01 17:49:00,
2013-09-01 12:50:00,56.6,38.7,0.00,West,270,0.0,0.0,51,0.00,,---,0.00,VWS V14.01,2013-09-01 17:50:00,
2013-09-01 12:51:00,56.4,39.5,0.00,West,270,0.0,0.0,53,0.00,,---,0.00,VWS V14.01,2013-09-01 17:51:00,
2013-09-01 12:52:00,56.4,39.5,0.00,West,270,0.0,0.0,53,0.00,,---,0.00,VWS V14.01,2013-09-01 17:52:00,
2013-09-01 12:53:00,56.1,39.2,0.00,West,270,0.0,0.0,53,0.00,,---,0.00,VWS V14.01,2013-09-01 17:53:00,
2013-09-01 12:54:00,56.1,39.7,0.00,WNW,292,0.0,0.0,54,0.00,,---,0.00,VWS V14.01,2013-09-01 17:54:00,
2013-09-01 12:55:00,56.1,39.7,0.00,WNW,292,0.0,0.0,54,0.00,,---,0.00,VWS V14.01,2013-09-01 17:55:00,
2013-09-01 12:56:00,55.9,39.5,0.00,WNW,292,0.0,0.0,54,0.00,,---,0.00,VWS V14.01,2013-09-01 17:56:00,
2013-09-01 12:57:00,55.9,40.0,0.00,WNW,292,0.0,0.0,55,0.00,,---,0.00,VWS V14.01,2013-09-01 17:57:00,
2013-09-01 12:58:00,55.7,39.8,0.00,NW,315,0.0,0.0,55,0.00,,---,0.00,VWS V14.01,2013-09-01 17:58:00,
2013-09-01 12:59:00,55.7,39.8,0.00,NW,315,0.0,0.0,55,0.00,,---,0.00,VWS V14.01,2013-09-01 17:59:00,
2013-09-01 13:00:00,55.7,40.3,0.00,NW,315,0.0,0.0,56,0.00,,---,0.00,VWS V14.01,2013-09-01 18:00:00,
2013-09-01 13:01:00,55.7,40.7,0.00,NW,315,0.0,0.0,57,0.00,,---,0.00,VWS V14.01,2013-09-01 18:01:00,
2013-09-01 13:02:00,55.7,40.7,0.00,NW,315,0.0,0.0,57,0.00,,---,0.00,VWS V14.01,2013-09-01 18:02:00,
2013-09-01 13:04:00,55.7,40.7,0.00,NW,315,0.0,0.0,57,0.00,,---,0.00,VWS V14.01,2013-09-01 18:04:00,
2013-09-01 13:05:00,55.9,40.9,0.00,NW,315,0.0,0.0,57,0.00,,---,0.00,VWS V14.01,2013-09-01 18:05:00,
2013-09-01 13:06:00,55.9,40.9,0.00,NW,315,0.0,0.0,57,0.00,,---,0.00,VWS V14.01,2013-09-01 18:06:00,
2013-09-01 13:07:00,55.9,40.9,0.00,NW,315,0.0,0.0,57,0.00,,---,0.00,VWS V14.01,2013-09-01 18:07:00,
2013-09-01 13:08:00,55.9,40.9,0.00,NW,315,0.0,0.0,57,0.00,,---,0.00,VWS V14.01,2013-09-01 18:08:00,
2013-09-01 13:09:00,55.9,40.5,0.00,NW,315,0.0,0.0,56,0.00,,---,0.00,VWS V14.01,2013-09-01 18:09:00,
2013-09-01 13:10:00,55.9,40.5,0.00,NW,315,0.0,0.0,56,0.00,,---,0.00,VWS V14.01,2013-09-01 18:10:00,
2013-09-01 13:11:00,55.9,40.5,0.00,NW,315,0.0,0.0,56,0.00,,---,0.00,VWS V14.01,2013-09-01 18:11:00,
2013-09-01 13:12:00,55.9,40.5,0.00,NW,315,0.0,0.0,56,0.00,,---,0.00,VWS V14.01,2013-09-01 18:12:00,
2013-09-01 13:13:00,55.9,40.5,0.00,NW,315,0.0,0.0,56,0.00,,---,0.00,VWS V14.01,2013-09-01 18:13:00,
2013-09-01 13:14:00,55.9,40.5,0.00,NW,315,0.0,0.0,56,0.00,,---,0.00,VWS V14.01,2013-09-01 18:14:00,
2013-09-01 13:15:00,55.9,40.0,0.00,NW,315,0.0,0.0,55,0.00,,---,0.00,VWS V14.01,2013-09-01 18:15:00,
2013-09-01 13:16:00,55.9,40.0,0.00,NW,315,0.0,0.0,55,0.00,,---,0.00,VWS V14.01,2013-09-01 18:16:00,
2013-09-01 13:17:00,55.7,39.8,0.00,NW,315,0.0,0.0,55,0.00,,---,0.00,VWS V14.01,2013-09-01 18:17:00,
2013-09-01 13:18:00,55.9,40.0,0.00,NW,315,0.0,0.0,55,0.00,,---,0.00,VWS V14.01,2013-09-01 18:18:00,
2013-09-01 13:19:00,55.7,39.8,0.00,NW,315,0.0,0.0,55,0.00,,---,0.00,VWS V14.01,2013-09-01 18:19:00,
2013-09-01 13:20:00,55.7,39.8,0.00,NW,315,0.0,0.0,55,0.00,,---,0.00,VWS V14.01,2013-09-01 18:20:00,
2013-09-01 13:21:00,55.7,39.8,0.00,NW,315,0.0,0.0,55,0.00,,---,0.00,VWS V14.01,2013-09-01 18:21:00,
2013-09-01 13:22:00,55.7,39.8,0.00,NW,315,0.0,0.0,55,0.00,,---,0.00,VWS V14.01,2013-09-01 18:22:00,
2013-09-01 13:23:00,55.7,40.3,0.00,NW,315,0.0,0.0,56,0.00,,---,0.00,VWS V14.01,2013-09-01 18:23:00,
2013-09-01 13:24:00,55.7,40.3,0.00,NW,315,0.0,0.0,56,0.00,,---,0.00,VWS V14.01,2013-09-01 18:24:00,
2013-09-01 13:25:00,55.7,40.3,0.00,NW,315,0.0,0.0,56,0.00,,---,0.00,VWS V14.01,2013-09-01 18:25:00,
2013-09-01 13:26:00,55.7,40.3,0.00,NW,315,0.0,0.0,56,0.00,,---,0.00,VWS V14.01,2013-09-01 18:26:00,
2013-09-01 13:27:00,55.7,41.2,0.00,WNW,292,2.5,2.9,58,0.00,,---,0.00,VWS V14.01,2013-09-01 18:27:00,
2013-09-01 13:28:00,55.7,41.2,0.00,NW,315,2.9,2.9,58,0.00,,---,0.00,VWS V14.01,2013-09-01 18:28:00,
2013-09-01 13:29:00,55.5,41.5,0.00,NW,315,3.4,3.4,59,0.00,,---,0.00,VWS V14.01,2013-09-01 18:29:00,
2013-09-01 13:30:00,55.4,41.3,0.00,NW,315,3.1,3.4,59,0.00,,---,0.00,VWS V14.01,2013-09-01 18:30:00,
2013-09-01 13:31:00,55.2,41.5,0.00,NW,315,3.1,3.1,60,0.00,,---,0.00,VWS V14.01,2013-09-01 18:31:00,
2013-09-01 13:32:00,55.2,41.5,0.00,NW,315,3.1,3.1,60,0.00,,---,0.00,VWS V14.01,2013-09-01 18:32:00,
2013-09-01 13:33:00,54.8,42.1,0.00,NNW,338,2.5,3.1,62,0.00,,---,0.00,VWS V14.01,2013-09-01 18:33:00,
2013-09-01 13:34:00,54.8,42.1,0.00,NW,315,2.7,3.1,62,0.00,,---,0.00,VWS V14.01,2013-09-01 18:34:00,
2013-09-01 13:35:00,54.8,42.1,0.00,NW,315,2.2,3.1,62,0.00,,---,0.00,VWS V14.01,2013-09-01 18:35:00,
2013-09-01 13:36:00,54.8,42.1,0.00,NW,315,2.5,3.1,62,0.00,,---,0.00,VWS V14.01,2013-09-01 18:36:00,
2013-09-01 13:37:00,54.8,41.6,0.00,NW,315,2.0,3.1,61,0.00,,---,0.00,VWS V14.01,2013-09-01 18:37:00,
2013-09-01 13:38:00,54.8,41.6,0.00,NW,315,1.1,3.1,61,0.00,,---,0.00,VWS V14.01,2013-09-01 18:38:00,
2013-09-01 13:39:00,54.8,41.6,0.00,NW,315,2.2,3.1,61,0.00,,---,0.00,VWS V14.01,2013-09-01 18:39:00,
2013-09-01 13:40:00,55.0,41.4,0.00,NW,315,2.2,3.1,60,0.00,,---,0.00,VWS V14.01,2013-09-01 18:40:00,
2013-09-01 13:41:00,55.0,41.4,0.00,NW,315,1.3,3.1,60,0.00,,---,0.00,VWS V14.01,2013-09-01 18:41:00,
2013-09-01 13:42:00,55.0,41.4,0.00,NW,315,1.6,3.1,60,0.00,,---,0.00,VWS V14.01,2013-09-01 18:42:00,
2013-09-01 13:43:00,55.2,41.5,0.00,NW,315,1.3,3.1,60,0.00,,---,0.00,VWS V14.01,2013-09-01 18:43:00,
2013-09-01 13:44:00,55.2,41.5,0.00,NW,315,1.6,3.1,60,0.00,,---,0.00,VWS V14.01,2013-09-01 18:44:00,
2013-09-01 13:45:00,55.2,41.1,0.00,NW,315,1.3,3.1,59,0.00,,---,0.00,VWS V14.01,2013-09-01 18:45:00,
2013-09-01 13:46:00,55.2,41.1,0.00,NW,315,1.6,1.6,59,0.00,,---,0.00,VWS V14.01,2013-09-01 18:46:00,
2013-09-01 13:47:00,55.2,41.1,0.00,NW,315,0.9,1.6,59,0.00,,---,0.00,VWS V14.01,2013-09-01 18:47:00,
2013-09-01 13:48:00,55.4,41.7,0.00,NW,315,0.0,1.6,60,0.00,,---,0.00,VWS V14.01,2013-09-01 18:48:00,
2013-09-01 13:49:00,55.4,41.3,0.00,NW,315,0.0,1.6,59,0.00,,---,0.00,VWS V14.01,2013-09-01 18:49:00,
2013-09-01 13:50:00,55.2,41.1,0.00,NW,315,2.0,2.0,59,0.00,,---,0.00,VWS V14.01,2013-09-01 18:50:00,
2013-09-01 13:51:00,55.2,41.5,0.00,NW,315,2.2,2.5,60,0.00,,---,0.00,VWS V14.01,2013-09-01 18:51:00,
2013-09-01 13:52:00,55.2,41.5,0.00,NW,315,2.5,2.5,60,0.00,,---,0.00,VWS V14.01,2013-09-01 18:52:00,
2013-09-01 13:53:00,55.2,41.5,0.00,NW,315,2.7,2.7,60,0.00,,---,0.00,VWS V14.01,2013-09-01 18:53:00,
2013-09-01 13:54:00,55.2,41.5,0.00,NW,315,2.2,2.7,60,0.00,,---,0.00,VWS V14.01,2013-09-01 18:54:00,
2013-09-01 13:55:00,55.2,41.5,0.00,NW,315,2.5,2.7,60,0.00,,---,0.00,VWS V14.01,2013-09-01 18:55:00,
2013-09-01 13:56:00,55.2,41.5,0.00,NW,315,2.5,2.7,60,0.00,,---,0.00,VWS V14.01,2013-09-01 18:56:00,
2013-09-01 13:57:00,55.2,41.5,0.00,NNW,338,2.5,2.7,60,0.00,,---,0.00,VWS V14.01,2013-09-01 18:57:00,
2013-09-01 13:58:00,55.2,41.5,0.00,NNW,338,2.5,2.7,60,0.00,,---,0.00,VWS V14.01,2013-09-01 18:58:00,
2013-09-01 13:59:00,86.1,47.3,0.00,North,0,4.3,10.3,26,0.00,,---,0.00,VWS V14.01,2013-09-01 18:59:00,
2013-09-01 14:00:00,55.2,41.5,0.00,NNW,338,2.0,2.7,60,0.00,,---,0.00,VWS V14.01,2013-09-01 19:00:00,
2013-09-01 14:01:00,55.4,41.7,0.00,NNW,338,2.0,2.2,60,0.00,,---,0.00,VWS V14.01,2013-09-01 19:01:00,
2013-09-01 14:02:00,55.4,41.7,0.00,NNW,338,2.5,2.5,60,0.00,,---,0.00,VWS V14.01,2013-09-01 19:02:00,
2013-09-01 14:03:00,55.4,41.7,0.00,NW,315,2.7,2.7,60,0.00,,---,0.00,VWS V14.01,2013-09-01 19:03:00,
2013-09-01 14:04:00,55.4,41.7,0.00,North,0,2.5,2.7,60,0.00,,---,0.00,VWS V14.01,2013-09-01 19:04:00,
2013-09-01 14:05:00,55.4,41.7,0.00,North,0,2.9,2.9,60,0.00,,---,0.00,VWS V14.01,2013-09-01 19:05:00,
2013-09-01 14:06:00,55.4,41.7,0.00,North,0,2.9,2.9,60,0.00,,---,0.00,VWS V14.01,2013-09-01 19:06:00,
2013-09-01 14:07:00,55.4,41.7,0.00,North,0,2.9,2.9,60,0.00,,---,0.00,VWS V14.01,2013-09-01 19:07:00,
2013-09-01 14:08:00,55.4,41.3,0.00,North,0,2.5,2.9,59,0.00,,---,0.00,VWS V14.01,2013-09-01 19:08:00,
2013-09-01 14:09:00,55.4,41.3,0.00,North,0,1.6,2.9,59,0.00,,---,0.00,VWS V14.01,2013-09-01 19:09:00,
2013-09-01 14:10:00,55.4,41.3,0.00,North,0,2.2,2.9,59,0.00,,---,0.00,VWS V14.01,2013-09-01 19:10:00,
2013-09-01 14:11:00,55.4,41.3,0.00,North,0,2.2,2.9,59,0.00,,---,0.00,VWS V14.01,2013-09-01 19:11:00,
2013-09-01 14:12:00,55.2,41.1,0.00,North,0,2.0,2.9,59,0.00,,---,0.00,VWS V14.01,2013-09-01 19:12:00,
2013-09-01 14:13:00,55.4,41.3,0.00,North,0,2.2,2.9,59,0.00,,---,0.00,VWS V14.01,2013-09-01 19:13:00,
2013-09-01 14:14:00,55.4,41.3,0.00,North,0,1.6,2.9,59,0.00,,---,0.00,VWS V14.01,2013-09-01 19:14:00,
2013-09-01 14:15:00,55.4,41.3,0.00,North,0,1.6,2.9,59,0.00,,---,0.00,VWS V14.01,2013-09-01 19:15:00,
2013-09-01 14:16:00,55.4,41.3,0.00,North,0,1.1,1.6,59,0.00,,---,0.00,VWS V14.01,2013-09-01 19:16:00,
2013-09-01 14:17:00,55.7,41.2,0.00,North,0,1.3,1.6,58,0.00,,---,0.00,VWS V14.01,2013-09-01 19:17:00,
2013-09-01 14:18:00,55.7,41.2,0.00,North,0,0.0,1.6,58,0.00,,---,0.00,VWS V14.01,2013-09-01 19:18:00,
2013-09-01 14:19:00,55.7,41.2,0.00,North,0,0.0,1.6,58,0.00,,---,0.00,VWS V14.01,2013-09-01 19:19:00,
2013-09-01 14:20:00,55.7,40.7,0.00,WSW,248,1.6,1.6,57,0.00,,---,0.00,VWS V14.01,2013-09-01 19:20:00,
2013-09-01 14:21:00,55.7,40.7,0.00,WSW,248,0.0,1.6,57,0.00,,---,0.00,VWS V14.01,2013-09-01 19:21:00,
2013-09-01 14:22:00,55.4,40.4,0.00,West,270,0.0,1.6,57,0.00,,---,0.00,VWS V14.01,2013-09-01 19:22:00,
2013-09-01 14:24:00,55.2,40.7,0.00,NW,315,0.0,1.6,58,0.00,,---,0.00,VWS V14.01,2013-09-01 19:24:00,
2013-09-01 14:25:00,55.0,40.5,0.00,NW,315,0.0,1.6,58,0.00,,---,0.00,VWS V14.01,2013-09-01 19:25:00,
2013-09-01 14:26:00,54.8,40.8,0.00,NW,315,0.0,1.6,59,0.00,,---,0.00,VWS V14.01,2013-09-01 19:26:00,
2013-09-01 14:27:00,54.8,40.8,0.00,NW,315,0.0,1.6,59,0.00,,---,0.00,VWS V14.01,2013-09-01 19:27:00,
2013-09-01 14:28:00,54.8,40.8,0.00,NW,315,0.0,1.6,59,0.00,,---,0.00,VWS V14.01,2013-09-01 19:28:00,
2013-09-01 14:29:00,54.6,40.6,0.00,NW,315,2.2,2.2,59,0.00,,---,0.00,VWS V14.01,2013-09-01 19:29:00,
2013-09-01 14:30:00,54.6,41.0,0.00,NW,315,2.7,2.7,60,0.00,,---,0.00,VWS V14.01,2013-09-01 19:30:00,
2013-09-01 14:31:00,54.5,41.3,0.00,NW,315,3.1,3.1,61,0.00,,---,0.00,VWS V14.01,2013-09-01 19:31:00,
2013-09-01 14:32:00,54.5,41.3,0.00,NW,315,3.1,3.4,61,0.00,,---,0.00,VWS V14.01,2013-09-01 19:32:00,
2013-09-01 14:33:00,54.3,41.5,0.00,NW,315,3.1,3.4,62,0.00,,---,0.00,VWS V14.01,2013-09-01 19:33:00,
2013-09-01 14:34:00,54.1,41.4,0.00,WNW,292,2.9,3.4,62,0.00,,---,0.00,VWS V14.01,2013-09-01 19:34:00,
2013-09-01 14:35:00,54.1,41.4,0.00,NW,315,2.7,3.4,62,0.00,,---,0.00,VWS V14.01,2013-09-01 19:35:00,
2013-09-01 14:36:00,53.9,41.6,0.00,NW,315,3.1,3.4,63,0.00,,---,0.00,VWS V14.01,2013-09-01 19:36:00,
2013-09-01 14:37:00,53.9,41.6,0.00,NW,315,2.7,3.4,63,0.00,,---,0.00,VWS V14.01,2013-09-01 19:37:00,
2013-09-01 14:38:00,53.9,41.6,0.00,NW,315,2.7,3.4,63,0.00,,---,0.00,VWS V14.01,2013-09-01 19:38:00,
2013-09-01 14:39:00,53.9,41.6,0.00,NW,315,2.5,3.4,63,0.00,,---,0.00,VWS V14.01,2013-09-01 19:39:00,
2013-09-01 14:40:00,54.1,42.2,0.00,NW,315,2.2,3.4,64,0.00,,---,0.00,VWS V14.01,2013-09-01 19:40:00,
2013-09-01 14:41:00,54.1,41.8,0.00,NW,315,2.2,3.4,63,0.00,,---,0.00,VWS V14.01,2013-09-01 19:41:00,
2013-09-01 14:42:00,54.1,41.8,0.00,NW,315,1.3,3.4,63,0.00,,---,0.00,VWS V14.01,2013-09-01 19:42:00,
2013-09-01 14:43:00,54.1,41.8,0.00,NW,315,2.5,3.4,63,0.00,,---,0.00,VWS V14.01,2013-09-01 19:43:00,
2013-09-01 14:44:00,54.1,41.8,0.00,NW,315,2.5,3.4,63,0.00,,---,0.00,VWS V14.01,2013-09-01 19:44:00,
2013-09-01 14:45:00,54.3,42.0,0.00,NW,315,2.5,3.4,63,0.00,,---,0.00,VWS V14.01,2013-09-01 19:45:00,
2013-09-01 14:46:00,54.3,42.0,0.00,NW,315,2.2,2.9,63,0.00,,---,0.00,VWS V14.01,2013-09-01 19:46:00,
2013-09-01 14:47:00,54.3,42.0,0.00,NW,315,2.5,2.9,63,0.00,,---,0.00,VWS V14.01,2013-09-01 19:47:00,
2013-09-01 14:48:00,54.3,42.0,0.00,NW,315,2.0,2.9,63,0.00,,---,0.00,VWS V14.01,2013-09-01 19:48:00,
2013-09-01 14:49:00,54.3,42.0,0.00,NW,315,2.2,2.9,63,0.00,,---,0.00,VWS V14.01,2013-09-01 19:49:00,
2013-09-01 14:50:00,54.3,42.0,0.00,NW,315,2.5,2.9,63,0.00,,---,0.00,VWS V14.01,2013-09-01 19:50:00,
2013-09-01 14:51:00,54.3,42.0,0.00,NNW,338,2.5,2.9,63,0.00,,---,0.00,VWS V14.01,2013-09-01 19:51:00,
2013-09-01 14:52:00,54.3,42.0,0.00,NNW,338,2.7,2.9,63,0.00,,---,0.00,VWS V14.01,2013-09-01 19:52:00,
2013-09-01 14:53:00,54.3,42.0,0.00,NNW,338,2.0,2.9,63,0.00,,---,0.00,VWS V14.01,2013-09-01 19:53:00,
2013-09-01 14:54:00,54.3,42.0,0.00,NNW,338,2.5,2.9,63,0.00,,---,0.00,VWS V14.01,2013-09-01 19:54:00,
2013-09-01 14:55:00,54.3,41.5,0.00,NNW,338,2.0,2.9,62,0.00,,---,0.00,VWS V14.01,2013-09-01 19:55:00,
2013-09-01 14:56:00,54.5,41.7,0.00,NNW,338,1.6,2.9,62,0.00,,---,0.00,VWS V14.01,2013-09-01 19:56:00,
2013-09-01 14:57:00,54.5,41.7,0.00,North,0,2.5,2.9,62,0.00,,---,0.00,VWS V14.01,2013-09-01 19:57:00,
2013-09-01 14:58:00,54.5,41.7,0.00,North,0,1.1,2.9,62,0.00,,---,0.00,VWS V14.01,2013-09-01 19:58:00,
2013-09-01 14:59:00,54.5,41.7,0.00,North,0,0.9,2.9,62,0.00,,---,0.00,VWS V14.01,2013-09-01 19:59:00,
2013-09-01 15:00:00,54.6,41.9,0.00,North,0,0.0,2.9,62,0.00,,---,0.00,VWS V14.01,2013-09-01 20:00:00,
2013-09-01 15:01:00,54.6,41.5,0.00,North,0,0.9,1.3,61,0.00,,---,0.00,VWS V14.01,2013-09-01 20:01:00,
2013-09-01 15:02:00,55.0,41.8,0.00,North,0,0.0,1.3,61,0.00,,---,0.00,VWS V14.01,2013-09-01 20:02:00,
2013-09-01 15:03:00,55.0,41.8,0.00,North,0,0.0,1.3,61,0.00,,---,0.00,VWS V14.01,2013-09-01 20:03:00,
2013-09-01 15:04:00,55.0,41.4,0.00,North,0,0.0,1.3,60,0.00,,---,0.00,VWS V14.01,2013-09-01 20:04:00,
2013-09-01 15:05:00,55.0,41.4,0.00,North,0,0.0,1.3,60,0.00,,---,0.00,VWS V14.01,2013-09-01 20:05:00,
2013-09-01 15:06:00,55.0,41.4,0.00,North,0,0.0,1.3,60,0.00,,---,0.00,VWS V14.01,2013-09-01 20:06:00,
2013-09-01 15:07:00,55.0,41.4,0.00,North,0,0.0,1.3,60,0.00,,---,0.00,VWS V14.01,2013-09-01 20:07:00,
2013-09-01 15:08:00,55.0,41.4,0.00,North,0,2.0,2.0,60,0.00,,---,0.00,VWS V14.01,2013-09-01 20:08:00,
2013-09-01 15:09:00,54.8,41.2,0.00,North,0,2.5,2.5,60,0.00,,---,0.00,VWS V14.01,2013-09-01 20:09:00,
2013-09-01 15:10:00,54.6,41.5,0.00,North,0,2.5,2.5,61,0.00,,---,0.00,VWS V14.01,2013-09-01 20:10:00,
2013-09-01 15:11:00,54.5,41.3,0.00,North,0,2.7,2.9,61,0.00,,---,0.00,VWS V14.01,2013-09-01 20:11:00,
2013-09-01 15:12:00,54.5,41.7,0.00,North,0,2.7,3.1,62,0.00,,---,0.00,VWS V14.01,2013-09-01 20:12:00,
2013-09-01 15:13:00,54.5,41.7,0.00,North,0,2.5,3.1,62,0.00,,---,0.00,VWS V14.01,2013-09-01 20:13:00,
2013-09-01 15:14:00,54.5,41.7,0.00,North,0,2.0,3.1,62,0.00,,---,0.00,VWS V14.01,2013-09-01 20:14:00,
2013-09-01 15:15:00,54.5,41.7,0.00,North,0,1.1,3.1,62,0.00,,---,0.00,VWS V14.01,2013-09-01 20:15:00,
2013-09-01 15:16:00,54.5,41.7,0.00,North,0,0.0,1.1,62,0.00,,---,0.00,VWS V14.01,2013-09-01 20:16:00,
2013-09-01 15:18:00,54.5,41.7,0.00,North,0,0.0,1.1,62,0.00,,---,0.00,VWS V14.01,2013-09-01 20:18:00,
2013-09-01 15:19:00,54.1,41.0,0.00,North,0,0.0,1.1,61,0.00,,---,0.00,VWS V14.01,2013-09-01 20:19:00,
2013-09-01 15:20:00,54.1,41.0,0.00,North,0,0.0,1.1,61,0.00,,---,0.00,VWS V14.01,2013-09-01 20:20:00,
2013-09-01 15:21:00,53.9,40.4,0.00,North,0,1.3,1.6,60,0.00,,---,0.00,VWS V14.01,2013-09-01 20:21:00,
2013-09-01 15:22:00,53.9,41.2,0.00,North,0,2.2,2.2,62,0.00,,---,0.00,VWS V14.01,2013-09-01 20:22:00,
2013-09-01 15:23:00,53.7,41.5,0.00,North,0,2.7,2.7,63,0.00,,---,0.00,VWS V14.01,2013-09-01 20:23:00,
2013-09-01 15:24:00,53.6,40.9,0.00,North,0,2.7,2.7,62,0.00,,---,0.00,VWS V14.01,2013-09-01 20:24:00,
2013-09-01 15:25:00,53.6,40.9,0.00,NE,45,3.1,3.4,62,0.00,,---,0.00,VWS V14.01,2013-09-01 20:25:00,
2013-09-01 15:27:00,53.6,40.9,0.00,NE,45,3.1,3.4,62,0.00,,---,0.00,VWS V14.01,2013-09-01 20:27:00,
2013-09-01 15:28:00,53.4,41.1,0.00,NE,45,2.7,3.4,63,0.00,,---,0.00,VWS V14.01,2013-09-01 20:28:00,
2013-09-01 15:29:00,53.4,41.1,0.00,NE,45,3.1,3.4,63,0.00,,---,0.00,VWS V14.01,2013-09-01 20:29:00,
2013-09-01 15:30:00,53.4,41.1,0.00,NE,45,3.4,3.4,63,0.00,,---,0.00,VWS V14.01,2013-09-01 20:30:00,
2013-09-01 15:31:00,53.4,41.5,0.00,NE,45,2.5,3.4,64,0.00,,---,0.00,VWS V14.01,2013-09-01 20:31:00,
2013-09-01 15:32:00,53.6,41.7,0.00,NNE,22,2.5,3.4,64,0.00,,---,0.00,VWS V14.01,2013-09-01 20:32:00,
2013-09-01 15:33:00,53.6,42.1,0.00,NNE,22,0.9,3.4,65,0.00,,---,0.00,VWS V14.01,2013-09-01 20:33:00,
2013-09-01 15:35:00,53.6,41.7,0.00,West,270,2.0,3.4,64,0.00,,---,0.00,VWS V14.01,2013-09-01 20:35:00,
2013-09-01 15:36:00,53.6,42.1,0.00,NW,315,0.9,3.4,65,0.00,,---,0.00,VWS V14.01,2013-09-01 20:36:00,
2013-09-01 15:37:00,53.6,42.1,0.00,NW,315,3.1,3.4,65,0.00,,---,0.00,VWS V14.01,2013-09-01 20:37:00,
2013-09-01 15:38:00,53.6,42.1,0.00,NW,315,3.1,3.4,65,0.00,,---,0.00,VWS V14.01,2013-09-01 20:38:00,
2013-09-01 15:39:00,53.4,42.7,0.00,NW,315,3.4,3.4,67,0.00,,---,0.00,VWS V14.01,2013-09-01 20:39:00,
2013-09-01 15:40:00,53.0,42.8,0.00,NW,315,3.4,3.4,68,0.00,,---,0.00,VWS V14.01,2013-09-01 20:40:00,
2013-09-01 15:41:00,52.8,42.6,0.00,NW,315,2.9,3.4,68,0.00,,---,0.00,VWS V14.01,2013-09-01 20:41:00,
2013-09-01 15:42:00,52.8,42.6,0.00,NW,315,3.1,3.6,68,0.00,,---,0.00,VWS V14.01,2013-09-01 20:42:00,
2013-09-01 15:43:00,52.8,42.6,0.00,NW,315,2.5,3.6,68,0.00,,---,0.00,VWS V14.01,2013-09-01 20:43:00,
2013-09-01 15:44:00,52.7,42.8,0.00,NNW,338,2.7,3.6,69,0.00,,---,0.00,VWS V14.01,2013-09-01 20:44:00,
2013-09-01 15:45:00,52.7,42.8,0.00,NW,315,3.1,3.6,69,0.00,,---,0.00,VWS V14.01,2013-09-01 20:45:00,
2013-09-01 15:46:00,52.7,42.8,0.00,NW,315,3.1,3.6,69,0.00,,---,0.00,VWS V14.01,2013-09-01 20:46:00,
2013-09-01 15:47:00,52.7,43.2,0.00,NW,315,2.7,3.6,70,0.00,,---,0.00,VWS V14.01,2013-09-01 20:47:00,
2013-09-01 15:48:00,52.7,43.2,0.00,WNW,292,3.1,3.6,70,0.00,,---,0.00,VWS V14.01,2013-09-01 20:48:00,
2013-09-01 15:49:00,52.5,43.0,0.00,NW,315,2.9,3.6,70,0.00,,---,0.00,VWS V14.01,2013-09-01 20:49:00,
2013-09-01 15:50:00,52.5,43.0,0.00,NW,315,2.5,3.6,70,0.00,,---,0.00,VWS V14.01,2013-09-01 20:50:00,
2013-09-01 15:51:00,52.5,43.0,0.00,NW,315,2.9,3.6,70,0.00,,---,0.00,VWS V14.01,2013-09-01 20:51:00,
2013-09-01 15:52:00,52.5,43.0,0.00,NW,315,2.5,3.6,70,0.00,,---,0.00,VWS V14.01,2013-09-01 20:52:00,
2013-09-01 15:53:00,52.3,42.8,0.00,NW,315,2.0,3.6,70,0.00,,---,0.00,VWS V14.01,2013-09-01 20:53:00,
2013-09-01 15:54:00,52.3,42.8,0.00,NW,315,1.6,3.6,70,0.00,,---,0.00,VWS V14.01,2013-09-01 20:54:00,
2013-09-01 15:55:00,52.3,42.8,0.00,NW,315,1.6,3.6,70,0.00,,---,0.00,VWS V14.01,2013-09-01 20:55:00,
2013-09-01 15:56:00,52.3,42.8,0.00,NW,315,2.2,3.6,70,0.00,,---,0.00,VWS V14.01,2013-09-01 20:56:00,
2013-09-01 15:57:00,52.3,42.8,0.00,NW,315,2.2,3.6,70,0.00,,---,0.00,VWS V14.01,2013-09-01 20:57:00,
2013-09-01 15:58:00,52.3,42.8,0.00,NW,315,2.5,3.6,70,0.00,,---,0.00,VWS V14.01,2013-09-01 20:58:00,
2013-09-01 15:59:00,52.3,42.8,0.00,NW,315,2.5,3.6,70,0.00,,---,0.00,VWS V14.01,2013-09-01 20:59:00,
2013-09-01 16:00:00,52.3,42.8,0.00,NW,315,2.2,3.6,70,0.00,,---,0.00,VWS V14.01,2013-09-01 21:00:00,
2013-09-01 16:01:00,52.3,42.8,0.00,NW,315,2.2,2.2,70,0.00,,---,0.00,VWS V14.01,2013-09-01 21:01:00,
2013-09-01 16:02:00,52.5,43.0,0.00,NNW,338,2.7,2.7,70,0.00,,---,0.00,VWS V14.01,2013-09-01 21:02:00,
2013-09-01 16:03:00,52.3,42.8,0.00,NNW,338,1.6,2.7,70,0.00,,---,0.00,VWS V14.01,2013-09-01 21:03:00,
2013-09-01 16:04:00,52.5,43.0,0.00,NNW,338,1.3,2.7,70,0.00,,---,0.00,VWS V14.01,2013-09-01 21:04:00,
2013-09-01 16:05:00,52.5,43.0,0.00,NNW,338,1.3,2.7,70,0.00,,---,0.00,VWS V14.01,2013-09-01 21:05:00,
2013-09-01 16:06:00,52.5,43.0,0.00,NNW,338,2.2,2.7,70,0.00,,---,0.00,VWS V14.01,2013-09-01 21:06:00,
2013-09-01 16:07:00,52.5,43.0,0.00,NNW,338,1.6,2.7,70,0.00,,---,0.00,VWS V14.01,2013-09-01 21:07:00,
2013-09-01 16:08:00,52.5,43.0,0.00,NNW,338,1.3,2.7,70,0.00,,---,0.00,VWS V14.01,2013-09-01 21:08:00,
2013-09-01 16:09:00,52.7,43.2,0.00,NNW,338,2.5,2.7,70,0.00,,---,0.00,VWS V14.01,2013-09-01 21:09:00,
2013-09-01 16:10:00,52.7,43.2,0.00,North,0,1.6,2.7,70,0.00,,---,0.00,VWS V14.01,2013-09-01 21:10:00,
2013-09-01 16:11:00,52.7,42.8,0.00,North,0,2.5,2.7,69,0.00,,---,0.00,VWS V14.01,2013-09-01 21:11:00,
2013-09-01 16:12:00,52.8,43.0,0.00,North,0,2.2,2.7,69,0.00,,---,0.00,VWS V14.01,2013-09-01 21:12:00,
2013-09-01 16:13:00,52.8,43.0,0.00,North,0,2.0,2.7,69,0.00,,---,0.00,VWS V14.01,2013-09-01 21:13:00,
2013-09-01 16:14:00,52.8,43.0,0.00,North,0,2.0,2.7,69,0.00,,---,0.00,VWS V14.01,2013-09-01 21:14:00,
2013-09-01 16:15:00,52.8,43.0,0.00,North,0,2.0,2.7,69,0.00,,---,0.00,VWS V14.01,2013-09-01 21:15:00,
2013-09-01 16:16:00,53.0,43.1,0.00,North,0,1.6,2.0,69,0.00,,---,0.00,VWS V14.01,2013-09-01 21:16:00,
2013-09-01 16:17:00,53.0,43.1,0.00,North,0,0.9,2.0,69,0.00,,---,0.00,VWS V14.01,2013-09-01 21:17:00,
2013-09-01 16:18:00,53.2,42.9,0.00,North,0,0.0,2.0,68,0.00,,---,0.00,VWS V14.01,2013-09-01 21:18:00,
2013-09-01 16:19:00,53.2,42.9,0.00,North,0,0.0,2.0,68,0.00,,---,0.00,VWS V14.01,2013-09-01 21:19:00,
2013-09-01 16:20:00,53.2,42.5,0.00,North,0,0.0,2.0,67,0.00,,---,0.00,VWS V14.01,2013-09-01 21:20:00,
2013-09-01 16:21:00,53.2,42.5,0.00,North,0,0.0,2.0,67,0.00,,---,0.00,VWS V14.01,2013-09-01 21:21:00,
2013-09-01 16:22:00,53.2,42.5,0.00,North,0,0.0,2.0,67,0.00,,---,0.00,VWS V14.01,2013-09-01 21:22:00,
2013-09-01 16:23:00,53.2,42.5,0.00,North,0,0.0,2.0,67,0.00,,---,0.00,VWS V14.01,2013-09-01 21:23:00,
2013-09-01 16:24:00,53.2,42.5,0.00,North,0,0.0,2.0,67,0.00,,---,0.00,VWS V14.01,2013-09-01 21:24:00,
2013-09-01 16:25:00,53.4,42.7,0.00,North,0,0.0,2.0,67,0.00,,---,0.00,VWS V14.01,2013-09-01 21:25:00,
2013-09-01 16:26:00,53.0,42.4,0.00,North,0,0.0,2.0,67,0.00,,---,0.00,VWS V14.01,2013-09-01 21:26:00,
2013-09-01 16:27:00,53.0,42.4,0.00,North,0,0.0,2.0,67,0.00,,---,0.00,VWS V14.01,2013-09-01 21:27:00,
2013-09-01 16:28:00,52.8,42.2,0.00,North,0,1.3,2.0,67,0.00,,---,0.00,VWS V14.01,2013-09-01 21:28:00,
2013-09-01 16:29:00,52.8,42.2,0.00,North,0,1.3,2.0,67,0.00,,---,0.00,VWS V14.01,2013-09-01 21:29:00,
2013-09-01 16:30:00,52.8,42.2,0.00,North,0,0.0,2.0,67,0.00,,---,0.00,VWS V14.01,2013-09-01 21:30:00,
2013-09-01 16:31:00,52.7,42.0,0.00,North,0,0.0,0.0,67,0.00,,---,0.00,VWS V14.01,2013-09-01 21:31:00,
2013-09-01 16:33:00,52.7,42.0,0.00,North,0,0.0,0.0,67,0.00,,---,0.00,VWS V14.01,2013-09-01 21:33:00,
2013-09-01 16:34:00,52.7,42.0,0.00,NW,315,0.0,0.0,67,0.00,,---,0.00,VWS V14.01,2013-09-01 21:34:00,
2013-09-01 16:35:00,52.7,42.0,0.00,NW,315,0.0,0.0,67,0.00,,---,0.00,VWS V14.01,2013-09-01 21:35:00,
2013-09-01 16:36:00,52.5,42.2,0.00,NW,315,0.0,0.0,68,0.00,,---,0.00,VWS V14.01,2013-09-01 21:36:00,
2013-09-01 16:37:00,87.6,30.7,0.00,NE,45,6.5,10.5,13,0.00,,---,0.00,VWS V14.01,2013-09-01 21:37:00,
2013-09-01 16:38:00,52.3,42.1,0.00,NW,315,1.6,2.0,68,0.00,,---,0.00,VWS V14.01,2013-09-01 21:38:00,
2013-09-01 16:39:00,52.1,42.3,0.00,NNW,338,1.6,2.2,69,0.00,,---,0.00,VWS V14.01,2013-09-01 21:39:00,
2013-09-01 16:40:00,52.1,42.3,0.00,NNW,338,1.3,2.2,69,0.00,,---,0.00,VWS V14.01,2013-09-01 21:40:00,
2013-09-01 16:41:00,51.9,42.1,0.00,North,0,2.5,2.5,69,0.00,,---,0.00,VWS V14.01,2013-09-01 21:41:00,
2013-09-01 16:42:00,51.9,42.1,0.00,North,0,2.2,2.5,69,0.00,,---,0.00,VWS V14.01,2013-09-01 21:42:00,
2013-09-01 16:43:00,51.9,42.1,0.00,North,0,1.6,2.5,69,0.00,,---,0.00,VWS V14.01,2013-09-01 21:43:00,
2013-09-01 16:44:00,51.9,42.1,0.00,North,0,2.2,2.5,69,0.00,,---,0.00,VWS V14.01,2013-09-01 21:44:00,
2013-09-01 16:45:00,51.9,42.5,0.00,WNW,292,2.5,2.5,70,0.00,,---,0.00,VWS V14.01,2013-09-01 21:45:00,
2013-09-01 16:46:00,51.9,42.5,0.00,WNW,292,2.0,2.7,70,0.00,,---,0.00,VWS V14.01,2013-09-01 21:46:00,
2013-09-01 16:47:00,51.9,42.5,0.00,NW,315,0.0,2.7,70,0.00,,---,0.00,VWS V14.01,2013-09-01 21:47:00,
2013-09-01 16:48:00,51.9,42.5,0.00,NW,315,0.0,2.7,70,0.00,,---,0.00,VWS V14.01,2013-09-01 21:48:00,
2013-09-01 16:50:00,51.9,42.5,0.00,NW,315,0.0,2.7,70,0.00,,---,0.00,VWS V14.01,2013-09-01 21:50:00,
2013-09-01 16:51:00,51.9,42.8,0.00,NW,315,2.0,2.7,71,0.00,,---,0.00,VWS V14.01,2013-09-01 21:51:00,
2013-09-01 16:52:00,51.9,42.8,0.00,NW,315,2.0,2.7,71,0.00,,---,0.00,VWS V14.01,2013-09-01 21:52:00,
2013-09-01 16:53:00,51.9,42.8,0.00,NW,315,1.6,2.7,71,0.00,,---,0.00,VWS V14.01,2013-09-01 21:53:00,
2013-09-01 16:54:00,51.9,42.8,0.00,NW,315,1.3,2.7,71,0.00,,---,0.00,VWS V14.01,2013-09-01 21:54:00,
2013-09-01 16:55:00,51.9,42.8,0.00,NW,315,1.1,2.7,71,0.00,,---,0.00,VWS V14.01,2013-09-01 21:55:00,
2013-09-01 16:56:00,51.9,42.8,0.00,NW,315,1.3,2.7,71,0.00,,---,0.00,VWS V14.01,2013-09-01 21:56:00,
2013-09-01 16:57:00,51.9,42.8,0.00,NW,315,2.5,2.7,71,0.00,,---,0.00,VWS V14.01,2013-09-01 21:57:00,
2013-09-01 16:58:00,51.9,42.8,0.00,NW,315,2.5,2.7,71,0.00,,---,0.00,VWS V14.01,2013-09-01 21:58:00,
2013-09-01 16:59:00,51.9,43.2,0.00,NW,315,1.6,2.7,72,0.00,,---,0.00,VWS V14.01,2013-09-01 21:59:00,
2013-09-01 17:00:00,51.9,43.2,0.00,NW,315,1.3,2.7,72,0.00,,---,0.00,VWS V14.01,2013-09-01 22:00:00,
2013-09-01 17:01:00,51.9,43.2,0.00,NW,315,1.3,1.3,72,0.00,,---,0.00,VWS V14.01,2013-09-01 22:01:00,
2013-09-01 17:02:00,51.9,43.2,0.00,NW,315,1.3,1.3,72,0.00,,---,0.00,VWS V14.01,2013-09-01 22:02:00,
2013-09-01 17:03:00,51.8,43.0,0.00,NW,315,1.6,2.0,72,0.00,,---,0.00,VWS V14.01,2013-09-01 22:03:00,
2013-09-01 17:04:00,51.8,43.0,0.00,NW,315,2.2,2.2,72,0.00,,---,0.00,VWS V14.01,2013-09-01 22:04:00,
2013-09-01 17:06:00,51.8,43.0,0.00,NW,315,2.0,2.5,72,0.00,,---,0.00,VWS V14.01,2013-09-01 22:06:00,
2013-09-01 17:08:00,51.8,43.0,0.00,NW,315,2.2,2.5,72,0.00,,---,0.00,VWS V14.01,2013-09-01 22:08:00,
2013-09-01 17:09:00,51.6,42.9,0.00,NW,315,1.1,2.5,72,0.00,,---,0.00,VWS V14.01,2013-09-01 22:09:00,
2013-09-01 17:10:00,51.6,42.9,0.00,NW,315,1.6,2.5,72,0.00,,---,0.00,VWS V14.01,2013-09-01 22:10:00,
2013-09-01 17:12:00,51.6,42.9,0.00,NW,315,2.2,2.5,72,0.00,,---,0.00,VWS V14.01,2013-09-01 22:12:00,
2013-09-01 17:13:00,51.6,42.9,0.00,NW,315,1.6,2.5,72,0.00,,---,0.00,VWS V14.01,2013-09-01 22:13:00,
2013-09-01 17:14:00,51.8,43.0,0.00,NW,315,2.0,2.5,72,0.00,,---,0.00,VWS V14.01,2013-09-01 22:14:00,
2013-09-01 17:15:00,51.8,43.0,0.00,NW,315,1.6,2.5,72,0.00,,---,0.00,VWS V14.01,2013-09-01 22:15:00,
2013-09-01 17:17:00,51.8,43.0,0.00,NW,315,2.5,2.5,72,0.00,,---,0.00,VWS V14.01,2013-09-01 22:17:00,
2013-09-01 17:18:00,51.8,43.4,0.00,NW,315,2.7,2.7,73,0.00,,---,0.00,VWS V14.01,2013-09-01 22:18:00,
2013-09-01 17:19:00,51.9,43.6,0.00,NW,315,2.9,2.9,73,0.00,,---,0.00,VWS V14.01,2013-09-01 22:19:00,
2013-09-01 17:20:00,51.9,43.6,0.00,NW,315,2.9,2.9,73,0.00,,---,0.00,VWS V14.01,2013-09-01 22:20:00,
2013-09-01 17:21:00,51.9,43.6,0.00,NW,315,2.7,2.9,73,0.00,,---,0.00,VWS V14.01,2013-09-01 22:21:00,
2013-09-01 17:22:00,51.9,43.6,0.00,NW,315,2.9,2.9,73,0.00,,---,0.00,VWS V14.01,2013-09-01 22:22:00,
2013-09-01 17:23:00,51.8,43.4,0.00,NW,315,2.9,2.9,73,0.00,,---,0.00,VWS V14.01,2013-09-01 22:23:00,
2013-09-01 17:24:00,51.8,43.4,0.00,NW,315,3.4,3.4,73,0.00,,---,0.00,VWS V14.01,2013-09-01 22:24:00,
2013-09-01 17:25:00,51.8,43.4,0.00,NW,315,2.9,3.4,73,0.00,,---,0.00,VWS V14.01,2013-09-01 22:25:00,
2013-09-01 17:26:00,51.6,43.2,0.00,North,0,2.7,3.4,73,0.00,,---,0.00,VWS V14.01,2013-09-01 22:26:00,
2013-09-01 17:27:00,51.6,43.2,0.00,NNW,338,2.7,3.4,73,0.00,,---,0.00,VWS V14.01,2013-09-01 22:27:00,
2013-09-01 17:28:00,51.6,43.2,0.00,NW,315,2.9,3.4,73,0.00,,---,0.00,VWS V14.01,2013-09-01 22:28:00,
2013-09-01 17:30:00,51.6,43.2,0.00,NW,315,2.5,3.4,73,0.00,,---,0.00,VWS V14.01,2013-09-01 22:30:00,
2013-09-01 17:31:00,51.8,43.4,0.00,NW,315,2.5,2.5,73,0.00,,---,0.00,VWS V14.01,2013-09-01 22:31:00,
2013-09-01 17:32:00,51.8,43.4,0.00,NW,315,2.5,2.5,73,0.00,,---,0.00,VWS V14.01,2013-09-01 22:32:00,
2013-09-01 17:33:00,51.9,43.6,0.00,NW,315,2.5,2.5,73,0.00,,---,0.00,VWS V14.01,2013-09-01 22:33:00,
2013-09-01 17:34:00,51.9,43.2,0.00,NW,315,2.0,2.5,72,0.00,,---,0.00,VWS V14.01,2013-09-01 22:34:00,
2013-09-01 17:35:00,51.9,43.2,0.00,NW,315,2.2,2.5,72,0.00,,---,0.00,VWS V14.01,2013-09-01 22:35:00,
2013-09-01 17:36:00,51.9,43.2,0.00,NW,315,2.2,2.5,72,0.00,,---,0.00,VWS V14.01,2013-09-01 22:36:00,
2013-09-01 17:37:00,51.9,43.2,0.00,NW,315,2.9,2.9,72,0.00,,---,0.00,VWS V14.01,2013-09-01 22:37:00,
2013-09-01 17:38:00,51.9,43.2,0.00,NW,315,2.2,2.9,72,0.00,,---,0.00,VWS V14.01,2013-09-01 22:38:00,
2013-09-01 17:39:00,51.9,43.2,0.00,NW,315,2.0,2.9,72,0.00,,---,0.00,VWS V14.01,2013-09-01 22:39:00,
2013-09-01 17:40:00,51.9,43.2,0.00,NW,315,2.0,2.9,72,0.00,,---,0.00,VWS V14.01,2013-09-01 22:40:00,
2013-09-01 17:41:00,51.9,43.2,0.00,NW,315,2.5,2.9,72,0.00,,---,0.00,VWS V14.01,2013-09-01 22:41:00,
2013-09-01 17:42:00,51.9,43.2,0.00,NW,315,2.0,2.9,72,0.00,,---,0.00,VWS V14.01,2013-09-01 22:42:00,
2013-09-01 17:43:00,51.9,43.2,0.00,NW,315,2.5,2.9,72,0.00,,---,0.00,VWS V14.01,2013-09-01 22:43:00,
2013-09-01 17:44:00,51.9,43.2,0.00,North,0,2.5,2.9,72,0.00,,---,0.00,VWS V14.01,2013-09-01 22:44:00,
2013-09-01 17:45:00,51.9,43.2,0.00,NNW,338,1.6,2.9,72,0.00,,---,0.00,VWS V14.01,2013-09-01 22:45:00,
2013-09-01 17:46:00,51.8,43.0,0.00,NNW,338,2.5,2.5,72,0.00,,---,0.00,VWS V14.01,2013-09-01 22:46:00,
2013-09-01 17:47:00,51.8,43.0,0.00,NNW,338,1.3,2.5,72,0.00,,---,0.00,VWS V14.01,2013-09-01 22:47:00,
2013-09-01 17:48:00,51.8,43.0,0.00,NNW,338,2.2,2.5,72,0.00,,---,0.00,VWS V14.01,2013-09-01 22:48:00,
2013-09-01 17:49:00,51.6,42.9,0.00,North,0,2.0,2.5,72,0.00,,---,0.00,VWS V14.01,2013-09-01 22:49:00,
2013-09-01 17:51:00,51.6,42.9,0.00,North,0,2.0,2.5,72,0.00,,---,0.00,VWS V14.01,2013-09-01 22:51:00,
2013-09-01 17:52:00,51.6,42.9,0.00,North,0,2.5,2.5,72,0.00,,---,0.00,VWS V14.01,2013-09-01 22:52:00,
2013-09-01 17:53:00,51.6,42.9,0.00,North,0,2.5,2.5,72,0.00,,---,0.00,VWS V14.01,2013-09-01 22:53:00,
2013-09-01 17:54:00,51.6,42.9,0.00,North,0,2.5,2.5,72,0.00,,---,0.00,VWS V14.01,2013-09-01 22:54:00,
2013-09-01 17:55:00,51.6,42.9,0.00,North,0,2.7,2.7,72,0.00,,---,0.00,VWS V14.01,2013-09-01 22:55:00,
2013-09-01 17:56:00,51.4,42.7,0.00,North,0,2.0,2.7,72,0.00,,---,0.00,VWS V14.01,2013-09-01 22:56:00,
2013-09-01 17:57:00,51.4,42.7,0.00,North,0,2.0,2.7,72,0.00,,---,0.00,VWS V14.01,2013-09-01 22:57:00,
2013-09-01 17:58:00,51.4,42.7,0.00,North,0,1.6,2.7,72,0.00,,---,0.00,VWS V14.01,2013-09-01 22:58:00,
2013-09-01 17:59:00,51.4,42.7,0.00,North,0,2.2,2.7,72,0.00,,---,0.00,VWS V14.01,2013-09-01 22:59:00,
2013-09-01 18:00:00,51.4,42.7,0.00,North,0,2.0,2.7,72,0.00,,---,0.00,VWS V14.01,2013-09-01 23:00:00,
2013-09-01 18:02:00,51.4,42.7,0.00,North,0,1.6,2.0,72,0.00,,---,0.00,VWS V14.01,2013-09-01 23:02:00,
2013-09-01 18:03:00,51.4,42.7,0.00,North,0,1.6,2.0,72,0.00,,---,0.00,VWS V14.01,2013-09-01 23:03:00,
2013-09-01 18:04:00,51.6,42.9,0.00,SW,225,1.3,2.0,72,0.00,,---,0.00,VWS V14.01,2013-09-01 23:04:00,
2013-09-01 18:06:00,51.6,42.9,0.00,North,0,0.0,2.0,72,0.00,,---,0.00,VWS V14.01,2013-09-01 23:06:00,
2013-09-01 18:07:00,51.2,42.5,0.00,North,0,0.0,2.0,72,0.00,,---,0.00,VWS V14.01,2013-09-01 23:07:00,
2013-09-01 18:08:00,85.4,38.5,0.00,NW,315,1.3,7.6,19,0.00,,---,0.00,VWS V14.01,2013-09-01 23:08:00,
2013-09-01 18:09:00,51.0,42.3,0.00,North,0,1.6,2.0,72,0.00,,---,0.00,VWS V14.01,2013-09-01 23:09:00,
2013-09-01 18:10:00,50.9,42.2,0.00,North,0,1.6,2.0,72,0.00,,---,0.00,VWS V14.01,2013-09-01 23:10:00,
2013-09-01 18:11:00,50.7,42.0,0.00,NNW,338,1.3,2.0,72,0.00,,---,0.00,VWS V14.01,2013-09-01 23:11:00,
2013-09-01 18:12:00,50.7,42.0,0.00,North,0,0.0,2.0,72,0.00,,---,0.00,VWS V14.01,2013-09-01 23:12:00,
2013-09-01 18:13:00,50.5,42.2,0.00,North,0,0.0,2.0,73,0.00,,---,0.00,VWS V14.01,2013-09-01 23:13:00,
2013-09-01 18:14:00,50.5,42.2,0.00,North,0,0.0,2.0,73,0.00,,---,0.00,VWS V14.01,2013-09-01 23:14:00,
2013-09-01 18:15:00,50.5,42.2,0.00,North,0,0.0,2.0,73,0.00,,---,0.00,VWS V14.01,2013-09-01 23:15:00,
2013-09-01 18:16:00,50.5,42.2,0.00,North,0,0.0,0.0,73,0.00,,---,0.00,VWS V14.01,2013-09-01 23:16:00,
2013-09-01 18:17:00,50.3,42.0,0.00,North,0,0.0,0.0,73,0.00,,---,0.00,VWS V14.01,2013-09-01 23:17:00,
2013-09-01 18:18:00,50.5,42.2,0.00,North,0,0.0,0.0,73,0.00,,---,0.00,VWS V14.01,2013-09-01 23:18:00,
2013-09-01 18:19:00,50.5,42.5,0.00,North,0,0.0,0.0,74,0.00,,---,0.00,VWS V14.01,2013-09-01 23:19:00,
2013-09-01 18:20:00,50.5,42.5,0.00,North,0,0.0,0.0,74,0.00,,---,0.00,VWS V14.01,2013-09-01 23:20:00,
2013-09-01 18:21:00,50.5,42.5,0.00,North,0,0.0,0.0,74,0.00,,---,0.00,VWS V14.01,2013-09-01 23:21:00,
2013-09-01 18:22:00,50.5,42.5,0.00,North,0,0.0,0.0,74,0.00,,---,0.00,VWS V14.01,2013-09-01 23:22:00,
2013-09-01 18:24:00,50.5,42.2,0.00,North,0,0.0,0.0,73,0.00,,---,0.00,VWS V14.01,2013-09-01 23:24:00,
2013-09-01 18:25:00,50.5,42.2,0.00,North,0,0.0,0.0,73,0.00,,---,0.00,VWS V14.01,2013-09-01 23:25:00,
2013-09-01 18:26:00,50.7,42.3,0.00,North,0,0.0,0.0,73,0.00,,---,0.00,VWS V14.01,2013-09-01 23:26:00,
2013-09-01 18:27:00,50.7,42.3,0.00,North,0,0.0,0.0,73,0.00,,---,0.00,VWS V14.01,2013-09-01 23:27:00,
2013-09-01 18:28:00,50.9,42.5,0.00,North,0,0.0,0.0,73,0.00,,---,0.00,VWS V14.01,2013-09-01 23:28:00,
2013-09-01 18:29:00,50.9,42.5,0.00,North,0,0.0,0.0,73,0.00,,---,0.00,VWS V14.01,2013-09-01 23:29:00,
2013-09-01 18:30:00,51.0,42.7,0.00,North,0,0.0,0.0,73,0.00,,---,0.00,VWS V14.01,2013-09-01 23:30:00,
2013-09-01 18:31:00,51.0,42.7,0.00,North,0,0.0,0.0,73,0.00,,---,0.00,VWS V14.01,2013-09-01 23:31:00,
2013-09-01 18:33:00,51.2,42.9,0.00,North,0,0.0,0.0,73,0.00,,---,0.00,VWS V14.01,2013-09-01 23:33:00,
2013-09-01 18:35:00,51.2,42.9,0.00,North,0,0.0,0.0,73,0.00,,---,0.00,VWS V14.01,2013-09-01 23:35:00,
2013-09-01 18:36:00,51.0,42.7,0.00,North,0,0.0,0.0,73,0.00,,---,0.00,VWS V14.01,2013-09-01 23:36:00,
2013-09-01 18:37:00,51.0,42.3,0.00,North,0,0.0,0.0,72,0.00,,---,0.00,VWS V14.01,2013-09-01 23:37:00,
2013-09-01 18:38:00,51.0,42.3,0.00,SW,225,0.0,0.0,72,0.00,,---,0.00,VWS V14.01,2013-09-01 23:38:00,
2013-09-01 18:39:00,50.9,42.5,0.00,SW,225,0.0,0.0,73,0.00,,---,0.00,VWS V14.01,2013-09-01 23:39:00,
2013-09-01 18:40:00,50.9,42.5,0.00,SW,225,0.0,0.0,73,0.00,,---,0.00,VWS V14.01,2013-09-01 23:40:00,
2013-09-01 18:41:00,50.7,42.3,0.00,SW,225,0.0,0.0,73,0.00,,---,0.00,VWS V14.01,2013-09-01 23:41:00,
2013-09-01 18:42:00,50.5,42.2,0.00,NW,315,0.0,0.0,73,0.00,,---,0.00,VWS V14.01,2013-09-01 23:42:00,
2013-09-01 18:43:00,50.5,42.2,0.00,WNW,292,0.0,0.0,73,0.00,,---,0.00,VWS V14.01,2013-09-01 23:43:00,
2013-09-01 18:44:00,50.5,42.5,0.00,NW,315,3.1,3.1,74,0.00,,---,0.00,VWS V14.01,2013-09-01 23:44:00,
2013-09-01 18:45:00,50.5,42.5,0.00,NW,315,3.1,3.1,74,0.00,,---,0.00,VWS V14.01,2013-09-01 23:45:00,
2013-09-01 18:46:00,50.5,42.5,0.00,NW,315,2.5,3.1,74,0.00,,---,0.00,VWS V14.01,2013-09-01 23:46:00,
2013-09-01 18:47:00,50.1,42.5,0.00,NW,315,2.5,3.1,75,0.00,,---,0.00,VWS V14.01,2013-09-01 23:47:00,
2013-09-01 18:48:00,50.0,42.4,0.00,NW,315,1.3,3.1,75,0.00,,---,0.00,VWS V14.01,2013-09-01 23:48:00,
2013-09-01 18:49:00,50.0,42.4,0.00,NW,315,0.0,3.1,75,0.00,,---,0.00,VWS V14.01,2013-09-01 23:49:00,
2013-09-01 18:50:00,49.8,42.2,0.00,NW,315,1.3,3.1,75,0.00,,---,0.00,VWS V14.01,2013-09-01 23:50:00,
2013-09-01 18:51:00,49.6,42.0,0.00,NE,45,2.5,3.1,75,0.00,,---,0.00,VWS V14.01,2013-09-01 23:51:00,
2013-09-01 18:52:00,49.4,41.8,0.00,NE,45,3.1,3.1,75,0.00,,---,0.00,VWS V14.01,2013-09-01 23:52:00,
2013-09-01 18:53:00,49.4,41.8,0.00,NE,45,3.1,3.1,75,0.00,,---,0.00,VWS V14.01,2013-09-01 23:53:00,
2013-09-01 18:54:00,49.4,41.8,0.00,NE,45,2.9,3.1,75,0.00,,---,0.00,VWS V14.01,2013-09-01 23:54:00,
2013-09-01 18:55:00,82.9,37.8,0.00,NE,45,3.4,8.7,20,0.00,,---,0.00,VWS V14.01,2013-09-01 23:55:00,
2013-09-01 18:56:00,49.2,41.7,0.00,NE,45,2.9,3.1,75,0.00,,---,0.00,VWS V14.01,2013-09-01 23:56:00,
2013-09-01 18:57:00,49.2,41.7,0.00,NE,45,2.9,3.1,75,0.00,,---,0.00,VWS V14.01,2013-09-01 23:57:00,
2013-09-01 18:58:00,49.2,41.7,0.00,NE,45,2.9,3.1,75,0.00,,---,0.00,VWS V14.01,2013-09-01 23:58:00,
2013-09-01 18:59:00,49.4,42.2,0.00,NE,45,2.9,3.1,76,0.00,,---,0.00,VWS V14.01,2013-09-01 23:59:00,
2013-09-01 19:00:00,49.4,42.2,0.00,NE,45,2.7,3.1,76,0.00,,---,0.00,VWS V14.01,2013-09-02 00:00:00,
2013-09-01 19:01:00,49.4,42.2,0.00,NE,45,2.2,2.7,76,0.00,,---,0.00,VWS V14.01,2013-09-02 00:01:00,
2013-09-01 19:02:00,49.4,42.2,0.00,NE,45,2.0,2.7,76,0.00,,---,0.00,VWS V14.01,2013-09-02 00:02:00,
2013-09-01 19:03:00,49.6,42.0,0.00,NE,45,1.6,2.7,75,0.00,,---,0.00,VWS V14.01,2013-09-02 00:03:00,
2013-09-01 19:04:00,49.6,42.0,0.00,NE,45,0.0,2.7,75,0.00,,---,0.00,VWS V14.01,2013-09-02 00:04:00,
2013-09-01 19:05:00,49.6,42.0,0.00,NE,45,0.0,2.7,75,0.00,,---,0.00,VWS V14.01,2013-09-02 00:05:00,
2013-09-01 19:06:00,49.6,42.0,0.00,NE,45,0.0,2.7,75,0.00,,---,0.00,VWS V14.01,2013-09-02 00:06:00,
2013-09-01 19:07:00,49.6,42.0,0.00,NE,45,0.0,2.7,75,0.00,,---,0.00,VWS V14.01,2013-09-02 00:07:00,
2013-09-01 19:08:00,49.6,42.0,0.00,NE,45,0.0,2.7,75,0.00,,---,0.00,VWS V14.01,2013-09-02 00:08:00,
2013-09-01 19:09:00,49.6,42.0,0.00,NE,45,0.0,2.7,75,0.00,,---,0.00,VWS V14.01,2013-09-02 00:09:00,
2013-09-01 19:11:00,49.4,41.8,0.00,NE,45,0.0,2.7,75,0.00,,---,0.00,VWS V14.01,2013-09-02 00:11:00,
2013-09-01 19:12:00,49.4,41.8,0.00,NE,45,0.0,2.7,75,0.00,,---,0.00,VWS V14.01,2013-09-02 00:12:00,
2013-09-01 19:13:00,49.4,41.8,0.00,NE,45,0.0,2.7,75,0.00,,---,0.00,VWS V14.01,2013-09-02 00:13:00,
2013-09-01 19:14:00,49.4,41.8,0.00,NE,45,0.0,2.7,75,0.00,,---,0.00,VWS V14.01,2013-09-02 00:14:00,
2013-09-01 19:15:00,49.4,41.8,0.00,NE,45,0.0,2.7,75,0.00,,---,0.00,VWS V14.01,2013-09-02 00:15:00,
2013-09-01 19:16:00,49.4,41.8,0.00,NE,45,0.0,0.0,75,0.00,,---,0.00,VWS V14.01,2013-09-02 00:16:00,
2013-09-01 19:17:00,49.4,41.8,0.00,NE,45,0.0,0.0,75,0.00,,---,0.00,VWS V14.01,2013-09-02 00:17:00,
2013-09-01 19:18:00,49.6,42.0,0.00,NE,45,0.0,0.0,75,0.00,,---,0.00,VWS V14.01,2013-09-02 00:18:00,
2013-09-01 19:19:00,49.6,42.0,0.00,NE,45,0.0,0.0,75,0.00,,---,0.00,VWS V14.01,2013-09-02 00:19:00,
2013-09-01 19:20:00,49.6,42.0,0.00,NE,45,0.0,0.0,75,0.00,,---,0.00,VWS V14.01,2013-09-02 00:20:00,
2013-09-01 19:22:00,49.6,42.0,0.00,NE,45,0.0,0.0,75,0.00,,---,0.00,VWS V14.01,2013-09-02 00:22:00,
2013-09-01 19:23:00,49.6,42.4,0.00,NE,45,0.0,0.0,76,0.00,,---,0.00,VWS V14.01,2013-09-02 00:23:00,
2013-09-01 19:24:00,49.6,42.4,0.00,NE,45,0.0,0.0,76,0.00,,---,0.00,VWS V14.01,2013-09-02 00:24:00,
2013-09-01 19:25:00,49.6,42.4,0.00,NE,45,0.0,0.0,76,0.00,,---,0.00,VWS V14.01,2013-09-02 00:25:00,
2013-09-01 19:26:00,49.6,42.4,0.00,NE,45,0.0,0.0,76,0.00,,---,0.00,VWS V14.01,2013-09-02 00:26:00,
2013-09-01 19:27:00,49.8,42.2,0.00,NE,45,0.0,0.0,75,0.00,,---,0.00,VWS V14.01,2013-09-02 00:27:00,
2013-09-01 19:29:00,50.0,42.7,0.00,NE,45,0.0,0.0,76,0.00,,---,0.00,VWS V14.01,2013-09-02 00:29:00,
2013-09-01 19:30:00,50.0,42.4,0.00,NE,45,0.0,0.0,75,0.00,,---,0.00,VWS V14.01,2013-09-02 00:30:00,
2013-09-01 19:31:00,50.0,42.4,0.00,NE,45,0.0,0.0,75,0.00,,---,0.00,VWS V14.01,2013-09-02 00:31:00,
2013-09-01 19:33:00,50.0,42.4,0.00,NE,45,0.0,0.0,75,0.00,,---,0.00,VWS V14.01,2013-09-02 00:33:00,
2013-09-01 19:34:00,50.0,42.4,0.00,NE,45,0.0,0.0,75,0.00,,---,0.00,VWS V14.01,2013-09-02 00:34:00,
2013-09-01 19:35:00,50.5,43.2,0.00,NE,45,0.0,0.0,76,0.00,,---,0.00,VWS V14.01,2013-09-02 00:35:00,
2013-09-01 19:36:00,50.9,43.6,0.00,NE,45,0.0,0.0,76,0.00,,---,0.00,VWS V14.01,2013-09-02 00:36:00,
2013-09-01 19:37:00,51.0,43.8,0.00,NE,45,0.0,0.0,76,0.00,,---,0.00,VWS V14.01,2013-09-02 00:37:00,
2013-09-01 19:38:00,51.2,43.9,0.00,NE,45,0.0,0.0,76,0.00,,---,0.00,VWS V14.01,2013-09-02 00:38:00,
2013-09-01 19:39:00,51.6,43.9,0.00,NE,45,0.0,0.0,75,0.00,,---,0.00,VWS V14.01,2013-09-02 00:39:00,
2013-09-01 19:40:00,51.8,44.1,0.00,NE,45,0.0,0.0,75,0.00,,---,0.00,VWS V14.01,2013-09-02 00:40:00,
2013-09-01 19:41:00,51.9,44.3,0.00,NE,45,0.0,0.0,75,0.00,,---,0.00,VWS V14.01,2013-09-02 00:41:00,
2013-09-01 19:42:00,52.5,44.8,0.00,NE,45,0.0,0.0,75,0.00,,---,0.00,VWS V14.01,2013-09-02 00:42:00,
2013-09-01 19:43:00,52.7,45.0,0.00,NE,45,0.0,0.0,75,0.00,,---,0.00,VWS V14.01,2013-09-02 00:43:00,
2013-09-01 19:44:00,52.8,45.2,0.00,NE,45,0.0,0.0,75,0.00,,---,0.00,VWS V14.01,2013-09-02 00:44:00,
2013-09-01 19:45:00,53.0,45.3,0.00,NE,45,0.0,0.0,75,0.00,,---,0.00,VWS V14.01,2013-09-02 00:45:00,
2013-09-01 19:46:00,53.2,45.1,0.00,West,270,0.0,0.9,74,0.00,,---,0.00,VWS V14.01,2013-09-02 00:46:00,
2013-09-01 19:47:00,53.2,45.1,0.00,West,270,0.0,0.9,74,0.00,,---,0.00,VWS V14.01,2013-09-02 00:47:00,
2013-09-01 19:48:00,53.2,45.1,0.00,West,270,0.0,0.9,74,0.00,,---,0.00,VWS V14.01,2013-09-02 00:48:00,
2013-09-01 19:49:00,53.9,45.8,0.00,West,270,0.0,0.9,74,0.00,,---,0.00,VWS V14.01,2013-09-02 00:49:00,
2013-09-01 19:50:00,54.5,46.0,0.00,West,270,0.0,0.9,73,0.00,,---,0.00,VWS V14.01,2013-09-02 00:50:00,
2013-09-01 19:51:00,54.6,46.2,0.00,West,270,0.0,0.9,73,0.00,,---,0.00,VWS V14.01,2013-09-02 00:51:00,
2013-09-01 19:52:00,54.8,46.3,0.00,West,270,0.0,0.9,73,0.00,,---,0.00,VWS V14.01,2013-09-02 00:52:00,
2013-09-01 19:53:00,55.2,46.3,0.00,West,270,0.0,0.9,72,0.00,,---,0.00,VWS V14.01,2013-09-02 00:53:00,
2013-09-01 19:54:00,55.2,46.3,0.00,West,270,0.0,0.9,72,0.00,,---,0.00,VWS V14.01,2013-09-02 00:54:00,
2013-09-01 19:55:00,55.5,46.7,0.00,West,270,0.0,0.9,72,0.00,,---,0.00,VWS V14.01,2013-09-02 00:55:00,
2013-09-01 19:56:00,55.7,46.5,0.00,West,270,0.0,0.9,71,0.00,,---,0.00,VWS V14.01,2013-09-02 00:56:00,
2013-09-01 19:57:00,56.1,46.8,0.00,West,270,0.0,0.9,71,0.00,,---,0.00,VWS V14.01,2013-09-02 00:57:00,
2013-09-01 19:58:00,56.4,46.8,0.00,West,270,0.0,0.9,70,0.00,,---,0.00,VWS V14.01,2013-09-02 00:58:00,
2013-09-01 20:00:00,56.8,47.1,0.00,West,270,0.0,0.9,70,0.00,,---,0.00,VWS V14.01,2013-09-02 01:00:00,
2013-09-01 20:01:00,57.3,47.3,0.00,West,270,0.0,0.0,69,0.00,,---,0.00,VWS V14.01,2013-09-02 01:01:00,
2013-09-01 20:02:00,57.7,47.6,0.00,West,270,0.0,0.0,69,0.00,,---,0.00,VWS V14.01,2013-09-02 01:02:00,
2013-09-01 20:03:00,57.7,47.6,0.00,West,270,0.0,0.0,69,0.00,,---,0.00,VWS V14.01,2013-09-02 01:03:00,
2013-09-01 20:04:00,58.1,47.2,0.00,West,270,0.0,0.0,67,0.00,,---,0.00,VWS V14.01,2013-09-02 01:04:00,
2013-09-01 20:05:00,58.2,47.3,0.00,SSW,202,0.0,0.0,67,0.00,,---,0.00,VWS V14.01,2013-09-02 01:05:00,
2013-09-01 20:06:00,58.6,46.9,0.00,South,180,0.0,0.0,65,0.00,,---,0.00,VWS V14.01,2013-09-02 01:06:00,
2013-09-01 20:07:00,58.6,46.5,0.00,SW,225,0.0,0.9,64,0.00,,---,0.00,VWS V14.01,2013-09-02 01:07:00,
2013-09-01 20:09:00,58.8,46.7,0.00,SW,225,0.0,0.9,64,0.00,,---,0.00,VWS V14.01,2013-09-02 01:09:00,
2013-09-01 20:10:00,59.1,47.0,0.00,SW,225,0.0,0.9,64,0.00,,---,0.00,VWS V14.01,2013-09-02 01:10:00,
2013-09-01 20:12:00,59.3,46.7,0.00,SW,225,0.0,0.9,63,0.00,,---,0.00,VWS V14.01,2013-09-02 01:12:00,
2013-09-01 20:13:00,60.0,47.0,0.00,SW,225,0.0,0.9,62,0.00,,---,0.00,VWS V14.01,2013-09-02 01:13:00,
2013-09-01 20:14:00,60.2,46.7,0.00,SW,225,0.0,0.9,61,0.00,,---,0.00,VWS V14.01,2013-09-02 01:14:00,
2013-09-01 20:16:00,60.4,46.9,0.00,SW,225,0.0,0.9,61,0.00,,---,0.00,VWS V14.01,2013-09-02 01:16:00,
2013-09-01 20:17:00,60.4,46.9,0.00,SW,225,0.0,0.9,61,0.00,,---,0.00,VWS V14.01,2013-09-02 01:17:00,
2013-09-01 20:18:00,60.4,46.9,0.00,SW,225,0.0,0.9,61,0.00,,---,0.00,VWS V14.01,2013-09-02 01:18:00,
2013-09-01 20:19:00,61.1,46.7,0.00,SW,225,0.0,0.9,59,0.00,,---,0.00,VWS V14.01,2013-09-02 01:19:00,
2013-09-01 20:20:00,61.3,46.9,0.00,South,180,0.0,0.9,59,0.00,,---,0.00,VWS V14.01,2013-09-02 01:20:00,
2013-09-01 20:21:00,61.8,47.4,0.00,SE,135,0.0,0.9,59,0.00,,---,0.00,VWS V14.01,2013-09-02 01:21:00,
2013-09-01 20:22:00,62.0,47.5,0.00,SW,225,0.0,0.9,59,0.00,,---,0.00,VWS V14.01,2013-09-02 01:22:00,
2013-09-01 20:23:00,62.2,46.8,0.00,SW,225,0.9,0.9,57,0.00,,---,0.00,VWS V14.01,2013-09-02 01:23:00,
2013-09-01 20:24:00,62.4,47.4,0.00,SW,225,0.0,0.9,58,0.00,,---,0.00,VWS V14.01,2013-09-02 01:24:00,
2013-09-01 20:25:00,62.6,47.1,0.00,SW,225,0.0,0.9,57,0.00,,---,0.00,VWS V14.01,2013-09-02 01:25:00,
2013-09-01 20:26:00,62.7,47.3,0.00,SW,225,0.0,0.9,57,0.00,,---,0.00,VWS V14.01,2013-09-02 01:26:00,
2013-09-01 20:27:00,62.9,47.0,0.00,SE,135,0.0,0.9,56,0.00,,---,0.00,VWS V14.01,2013-09-02 01:27:00,
2013-09-01 20:28:00,63.1,47.6,0.00,SE,135,0.0,0.9,57,0.00,,---,0.00,VWS V14.01,2013-09-02 01:28:00,
2013-09-01 20:29:00,63.3,47.3,0.00,South,180,0.9,0.9,56,0.00,,---,0.00,VWS V14.01,2013-09-02 01:29:00,
2013-09-01 20:30:00,63.3,47.3,0.00,South,180,0.0,0.9,56,0.00,,---,0.00,VWS V14.01,2013-09-02 01:30:00,
2013-09-01 20:31:00,63.3,47.3,0.00,South,180,0.0,0.0,56,0.00,,---,0.00,VWS V14.01,2013-09-02 01:31:00,
2013-09-01 20:33:00,63.8,47.4,0.00,South,180,0.0,0.0,55,0.00,,---,0.00,VWS V14.01,2013-09-02 01:33:00,
2013-09-01 20:34:00,64.2,47.7,0.00,South,180,0.0,0.0,55,0.00,,---,0.00,VWS V14.01,2013-09-02 01:34:00,
2013-09-01 20:35:00,64.5,47.5,0.00,South,180,0.0,0.0,54,0.00,,---,0.00,VWS V14.01,2013-09-02 01:35:00,
2013-09-01 20:36:00,64.5,47.5,0.00,SSE,158,0.0,0.0,54,0.00,,---,0.00,VWS V14.01,2013-09-02 01:36:00,
2013-09-01 20:37:00,64.9,47.4,0.00,SSE,158,2.5,2.5,53,0.00,,---,0.00,VWS V14.01,2013-09-02 01:37:00,
2013-09-01 20:38:00,64.9,46.9,0.00,SSE,158,1.3,2.5,52,0.00,,---,0.00,VWS V14.01,2013-09-02 01:38:00,
2013-09-01 20:39:00,64.9,46.9,0.00,SSE,158,1.3,2.5,52,0.00,,---,0.00,VWS V14.01,2013-09-02 01:39:00,
2013-09-01 20:40:00,65.1,47.5,0.00,SSE,158,1.3,2.5,53,0.00,,---,0.00,VWS V14.01,2013-09-02 01:40:00,
2013-09-01 20:41:00,65.1,47.0,0.00,SSE,158,2.2,2.7,52,0.00,,---,0.00,VWS V14.01,2013-09-02 01:41:00,
2013-09-01 20:42:00,65.3,47.2,0.00,SSE,158,2.5,2.7,52,0.00,,---,0.00,VWS V14.01,2013-09-02 01:42:00,
2013-09-01 20:43:00,65.3,46.7,0.00,South,180,1.6,2.7,51,0.00,,---,0.00,VWS V14.01,2013-09-02 01:43:00,
2013-09-01 20:44:00,65.3,46.7,0.00,South,180,2.0,2.7,51,0.00,,---,0.00,VWS V14.01,2013-09-02 01:44:00,
2013-09-01 20:45:00,65.3,46.7,0.00,South,180,1.1,2.7,51,0.00,,---,0.00,VWS V14.01,2013-09-02 01:45:00,
2013-09-01 20:46:00,65.4,46.9,0.00,South,180,1.3,1.3,51,0.00,,---,0.00,VWS V14.01,2013-09-02 01:46:00,
2013-09-01 20:47:00,65.4,46.9,0.00,South,180,1.6,2.2,51,0.00,,---,0.00,VWS V14.01,2013-09-02 01:47:00,
2013-09-01 20:48:00,65.6,47.0,0.00,South,180,1.1,2.2,51,0.00,,---,0.00,VWS V14.01,2013-09-02 01:48:00,
2013-09-01 20:49:00,65.6,47.0,0.00,SE,135,1.3,2.7,51,0.00,,---,0.00,VWS V14.01,2013-09-02 01:49:00,
2013-09-01 20:50:00,66.0,46.8,0.00,SE,135,1.6,2.7,50,0.00,,---,0.00,VWS V14.01,2013-09-02 01:50:00,
2013-09-01 20:51:00,66.0,46.8,0.00,SE,135,1.3,2.9,50,0.00,,---,0.00,VWS V14.01,2013-09-02 01:51:00,
2013-09-01 20:52:00,66.0,46.8,0.00,SE,135,2.0,2.9,50,0.00,,---,0.00,VWS V14.01,2013-09-02 01:52:00,
2013-09-01 20:53:00,66.3,47.2,0.00,East,90,1.3,2.9,50,0.00,,---,0.00,VWS V14.01,2013-09-02 01:53:00,
2013-09-01 20:54:00,66.5,47.3,0.00,South,180,1.3,2.9,50,0.00,,---,0.00,VWS V14.01,2013-09-02 01:54:00,
2013-09-01 20:55:00,66.5,46.8,0.00,South,180,1.3,2.9,49,0.00,,---,0.00,VWS V14.01,2013-09-02 01:55:00,
2013-09-01 20:56:00,66.5,46.8,0.00,SE,135,2.2,2.9,49,0.00,,---,0.00,VWS V14.01,2013-09-02 01:56:00,
2013-09-01 20:57:00,66.2,46.5,0.00,SE,135,2.5,2.9,49,0.00,,---,0.00,VWS V14.01,2013-09-02 01:57:00,
2013-09-01 20:58:00,67.6,39.7,0.00,North,0,4.0,4.3,36,0.00,,---,0.00,VWS V14.01,2013-09-02 01:58:00,
2013-09-01 20:59:00,66.0,45.8,0.00,SE,135,3.1,3.6,48,0.00,,---,0.00,VWS V14.01,2013-09-02 01:59:00,
2013-09-01 21:00:00,66.0,45.8,0.00,SE,135,3.1,3.6,48,0.00,,---,0.00,VWS V14.01,2013-09-02 02:00:00,
2013-09-01 21:01:00,66.0,45.8,0.00,SE,135,3.1,3.1,48,0.00,,---,0.00,VWS V14.01,2013-09-02 02:01:00,
2013-09-01 21:02:00,66.3,46.1,0.00,South,180,2.9,3.1,48,0.00,,---,0.00,VWS V14.01,2013-09-02 02:02:00,
2013-09-01 21:03:00,66.5,46.2,0.00,South,180,2.5,3.1,48,0.00,,---,0.00,VWS V14.01,2013-09-02 02:03:00,
2013-09-01 21:04:00,66.7,46.4,0.00,South,180,3.1,3.1,48,0.00,,---,0.00,VWS V14.01,2013-09-02 02:04:00,
2013-09-01 21:05:00,66.9,47.1,0.00,SE,135,2.7,3.1,49,0.00,,---,0.00,VWS V14.01,2013-09-02 02:05:00,
2013-09-01 21:06:00,66.9,46.6,0.00,SSE,158,3.1,3.1,48,0.00,,---,0.00,VWS V14.01,2013-09-02 02:06:00,
2013-09-01 21:07:00,66.9,46.6,0.00,South,180,2.7,3.1,48,0.00,,---,0.00,VWS V14.01,2013-09-02 02:07:00,
2013-09-01 21:08:00,67.1,46.7,0.00,SE,135,2.5,3.8,48,0.00,,---,0.00,VWS V14.01,2013-09-02 02:08:00,
2013-09-01 21:09:00,67.2,46.9,0.00,SE,135,2.2,3.8,48,0.00,,---,0.00,VWS V14.01,2013-09-02 02:09:00,
2013-09-01 21:10:00,67.2,46.9,0.00,SE,135,1.6,3.8,48,0.00,,---,0.00,VWS V14.01,2013-09-02 02:10:00,
2013-09-01 21:11:00,67.2,46.9,0.00,South,180,2.2,3.8,48,0.00,,---,0.00,VWS V14.01,2013-09-02 02:11:00,
2013-09-01 21:12:00,67.2,46.9,0.00,South,180,2.7,3.8,48,0.00,,---,0.00,VWS V14.01,2013-09-02 02:12:00,
2013-09-01 21:13:00,67.2,46.9,0.00,SE,135,3.4,3.8,48,0.00,,---,0.00,VWS V14.01,2013-09-02 02:13:00,
2013-09-01 21:14:00,67.8,47.4,0.00,SSE,158,3.6,3.8,48,0.00,,---,0.00,VWS V14.01,2013-09-02 02:14:00,
2013-09-01 21:15:00,68.3,47.3,0.00,South,180,2.5,3.8,47,0.00,,---,0.00,VWS V14.01,2013-09-02 02:15:00,
2013-09-01 21:16:00,68.3,47.3,0.00,SSE,158,3.6,3.6,47,0.00,,---,0.00,VWS V14.01,2013-09-02 02:16:00,
2013-09-01 21:18:00,68.3,47.3,0.00,SSE,158,3.6,3.6,47,0.00,,---,0.00,VWS V14.01,2013-09-02 02:18:00,
2013-09-01 21:19:00,68.9,47.2,0.00,SE,135,2.9,4.0,46,0.00,,---,0.00,VWS V14.01,2013-09-02 02:19:00,
2013-09-01 21:20:00,68.9,47.2,0.00,SE,135,3.8,4.0,46,0.00,,---,0.00,VWS V14.01,2013-09-02 02:20:00,
2013-09-01 21:21:00,68.3,46.8,0.00,SSE,158,4.7,4.7,46,0.00,,---,0.00,VWS V14.01,2013-09-02 02:21:00,
2013-09-01 21:22:00,68.1,46.0,0.00,SSE,158,3.4,4.7,45,0.00,,---,0.00,VWS V14.01,2013-09-02 02:22:00,
2013-09-01 21:23:00,68.0,46.4,0.00,South,180,3.6,4.7,46,0.00,,---,0.00,VWS V14.01,2013-09-02 02:23:00,
2013-09-01 21:24:00,67.8,45.7,0.00,South,180,3.4,4.7,45,0.00,,---,0.00,VWS V14.01,2013-09-02 02:24:00,
2013-09-01 21:25:00,67.6,45.5,0.00,SSE,158,4.9,4.9,45,0.00,,---,0.00,VWS V14.01,2013-09-02 02:25:00,
2013-09-01 21:26:00,67.6,45.5,0.00,South,180,3.4,4.9,45,0.00,,---,0.00,VWS V14.01,2013-09-02 02:26:00,
2013-09-01 21:27:00,68.0,46.4,0.00,South,180,3.8,4.9,46,0.00,,---,0.00,VWS V14.01,2013-09-02 02:27:00,
2013-09-01 21:28:00,68.0,46.4,0.00,South,180,2.5,4.9,46,0.00,,---,0.00,VWS V14.01,2013-09-02 02:28:00,
2013-09-01 21:29:00,68.1,46.6,0.00,South,180,3.4,4.9,46,0.00,,---,0.00,VWS V14.01,2013-09-02 02:29:00,
2013-09-01 21:30:00,68.1,46.6,0.00,South,180,3.6,4.9,46,0.00,,---,0.00,VWS V14.01,2013-09-02 02:30:00,
2013-09-01 21:31:00,68.1,46.6,0.00,South,180,4.5,4.5,46,0.00,,---,0.00,VWS V14.01,2013-09-02 02:31:00,
2013-09-01 21:32:00,68.7,46.5,0.00,SE,135,2.7,4.5,45,0.00,,---,0.00,VWS V14.01,2013-09-02 02:32:00,
2013-09-01 21:33:00,69.0,46.8,0.00,South,180,2.7,4.5,45,0.00,,---,0.00,VWS V14.01,2013-09-02 02:33:00,
2013-09-01 21:34:00,69.4,47.2,0.00,SSE,158,3.6,4.5,45,0.00,,---,0.00,VWS V14.01,2013-09-02 02:34:00,
2013-09-01 21:35:00,69.8,46.9,0.00,SE,135,4.3,4.5,44,0.00,,---,0.00,VWS V14.01,2013-09-02 02:35:00,
2013-09-01 21:36:00,70.1,47.2,0.00,SSE,158,2.7,4.5,44,0.00,,---,0.00,VWS V14.01,2013-09-02 02:36:00,
2013-09-01 21:37:00,70.3,47.4,0.00,SE,135,3.8,4.5,44,0.00,,---,0.00,VWS V14.01,2013-09-02 02:37:00,
2013-09-01 21:38:00,70.5,47.5,0.00,SE,135,4.3,4.5,44,0.00,,---,0.00,VWS V14.01,2013-09-02 02:38:00,
2013-09-01 21:39:00,70.5,47.5,0.00,SE,135,4.7,4.7,44,0.00,,---,0.00,VWS V14.01,2013-09-02 02:39:00,
2013-09-01 21:40:00,70.5,47.5,0.00,SSE,158,4.9,4.9,44,0.00,,---,0.00,VWS V14.01,2013-09-02 02:40:00,
2013-09-01 21:41:00,70.5,47.5,0.00,South,180,6.3,6.3,44,0.00,,---,0.00,VWS V14.01,2013-09-02 02:41:00,
2013-09-01 21:42:00,71.0,47.4,0.00,South,180,4.3,6.3,43,0.00,,---,0.00,VWS V14.01,2013-09-02 02:42:00,
2013-09-01 21:43:00,70.8,46.6,0.00,South,180,4.7,6.3,42,0.00,,---,0.00,VWS V14.01,2013-09-02 02:43:00,
2013-09-01 21:44:00,71.0,46.8,0.00,SSE,158,5.6,6.3,42,0.00,,---,0.00,VWS V14.01,2013-09-02 02:44:00,
2013-09-01 21:45:00,71.2,47.0,0.00,South,180,6.5,6.5,42,0.00,,---,0.00,VWS V14.01,2013-09-02 02:45:00,
2013-09-01 21:46:00,71.0,46.8,0.00,South,180,5.6,6.5,42,0.00,,---,0.00,VWS V14.01,2013-09-02 02:46:00,
2013-09-01 21:47:00,71.0,46.8,0.00,SSE,158,6.3,6.5,42,0.00,,---,0.00,VWS V14.01,2013-09-02 02:47:00,
2013-09-01 21:48:00,71.2,46.3,0.00,South,180,5.4,6.5,41,0.00,,---,0.00,VWS V14.01,2013-09-02 02:48:00,
2013-09-01 21:49:00,71.2,46.3,0.00,SE,135,8.5,8.5,41,0.00,,---,0.00,VWS V14.01,2013-09-02 02:49:00,
2013-09-01 21:50:00,71.4,46.5,0.00,South,180,6.3,8.5,41,0.00,,---,0.00,VWS V14.01,2013-09-02 02:50:00,
2013-09-01 21:51:00,71.6,46.0,0.00,SE,135,5.8,8.5,40,0.00,,---,0.00,VWS V14.01,2013-09-02 02:51:00,
2013-09-01 21:52:00,71.6,46.0,0.00,SE,135,5.8,8.5,40,0.00,,---,0.00,VWS V14.01,2013-09-02 02:52:00,
2013-09-01 21:53:00,72.3,46.6,0.00,SE,135,4.9,8.5,40,0.00,,---,0.00,VWS V14.01,2013-09-02 02:53:00,
2013-09-01 21:54:00,72.5,46.8,0.00,SE,135,6.0,8.5,40,0.00,,---,0.00,VWS V14.01,2013-09-02 02:54:00,
2013-09-01 21:55:00,72.6,47.0,0.00,SSE,158,3.8,8.5,40,0.00,,---,0.00,VWS V14.01,2013-09-02 02:55:00,
2013-09-01 21:56:00,72.8,47.1,0.00,South,180,5.8,8.5,40,0.00,,---,0.00,VWS V14.01,2013-09-02 02:56:00,
2013-09-01 21:57:00,72.6,47.0,0.00,SE,135,3.6,8.5,40,0.00,,---,0.00,VWS V14.01,2013-09-02 02:57:00,
2013-09-01 21:58:00,72.8,47.8,0.00,SE,135,4.9,8.5,41,0.00,,---,0.00,VWS V14.01,2013-09-02 02:58:00,
2013-09-01 21:59:00,73.2,47.4,0.00,SE,135,5.8,8.5,40,0.00,,---,0.00,VWS V14.01,2013-09-02 02:59:00,
2013-09-01 22:01:00,73.5,47.1,0.00,South,180,6.3,8.5,39,0.00,,---,0.00,VWS V14.01,2013-09-02 03:01:00,
2013-09-01 22:02:00,73.7,47.2,0.00,SE,135,6.3,8.5,39,0.00,,---,0.00,VWS V14.01,2013-09-02 03:02:00,
2013-09-01 22:05:00,74.1,47.6,0.00,SE,135,4.3,8.5,39,0.00,,---,0.00,VWS V14.01,2013-09-02 03:05:00,
2013-09-01 22:06:00,74.1,47.6,0.00,SE,135,7.2,8.5,39,0.00,,---,0.00,VWS V14.01,2013-09-02 03:06:00,
2013-09-01 22:07:00,74.4,47.2,0.00,SE,135,5.4,8.5,38,0.00,,---,0.00,VWS V14.01,2013-09-02 03:07:00,
2013-09-01 22:08:00,74.6,47.4,0.00,SE,135,3.6,8.5,38,0.00,,---,0.00,VWS V14.01,2013-09-02 03:08:00,
2013-09-01 22:09:00,74.8,47.5,0.00,South,180,7.2,8.5,38,0.00,,---,0.00,VWS V14.01,2013-09-02 03:09:00,
2013-09-01 22:10:00,75.0,47.0,0.00,South,180,4.9,8.5,37,0.00,,---,0.00,VWS V14.01,2013-09-02 03:10:00,
2013-09-01 22:11:00,75.0,47.7,0.00,South,180,5.4,8.5,38,0.00,,---,0.00,VWS V14.01,2013-09-02 03:11:00,
2013-09-01 22:12:00,75.0,47.7,0.00,South,180,5.4,8.5,38,0.00,,---,0.00,VWS V14.01,2013-09-02 03:12:00,
2013-09-01 22:13:00,75.0,47.7,0.00,SSE,158,7.6,8.5,38,0.00,,---,0.00,VWS V14.01,2013-09-02 03:13:00,
2013-09-01 22:15:00,75.7,47.6,0.00,SE,135,4.9,8.5,37,0.00,,---,0.00,VWS V14.01,2013-09-02 03:15:00,
2013-09-01 22:16:00,75.7,47.6,0.00,South,180,8.5,8.5,37,0.00,,---,0.00,VWS V14.01,2013-09-02 03:16:00,
2013-09-01 22:17:00,75.7,47.6,0.00,South,180,3.8,8.5,37,0.00,,---,0.00,VWS V14.01,2013-09-02 03:17:00,
2013-09-01 22:18:00,75.9,47.8,0.00,SE,135,6.3,8.5,37,0.00,,---,0.00,VWS V14.01,2013-09-02 03:18:00,
2013-09-01 22:19:00,76.1,47.9,0.00,SE,135,7.6,8.5,37,0.00,,---,0.00,VWS V14.01,2013-09-02 03:19:00,
2013-09-01 22:20:00,76.2,48.1,0.00,SE,135,4.5,8.5,37,0.00,,---,0.00,VWS V14.01,2013-09-02 03:20:00,
2013-09-01 22:22:00,76.4,48.2,0.00,SE,135,3.8,8.5,37,0.00,,---,0.00,VWS V14.01,2013-09-02 03:22:00,
2013-09-01 22:23:00,76.4,48.2,0.00,SE,135,5.8,8.5,37,0.00,,---,0.00,VWS V14.01,2013-09-02 03:23:00,
2013-09-01 22:25:00,76.6,47.7,0.00,SE,135,6.0,8.5,36,0.00,,---,0.00,VWS V14.01,2013-09-02 03:25:00,
2013-09-01 22:26:00,77.0,48.0,0.00,SE,135,8.1,8.5,36,0.00,,---,0.00,VWS V14.01,2013-09-02 03:26:00,
2013-09-01 22:27:00,77.3,48.3,0.00,SSE,158,6.0,8.7,36,0.00,,---,0.00,VWS V14.01,2013-09-02 03:27:00,
2013-09-01 22:28:00,77.5,48.5,0.00,SSE,158,3.1,8.7,36,0.00,,---,0.00,VWS V14.01,2013-09-02 03:28:00,
2013-09-01 22:29:00,77.9,48.8,0.00,SE,135,4.3,8.7,36,0.00,,---,0.00,VWS V14.01,2013-09-02 03:29:00,
2013-09-01 22:30:00,77.9,48.8,0.00,South,180,6.0,6.0,36,0.00,,---,0.00,VWS V14.01,2013-09-02 03:30:00,
2013-09-01 22:31:00,77.9,48.0,0.00,South,180,6.0,6.0,35,0.00,,---,0.00,VWS V14.01,2013-09-02 03:31:00,
2013-09-01 22:33:00,77.9,48.0,0.00,SW,225,5.4,6.7,35,0.00,,---,0.00,VWS V14.01,2013-09-02 03:33:00,
2013-09-01 22:34:00,77.9,48.0,0.00,South,180,4.0,6.7,35,0.00,,---,0.00,VWS V14.01,2013-09-02 03:34:00,
2013-09-01 22:35:00,78.0,48.2,0.00,SE,135,4.3,7.6,35,0.00,,---,0.00,VWS V14.01,2013-09-02 03:35:00,
2013-09-01 22:36:00,78.2,48.3,0.00,SSE,158,6.0,7.6,35,0.00,,---,0.00,VWS V14.01,2013-09-02 03:36:00,
2013-09-01 22:37:00,78.6,47.9,0.00,South,180,6.3,7.6,34,0.00,,---,0.00,VWS V14.01,2013-09-02 03:37:00,
2013-09-01 22:38:00,78.6,47.9,0.00,SSE,158,6.3,7.6,34,0.00,,---,0.00,VWS V14.01,2013-09-02 03:38:00,
2013-09-01 22:40:00,78.9,48.2,0.00,South,180,7.8,7.8,34,0.00,,---,0.00,VWS V14.01,2013-09-02 03:40:00,
2013-09-01 22:41:00,78.9,48.2,0.00,SSE,158,5.8,7.8,34,0.00,,---,0.00,VWS V14.01,2013-09-02 03:41:00,
2013-09-01 22:42:00,78.9,48.2,0.00,SE,135,8.5,8.7,34,0.00,,---,0.00,VWS V14.01,2013-09-02 03:42:00,
2013-09-01 22:43:00,79.3,48.5,0.00,SSE,158,4.0,8.7,34,0.00,,---,0.00,VWS V14.01,2013-09-02 03:43:00,
2013-09-01 22:45:00,79.3,48.5,0.00,SE,135,6.5,8.7,34,0.00,,---,0.00,VWS V14.01,2013-09-02 03:45:00,
2013-09-01 22:46:00,80.2,48.5,0.00,SE,135,7.6,9.0,33,0.00,,---,0.00,VWS V14.01,2013-09-02 03:46:00,
2013-09-01 22:47:00,80.2,48.5,0.00,SE,135,6.3,9.0,33,0.00,,---,0.00,VWS V14.01,2013-09-02 03:47:00,
2013-09-01 22:48:00,80.2,48.5,0.00,SE,135,6.3,9.0,33,0.00,,---,0.00,VWS V14.01,2013-09-02 03:48:00,
2013-09-01 22:49:00,80.2,48.5,0.00,South,180,5.4,9.0,33,0.00,,---,0.00,VWS V14.01,2013-09-02 03:49:00,
2013-09-01 22:51:00,80.7,49.0,0.00,South,180,10.3,13.6,33,0.00,,---,0.00,VWS V14.01,2013-09-02 03:51:00,
2013-09-01 22:52:00,80.7,49.0,0.00,SSE,158,7.8,13.6,33,0.00,,---,0.00,VWS V14.01,2013-09-02 03:52:00,
2013-09-01 22:53:00,80.7,49.0,0.00,SSE,158,10.1,13.6,33,0.00,,---,0.00,VWS V14.01,2013-09-02 03:53:00,
2013-09-01 22:54:00,80.7,49.0,0.00,South,180,8.5,13.6,33,0.00,,---,0.00,VWS V14.01,2013-09-02 03:54:00,
2013-09-01 22:55:00,80.9,48.3,0.00,SSE,158,6.9,13.6,32,0.00,,---,0.00,VWS V14.01,2013-09-02 03:55:00,
2013-09-01 22:56:00,81.3,49.5,0.00,SE,135,7.4,13.6,33,0.00,,---,0.00,VWS V14.01,2013-09-02 03:56:00,
2013-09-01 22:58:00,81.3,49.5,0.00,SSE,158,9.8,13.6,33,0.00,,---,0.00,VWS V14.01,2013-09-02 03:58:00,
2013-09-01 22:59:00,81.3,48.6,0.00,South,180,10.5,13.6,32,0.00,,---,0.00,VWS V14.01,2013-09-02 03:59:00,
2013-09-01 23:00:00,81.3,48.6,0.00,SW,225,5.4,13.6,32,0.00,,---,0.00,VWS V14.01,2013-09-02 04:00:00,
2013-09-01 23:01:00,81.3,48.6,0.00,South,180,9.2,9.2,32,0.00,,---,0.00,VWS V14.01,2013-09-02 04:01:00,
2013-09-01 23:02:00,81.1,48.5,0.00,South,180,7.4,9.2,32,0.00,,---,0.00,VWS V14.01,2013-09-02 04:02:00,
2013-09-01 23:03:00,81.1,48.5,0.00,SSW,202,7.4,9.2,32,0.00,,---,0.00,VWS V14.01,2013-09-02 04:03:00,
2013-09-01 23:04:00,81.3,48.6,0.00,SSW,202,7.6,9.8,32,0.00,,---,0.00,VWS V14.01,2013-09-02 04:04:00,
2013-09-01 23:05:00,81.3,48.6,0.00,SW,225,9.8,9.8,32,0.00,,---,0.00,VWS V14.01,2013-09-02 04:05:00,
2013-09-01 23:06:00,81.3,48.6,0.00,South,180,5.6,9.8,32,0.00,,---,0.00,VWS V14.01,2013-09-02 04:06:00,
2013-09-01 23:07:00,81.3,48.6,0.00,South,180,7.4,12.3,32,0.00,,---,0.00,VWS V14.01,2013-09-02 04:07:00,
2013-09-01 23:08:00,81.3,48.6,0.00,South,180,7.6,12.3,32,0.00,,---,0.00,VWS V14.01,2013-09-02 04:08:00,
2013-09-01 23:09:00,81.8,49.1,0.00,SE,135,8.5,12.3,32,0.00,,---,0.00,VWS V14.01,2013-09-02 04:09:00,
2013-09-01 23:10:00,81.8,49.1,0.00,SE,135,10.5,12.3,32,0.00,,---,0.00,VWS V14.01,2013-09-02 04:10:00,
2013-09-01 23:11:00,81.8,49.1,0.00,SE,135,5.8,12.3,32,0.00,,---,0.00,VWS V14.01,2013-09-02 04:11:00,
2013-09-01 23:12:00,81.8,49.1,0.00,SSE,158,6.5,12.3,32,0.00,,---,0.00,VWS V14.01,2013-09-02 04:12:00,
2013-09-01 23:13:00,82.9,49.2,0.00,SE,135,10.1,12.3,31,0.00,,---,0.00,VWS V14.01,2013-09-02 04:13:00,
2013-09-01 23:14:00,83.4,49.7,0.00,SE,135,7.2,12.3,31,0.00,,---,0.00,VWS V14.01,2013-09-02 04:14:00,
2013-09-01 23:15:00,83.4,49.7,0.00,South,180,8.1,12.3,31,0.00,,---,0.00,VWS V14.01,2013-09-02 04:15:00,
2013-09-01 23:16:00,83.1,49.3,0.00,SW,225,5.8,8.1,31,0.00,,---,0.00,VWS V14.01,2013-09-02 04:16:00,
2013-09-01 23:17:00,83.1,49.3,0.00,SSE,158,9.8,9.8,31,0.00,,---,0.00,VWS V14.01,2013-09-02 04:17:00,
2013-09-01 23:18:00,83.1,49.3,0.00,SSE,158,5.4,9.8,31,0.00,,---,0.00,VWS V14.01,2013-09-02 04:18:00,
2013-09-01 23:19:00,83.1,49.3,0.00,SW,225,7.6,9.8,31,0.00,,---,0.00,VWS V14.01,2013-09-02 04:19:00,
2013-09-01 23:20:00,83.1,49.3,0.00,SW,225,3.4,9.8,31,0.00,,---,0.00,VWS V14.01,2013-09-02 04:20:00,
2013-09-01 23:21:00,83.1,49.3,0.00,SSE,158,10.7,10.7,31,0.00,,---,0.00,VWS V14.01,2013-09-02 04:21:00,
2013-09-01 23:22:00,83.4,48.8,0.00,South,180,14.5,14.5,30,0.00,,---,0.00,VWS V14.01,2013-09-02 04:22:00,
2013-09-01 23:23:00,83.4,48.8,0.00,SW,225,7.4,14.5,30,0.00,,---,0.00,VWS V14.01,2013-09-02 04:23:00,
2013-09-01 23:24:00,83.4,48.8,0.00,SW,225,9.8,14.5,30,0.00,,---,0.00,VWS V14.01,2013-09-02 04:24:00,
2013-09-01 23:25:00,83.8,48.2,0.00,SW,225,6.5,14.5,29,0.00,,---,0.00,VWS V14.01,2013-09-02 04:25:00,
2013-09-01 23:26:00,83.8,48.2,0.00,WSW,248,6.3,14.5,29,0.00,,---,0.00,VWS V14.01,2013-09-02 04:26:00,
2013-09-01 23:27:00,84.2,48.5,0.00,South,180,7.4,14.5,29,0.00,,---,0.00,VWS V14.01,2013-09-02 04:27:00,
2013-09-01 23:28:00,84.2,48.5,0.00,South,180,7.4,14.5,29,0.00,,---,0.00,VWS V14.01,2013-09-02 04:28:00,
2013-09-01 23:29:00,84.2,48.5,0.00,South,180,10.1,14.5,29,0.00,,---,0.00,VWS V14.01,2013-09-02 04:29:00,
2013-09-01 23:30:00,84.2,48.5,0.00,South,180,8.7,14.5,29,0.00,,---,0.00,VWS V14.01,2013-09-02 04:30:00,
2013-09-01 23:31:00,84.2,48.5,0.00,SSW,202,10.1,10.7,29,0.00,,---,0.00,VWS V14.01,2013-09-02 04:31:00,
2013-09-01 23:33:00,83.8,48.2,0.00,SW,225,10.5,11.2,29,0.00,,---,0.00,VWS V14.01,2013-09-02 04:33:00,
2013-09-01 23:34:00,83.4,48.8,0.00,SSE,158,12.8,13.2,30,0.00,,---,0.00,VWS V14.01,2013-09-02 04:34:00,
2013-09-01 23:35:00,83.4,48.8,0.00,South,180,10.5,13.2,30,0.00,,---,0.00,VWS V14.01,2013-09-02 04:35:00,
2013-09-01 23:36:00,83.1,48.5,0.00,South,180,11.0,14.5,30,0.00,,---,0.00,VWS V14.01,2013-09-02 04:36:00,
2013-09-01 23:37:00,83.1,48.5,0.00,South,180,10.5,14.5,30,0.00,,---,0.00,VWS V14.01,2013-09-02 04:37:00,
2013-09-01 23:38:00,83.1,48.5,0.00,South,180,13.0,14.5,30,0.00,,---,0.00,VWS V14.01,2013-09-02 04:38:00,
2013-09-01 23:39:00,83.1,48.5,0.00,South,180,13.0,14.5,30,0.00,,---,0.00,VWS V14.01,2013-09-02 04:39:00,
2013-09-01 23:40:00,83.1,48.5,0.00,SE,135,5.4,14.5,30,0.00,,---,0.00,VWS V14.01,2013-09-02 04:40:00,
2013-09-01 23:41:00,60.0,39.2,0.00,South,180,1.3,2.5,46,0.00,,---,0.00,VWS V14.01,2013-09-02 04:41:00,
2013-09-01 23:42:00,84.2,48.5,0.00,South,180,6.5,14.5,29,0.00,,---,0.00,VWS V14.01,2013-09-02 04:42:00,
2013-09-01 23:43:00,84.2,48.5,0.00,South,180,7.2,14.5,29,0.00,,---,0.00,VWS V14.01,2013-09-02 04:43:00,
2013-09-01 23:44:00,84.2,48.5,0.00,South,180,8.5,14.5,29,0.00,,---,0.00,VWS V14.01,2013-09-02 04:44:00,
2013-09-01 23:45:00,84.2,48.5,0.00,SSW,202,6.5,14.5,29,0.00,,---,0.00,VWS V14.01,2013-09-02 04:45:00,
2013-09-01 23:46:00,84.2,48.5,0.00,South,180,8.7,12.8,29,0.00,,---,0.00,VWS V14.01,2013-09-02 04:46:00,
2013-09-01 23:47:00,84.2,48.5,0.00,SSW,202,7.4,12.8,29,0.00,,---,0.00,VWS V14.01,2013-09-02 04:47:00,
2013-09-01 23:48:00,84.3,48.7,0.00,SSW,202,7.8,12.8,29,0.00,,---,0.00,VWS V14.01,2013-09-02 04:48:00,
2013-09-01 23:49:00,84.3,48.7,0.00,SW,225,5.8,12.8,29,0.00,,---,0.00,VWS V14.01,2013-09-02 04:49:00,
2013-09-01 23:50:00,85.1,49.3,0.00,SW,225,7.6,12.8,29,0.00,,---,0.00,VWS V14.01,2013-09-02 04:50:00,
2013-09-01 23:51:00,85.1,49.3,0.00,South,180,8.7,12.8,29,0.00,,---,0.00,VWS V14.01,2013-09-02 04:51:00,
2013-09-01 23:52:00,85.1,49.3,0.00,South,180,13.0,13.0,29,0.00,,---,0.00,VWS V14.01,2013-09-02 04:52:00,
2013-09-01 23:53:00,84.3,48.7,0.00,South,180,15.2,15.4,29,0.00,,---,0.00,VWS V14.01,2013-09-02 04:53:00,
2013-09-01 23:54:00,84.3,48.7,0.00,South,180,12.5,15.4,29,0.00,,---,0.00,VWS V14.01,2013-09-02 04:54:00,
2013-09-01 23:55:00,84.3,48.7,0.00,South,180,10.3,15.4,29,0.00,,---,0.00,VWS V14.01,2013-09-02 04:55:00,
2013-09-01 23:56:00,84.3,48.7,0.00,SSW,202,12.1,15.4,29,0.00,,---,0.00,VWS V14.01,2013-09-02 04:56:00,
2013-09-01 23:57:00,84.0,48.3,0.00,South,180,7.2,15.4,29,0.00,,---,0.00,VWS V14.01,2013-09-02 04:57:00,
2013-09-01 23:58:00,84.0,48.3,0.00,South,180,7.4,15.4,29,0.00,,---,0.00,VWS V14.01,2013-09-02 04:58:00,
2013-09-01 23:59:00,84.0,48.3,0.00,South,180,6.0,15.4,29,0.00,,---,0.00,VWS V14.01,2013-09-02 04:59:00,